<?xml version="1.0" encoding="UTF-8" standalone="no" ?>
<gpx xmlns="http://www.topografix.com/GPX/1/1" xmlns:xsi="http://www.w3.org/2001/XMLSchema-instance" xsi:schemaLocation="http://www.topografix.com/GPX/1/1 http://www.topografix.com/GPX/1/1/gpx.xsd" version="1.1" creator="VisuGPX - https://www.visugpx.com">
  <metadata>
    <name>Traversée des Pyrénées 1/8</name>
    <desc><![CDATA[Partie 1/8 de la traversée des Pyrénées à ski.]]></desc>
  </metadata>
  <trk>
    <name><![CDATA[TPS1 04 FEB 2016]]></name>
    <trkseg>
      <trkpt lat="42.52335" lon="2.38827">
        <ele>886.95</ele>
        <time>2017-02-04T11:00:43Z</time>
      </trkpt>
      <trkpt lat="42.52305" lon="2.38803">
        <ele>891.28</ele>
        <time>2017-02-04T11:01:52Z</time>
      </trkpt>
      <trkpt lat="42.5229" lon="2.38772">
        <ele>894.64</ele>
        <time>2017-02-04T11:02:33Z</time>
      </trkpt>
      <trkpt lat="42.52273" lon="2.3874">
        <ele>898.01</ele>
        <time>2017-02-04T11:03:14Z</time>
      </trkpt>
      <trkpt lat="42.52247" lon="2.38715">
        <ele>904.26</ele>
        <time>2017-02-04T11:04:13Z</time>
      </trkpt>
      <trkpt lat="42.52247" lon="2.38725">
        <ele>902.82</ele>
        <time>2017-02-04T11:04:25Z</time>
      </trkpt>
      <trkpt lat="42.52251" lon="2.38754">
        <ele>906.66</ele>
        <time>2017-02-04T11:04:50Z</time>
      </trkpt>
      <trkpt lat="42.52226" lon="2.38758">
        <ele>910.99</ele>
        <time>2017-02-04T11:05:31Z</time>
      </trkpt>
      <trkpt lat="42.52205" lon="2.38725">
        <ele>914.83</ele>
        <time>2017-02-04T11:06:13Z</time>
      </trkpt>
      <trkpt lat="42.52189" lon="2.387">
        <ele>918.2</ele>
        <time>2017-02-04T11:06:55Z</time>
      </trkpt>
      <trkpt lat="42.52158" lon="2.38676">
        <ele>921.56</ele>
        <time>2017-02-04T11:07:38Z</time>
      </trkpt>
      <trkpt lat="42.52125" lon="2.38644">
        <ele>924.45</ele>
        <time>2017-02-04T11:08:47Z</time>
      </trkpt>
      <trkpt lat="42.5209" lon="2.38569">
        <ele>927.81</ele>
        <time>2017-02-04T11:09:56Z</time>
      </trkpt>
      <trkpt lat="42.52089" lon="2.38564">
        <ele>927.81</ele>
        <time>2017-02-04T11:10:00Z</time>
      </trkpt>
      <trkpt lat="42.52076" lon="2.38548">
        <ele>931.17</ele>
        <time>2017-02-04T11:10:23Z</time>
      </trkpt>
      <trkpt lat="42.52073" lon="2.38517">
        <ele>936.94</ele>
        <time>2017-02-04T11:11:03Z</time>
      </trkpt>
      <trkpt lat="42.5206" lon="2.38498">
        <ele>941.75</ele>
        <time>2017-02-04T11:11:39Z</time>
      </trkpt>
      <trkpt lat="42.5204" lon="2.38469">
        <ele>945.11</ele>
        <time>2017-02-04T11:12:19Z</time>
      </trkpt>
      <trkpt lat="42.52016" lon="2.3845">
        <ele>949.92</ele>
        <time>2017-02-04T11:13:03Z</time>
      </trkpt>
      <trkpt lat="42.51999" lon="2.38421">
        <ele>954.25</ele>
        <time>2017-02-04T11:13:41Z</time>
      </trkpt>
      <trkpt lat="42.51986" lon="2.38405">
        <ele>958.09</ele>
        <time>2017-02-04T11:14:25Z</time>
      </trkpt>
      <trkpt lat="42.51959" lon="2.38398">
        <ele>962.9</ele>
        <time>2017-02-04T11:15:10Z</time>
      </trkpt>
      <trkpt lat="42.51937" lon="2.38375">
        <ele>967.22</ele>
        <time>2017-02-04T11:15:50Z</time>
      </trkpt>
      <trkpt lat="42.51923" lon="2.38352">
        <ele>971.55</ele>
        <time>2017-02-04T11:16:31Z</time>
      </trkpt>
      <trkpt lat="42.51914" lon="2.38336">
        <ele>976.84</ele>
        <time>2017-02-04T11:17:18Z</time>
      </trkpt>
      <trkpt lat="42.51891" lon="2.38325">
        <ele>982.6</ele>
        <time>2017-02-04T11:17:59Z</time>
      </trkpt>
      <trkpt lat="42.51869" lon="2.38314">
        <ele>988.37</ele>
        <time>2017-02-04T11:18:38Z</time>
      </trkpt>
      <trkpt lat="42.51844" lon="2.38294">
        <ele>993.66</ele>
        <time>2017-02-04T11:21:04Z</time>
      </trkpt>
      <trkpt lat="42.51836" lon="2.38284">
        <ele>997.02</ele>
        <time>2017-02-04T11:21:23Z</time>
      </trkpt>
      <trkpt lat="42.51814" lon="2.38267">
        <ele>1003.27</ele>
        <time>2017-02-04T11:21:58Z</time>
      </trkpt>
      <trkpt lat="42.518" lon="2.38248">
        <ele>1007.6</ele>
        <time>2017-02-04T11:22:38Z</time>
      </trkpt>
      <trkpt lat="42.51786" lon="2.38225">
        <ele>1012.41</ele>
        <time>2017-02-04T11:23:17Z</time>
      </trkpt>
      <trkpt lat="42.51769" lon="2.38209">
        <ele>1017.21</ele>
        <time>2017-02-04T11:24:01Z</time>
      </trkpt>
      <trkpt lat="42.51759" lon="2.38199">
        <ele>1020.58</ele>
        <time>2017-02-04T11:24:18Z</time>
      </trkpt>
      <trkpt lat="42.51738" lon="2.38188">
        <ele>1025.86</ele>
        <time>2017-02-04T11:24:58Z</time>
      </trkpt>
      <trkpt lat="42.51715" lon="2.38181">
        <ele>1030.19</ele>
        <time>2017-02-04T11:25:38Z</time>
      </trkpt>
      <trkpt lat="42.51699" lon="2.38187">
        <ele>1035</ele>
        <time>2017-02-04T11:26:20Z</time>
      </trkpt>
      <trkpt lat="42.51687" lon="2.38189">
        <ele>1041.25</ele>
        <time>2017-02-04T11:26:58Z</time>
      </trkpt>
      <trkpt lat="42.51682" lon="2.38165">
        <ele>1046.53</ele>
        <time>2017-02-04T11:27:38Z</time>
      </trkpt>
      <trkpt lat="42.51687" lon="2.38151">
        <ele>1049.9</ele>
        <time>2017-02-04T11:27:58Z</time>
      </trkpt>
      <trkpt lat="42.51701" lon="2.38128">
        <ele>1054.22</ele>
        <time>2017-02-04T11:28:33Z</time>
      </trkpt>
      <trkpt lat="42.51705" lon="2.38115">
        <ele>1058.55</ele>
        <time>2017-02-04T11:29:07Z</time>
      </trkpt>
      <trkpt lat="42.51688" lon="2.38118">
        <ele>1062.39</ele>
        <time>2017-02-04T11:29:37Z</time>
      </trkpt>
      <trkpt lat="42.51666" lon="2.3812">
        <ele>1067.68</ele>
        <time>2017-02-04T11:30:15Z</time>
      </trkpt>
      <trkpt lat="42.51646" lon="2.38106">
        <ele>1072.49</ele>
        <time>2017-02-04T11:30:54Z</time>
      </trkpt>
      <trkpt lat="42.51625" lon="2.3815">
        <ele>1076.81</ele>
        <time>2017-02-04T11:31:50Z</time>
      </trkpt>
      <trkpt lat="42.51599" lon="2.38162">
        <ele>1080.66</ele>
        <time>2017-02-04T11:32:29Z</time>
      </trkpt>
      <trkpt lat="42.51587" lon="2.38163">
        <ele>1084.99</ele>
        <time>2017-02-04T11:33:05Z</time>
      </trkpt>
      <trkpt lat="42.51567" lon="2.38162">
        <ele>1089.31</ele>
        <time>2017-02-04T11:33:39Z</time>
      </trkpt>
      <trkpt lat="42.51552" lon="2.38158">
        <ele>1093.64</ele>
        <time>2017-02-04T11:34:20Z</time>
      </trkpt>
      <trkpt lat="42.51533" lon="2.38155">
        <ele>1099.4</ele>
        <time>2017-02-04T11:34:57Z</time>
      </trkpt>
      <trkpt lat="42.51534" lon="2.38137">
        <ele>1104.69</ele>
        <time>2017-02-04T11:35:36Z</time>
      </trkpt>
      <trkpt lat="42.51546" lon="2.38121">
        <ele>1109.02</ele>
        <time>2017-02-04T11:36:13Z</time>
      </trkpt>
      <trkpt lat="42.51537" lon="2.38121">
        <ele>1111.42</ele>
        <time>2017-02-04T11:36:31Z</time>
      </trkpt>
      <trkpt lat="42.5151" lon="2.38125">
        <ele>1114.79</ele>
        <time>2017-02-04T11:37:03Z</time>
      </trkpt>
      <trkpt lat="42.51489" lon="2.38109">
        <ele>1124.88</ele>
        <time>2017-02-04T11:50:03Z</time>
      </trkpt>
      <trkpt lat="42.51482" lon="2.38105">
        <ele>1124.88</ele>
        <time>2017-02-04T11:50:38Z</time>
      </trkpt>
      <trkpt lat="42.51444" lon="2.38106">
        <ele>1126.8</ele>
        <time>2017-02-04T11:51:22Z</time>
      </trkpt>
      <trkpt lat="42.51411" lon="2.38082">
        <ele>1130.17</ele>
        <time>2017-02-04T11:52:09Z</time>
      </trkpt>
      <trkpt lat="42.51369" lon="2.38058">
        <ele>1134.01</ele>
        <time>2017-02-04T11:53:27Z</time>
      </trkpt>
      <trkpt lat="42.51341" lon="2.38025">
        <ele>1137.38</ele>
        <time>2017-02-04T11:54:15Z</time>
      </trkpt>
      <trkpt lat="42.51321" lon="2.38014">
        <ele>1140.74</ele>
        <time>2017-02-04T11:54:43Z</time>
      </trkpt>
      <trkpt lat="42.51304" lon="2.3801">
        <ele>1144.59</ele>
        <time>2017-02-04T11:55:08Z</time>
      </trkpt>
      <trkpt lat="42.51293" lon="2.38009">
        <ele>1143.63</ele>
        <time>2017-02-04T11:55:25Z</time>
      </trkpt>
      <trkpt lat="42.51268" lon="2.38027">
        <ele>1147.95</ele>
        <time>2017-02-04T11:56:19Z</time>
      </trkpt>
      <trkpt lat="42.51248" lon="2.38045">
        <ele>1151.8</ele>
        <time>2017-02-04T11:57:00Z</time>
      </trkpt>
      <trkpt lat="42.51235" lon="2.3806">
        <ele>1155.16</ele>
        <time>2017-02-04T11:57:41Z</time>
      </trkpt>
      <trkpt lat="42.51271" lon="2.38044">
        <ele>1157.56</ele>
        <time>2017-02-04T11:58:15Z</time>
      </trkpt>
      <trkpt lat="42.51304" lon="2.38048">
        <ele>1160.93</ele>
        <time>2017-02-04T11:58:57Z</time>
      </trkpt>
      <trkpt lat="42.51322" lon="2.38068">
        <ele>1164.29</ele>
        <time>2017-02-04T11:59:26Z</time>
      </trkpt>
      <trkpt lat="42.5134" lon="2.38095">
        <ele>1167.66</ele>
        <time>2017-02-04T11:59:57Z</time>
      </trkpt>
      <trkpt lat="42.51361" lon="2.38128">
        <ele>1171.5</ele>
        <time>2017-02-04T12:00:33Z</time>
      </trkpt>
      <trkpt lat="42.51393" lon="2.38163">
        <ele>1176.31</ele>
        <time>2017-02-04T12:01:22Z</time>
      </trkpt>
      <trkpt lat="42.51395" lon="2.38166">
        <ele>1176.31</ele>
        <time>2017-02-04T12:01:26Z</time>
      </trkpt>
      <trkpt lat="42.51403" lon="2.38204">
        <ele>1180.16</ele>
        <time>2017-02-04T12:02:01Z</time>
      </trkpt>
      <trkpt lat="42.51394" lon="2.38239">
        <ele>1184.48</ele>
        <time>2017-02-04T12:02:44Z</time>
      </trkpt>
      <trkpt lat="42.51391" lon="2.38277">
        <ele>1188.81</ele>
        <time>2017-02-04T12:03:21Z</time>
      </trkpt>
      <trkpt lat="42.51392" lon="2.38332">
        <ele>1193.61</ele>
        <time>2017-02-04T12:04:16Z</time>
      </trkpt>
      <trkpt lat="42.51391" lon="2.3837">
        <ele>1196.98</ele>
        <time>2017-02-04T12:04:49Z</time>
      </trkpt>
      <trkpt lat="42.51399" lon="2.38422">
        <ele>1200.82</ele>
        <time>2017-02-04T12:05:36Z</time>
      </trkpt>
      <trkpt lat="42.51426" lon="2.38458">
        <ele>1205.15</ele>
        <time>2017-02-04T12:06:28Z</time>
      </trkpt>
      <trkpt lat="42.51438" lon="2.38483">
        <ele>1208.51</ele>
        <time>2017-02-04T12:07:03Z</time>
      </trkpt>
      <trkpt lat="42.51447" lon="2.38517">
        <ele>1213.32</ele>
        <time>2017-02-04T12:07:46Z</time>
      </trkpt>
      <trkpt lat="42.51452" lon="2.38551">
        <ele>1217.65</ele>
        <time>2017-02-04T12:08:27Z</time>
      </trkpt>
      <trkpt lat="42.51461" lon="2.38587">
        <ele>1221.49</ele>
        <time>2017-02-04T12:09:07Z</time>
      </trkpt>
      <trkpt lat="42.51461" lon="2.38588">
        <ele>1221.49</ele>
        <time>2017-02-04T12:09:08Z</time>
      </trkpt>
      <trkpt lat="42.51466" lon="2.38641">
        <ele>1225.82</ele>
        <time>2017-02-04T12:10:04Z</time>
      </trkpt>
      <trkpt lat="42.5145" lon="2.38665">
        <ele>1230.14</ele>
        <time>2017-02-04T12:10:44Z</time>
      </trkpt>
      <trkpt lat="42.51415" lon="2.38671">
        <ele>1235.43</ele>
        <time>2017-02-04T12:11:46Z</time>
      </trkpt>
      <trkpt lat="42.51386" lon="2.38688">
        <ele>1238.8</ele>
        <time>2017-02-04T12:12:30Z</time>
      </trkpt>
      <trkpt lat="42.51365" lon="2.38707">
        <ele>1242.64</ele>
        <time>2017-02-04T12:13:13Z</time>
      </trkpt>
      <trkpt lat="42.51346" lon="2.38731">
        <ele>1246.49</ele>
        <time>2017-02-04T12:13:55Z</time>
      </trkpt>
      <trkpt lat="42.51324" lon="2.38755">
        <ele>1250.81</ele>
        <time>2017-02-04T12:14:42Z</time>
      </trkpt>
      <trkpt lat="42.51303" lon="2.38774">
        <ele>1255.14</ele>
        <time>2017-02-04T12:15:24Z</time>
      </trkpt>
      <trkpt lat="42.51281" lon="2.38792">
        <ele>1258.98</ele>
        <time>2017-02-04T12:16:02Z</time>
      </trkpt>
      <trkpt lat="42.51255" lon="2.38807">
        <ele>1262.83</ele>
        <time>2017-02-04T12:16:40Z</time>
      </trkpt>
      <trkpt lat="42.51237" lon="2.38833">
        <ele>1266.67</ele>
        <time>2017-02-04T12:17:19Z</time>
      </trkpt>
      <trkpt lat="42.51227" lon="2.38868">
        <ele>1270.52</ele>
        <time>2017-02-04T12:17:58Z</time>
      </trkpt>
      <trkpt lat="42.51212" lon="2.38894">
        <ele>1273.88</ele>
        <time>2017-02-04T12:18:34Z</time>
      </trkpt>
      <trkpt lat="42.51196" lon="2.38924">
        <ele>1277.73</ele>
        <time>2017-02-04T12:19:15Z</time>
      </trkpt>
      <trkpt lat="42.51169" lon="2.3897">
        <ele>1283.02</ele>
        <time>2017-02-04T12:20:13Z</time>
      </trkpt>
      <trkpt lat="42.51179" lon="2.38921">
        <ele>1287.82</ele>
        <time>2017-02-04T12:21:12Z</time>
      </trkpt>
      <trkpt lat="42.51201" lon="2.38859">
        <ele>1292.15</ele>
        <time>2017-02-04T12:22:30Z</time>
      </trkpt>
      <trkpt lat="42.51202" lon="2.38824">
        <ele>1295.51</ele>
        <time>2017-02-04T12:23:04Z</time>
      </trkpt>
      <trkpt lat="42.51199" lon="2.38789">
        <ele>1300.32</ele>
        <time>2017-02-04T12:23:44Z</time>
      </trkpt>
      <trkpt lat="42.51209" lon="2.38757">
        <ele>1304.17</ele>
        <time>2017-02-04T12:24:22Z</time>
      </trkpt>
      <trkpt lat="42.51224" lon="2.38734">
        <ele>1307.53</ele>
        <time>2017-02-04T12:24:59Z</time>
      </trkpt>
      <trkpt lat="42.51249" lon="2.38703">
        <ele>1311.86</ele>
        <time>2017-02-04T12:25:55Z</time>
      </trkpt>
      <trkpt lat="42.5128" lon="2.38665">
        <ele>1316.18</ele>
        <time>2017-02-04T12:26:55Z</time>
      </trkpt>
      <trkpt lat="42.51294" lon="2.38634">
        <ele>1320.03</ele>
        <time>2017-02-04T12:27:38Z</time>
      </trkpt>
      <trkpt lat="42.51301" lon="2.38592">
        <ele>1323.87</ele>
        <time>2017-02-04T12:28:20Z</time>
      </trkpt>
      <trkpt lat="42.51291" lon="2.38569">
        <ele>1325.31</ele>
        <time>2017-02-04T12:28:57Z</time>
      </trkpt>
      <trkpt lat="42.51258" lon="2.38543">
        <ele>1327.24</ele>
        <time>2017-02-04T12:29:42Z</time>
      </trkpt>
      <trkpt lat="42.51242" lon="2.38506">
        <ele>1330.6</ele>
        <time>2017-02-04T12:30:25Z</time>
      </trkpt>
      <trkpt lat="42.51235" lon="2.38485">
        <ele>1330.6</ele>
        <time>2017-02-04T12:30:45Z</time>
      </trkpt>
      <trkpt lat="42.51212" lon="2.38391">
        <ele>1333.97</ele>
        <time>2017-02-04T12:32:54Z</time>
      </trkpt>
      <trkpt lat="42.51211" lon="2.38389">
        <ele>1332.52</ele>
        <time>2017-02-04T12:39:07Z</time>
      </trkpt>
      <trkpt lat="42.51207" lon="2.38445">
        <ele>1337.33</ele>
        <time>2017-02-04T12:42:24Z</time>
      </trkpt>
      <trkpt lat="42.51212" lon="2.38487">
        <ele>1342.14</ele>
        <time>2017-02-04T12:43:16Z</time>
      </trkpt>
      <trkpt lat="42.51217" lon="2.38526">
        <ele>1346.46</ele>
        <time>2017-02-04T12:43:58Z</time>
      </trkpt>
      <trkpt lat="42.51228" lon="2.38557">
        <ele>1351.27</ele>
        <time>2017-02-04T12:44:39Z</time>
      </trkpt>
      <trkpt lat="42.5124" lon="2.38595">
        <ele>1356.56</ele>
        <time>2017-02-04T12:45:26Z</time>
      </trkpt>
      <trkpt lat="42.51231" lon="2.38624">
        <ele>1359.92</ele>
        <time>2017-02-04T12:46:05Z</time>
      </trkpt>
      <trkpt lat="42.51212" lon="2.3864">
        <ele>1364.73</ele>
        <time>2017-02-04T12:46:42Z</time>
      </trkpt>
      <trkpt lat="42.51187" lon="2.38646">
        <ele>1369.05</ele>
        <time>2017-02-04T12:47:24Z</time>
      </trkpt>
      <trkpt lat="42.5117" lon="2.38663">
        <ele>1373.86</ele>
        <time>2017-02-04T12:48:04Z</time>
      </trkpt>
      <trkpt lat="42.51146" lon="2.38671">
        <ele>1377.23</ele>
        <time>2017-02-04T12:48:42Z</time>
      </trkpt>
      <trkpt lat="42.51131" lon="2.38683">
        <ele>1380.11</ele>
        <time>2017-02-04T12:49:06Z</time>
      </trkpt>
      <trkpt lat="42.51108" lon="2.38703">
        <ele>1384.44</ele>
        <time>2017-02-04T12:49:53Z</time>
      </trkpt>
      <trkpt lat="42.51092" lon="2.38732">
        <ele>1388.28</ele>
        <time>2017-02-04T12:50:35Z</time>
      </trkpt>
      <trkpt lat="42.51083" lon="2.38764">
        <ele>1393.09</ele>
        <time>2017-02-04T12:51:14Z</time>
      </trkpt>
      <trkpt lat="42.51079" lon="2.38801">
        <ele>1397.89</ele>
        <time>2017-02-04T12:51:54Z</time>
      </trkpt>
      <trkpt lat="42.51061" lon="2.38836">
        <ele>1403.18</ele>
        <time>2017-02-04T12:52:38Z</time>
      </trkpt>
      <trkpt lat="42.51042" lon="2.38857">
        <ele>1407.51</ele>
        <time>2017-02-04T12:53:18Z</time>
      </trkpt>
      <trkpt lat="42.51019" lon="2.3888">
        <ele>1411.83</ele>
        <time>2017-02-04T12:54:05Z</time>
      </trkpt>
      <trkpt lat="42.51004" lon="2.38905">
        <ele>1416.16</ele>
        <time>2017-02-04T12:54:39Z</time>
      </trkpt>
      <trkpt lat="42.50986" lon="2.3893">
        <ele>1420.97</ele>
        <time>2017-02-04T12:55:22Z</time>
      </trkpt>
      <trkpt lat="42.50972" lon="2.38968">
        <ele>1425.29</ele>
        <time>2017-02-04T12:56:08Z</time>
      </trkpt>
      <trkpt lat="42.50961" lon="2.39004">
        <ele>1428.66</ele>
        <time>2017-02-04T12:56:44Z</time>
      </trkpt>
      <trkpt lat="42.50934" lon="2.39027">
        <ele>1432.98</ele>
        <time>2017-02-04T12:57:29Z</time>
      </trkpt>
      <trkpt lat="42.50913" lon="2.39035">
        <ele>1436.35</ele>
        <time>2017-02-04T12:58:09Z</time>
      </trkpt>
      <trkpt lat="42.5089" lon="2.39054">
        <ele>1439.71</ele>
        <time>2017-02-04T12:58:46Z</time>
      </trkpt>
      <trkpt lat="42.50871" lon="2.3907">
        <ele>1443.08</ele>
        <time>2017-02-04T12:59:24Z</time>
      </trkpt>
      <trkpt lat="42.50857" lon="2.39099">
        <ele>1445.96</ele>
        <time>2017-02-04T13:00:24Z</time>
      </trkpt>
      <trkpt lat="42.5086" lon="2.39144">
        <ele>1450.29</ele>
        <time>2017-02-04T13:02:23Z</time>
      </trkpt>
      <trkpt lat="42.50865" lon="2.39177">
        <ele>1453.65</ele>
        <time>2017-02-04T13:02:53Z</time>
      </trkpt>
      <trkpt lat="42.50877" lon="2.39213">
        <ele>1457.98</ele>
        <time>2017-02-04T13:03:29Z</time>
      </trkpt>
      <trkpt lat="42.50889" lon="2.39248">
        <ele>1462.3</ele>
        <time>2017-02-04T13:04:09Z</time>
      </trkpt>
      <trkpt lat="42.50898" lon="2.39265">
        <ele>1464.23</ele>
        <time>2017-02-04T13:04:27Z</time>
      </trkpt>
      <trkpt lat="42.5092" lon="2.39298">
        <ele>1468.55</ele>
        <time>2017-02-04T13:05:03Z</time>
      </trkpt>
      <trkpt lat="42.50927" lon="2.39336">
        <ele>1473.36</ele>
        <time>2017-02-04T13:05:40Z</time>
      </trkpt>
      <trkpt lat="42.50905" lon="2.39372">
        <ele>1476.72</ele>
        <time>2017-02-04T13:06:19Z</time>
      </trkpt>
      <trkpt lat="42.50877" lon="2.39405">
        <ele>1480.57</ele>
        <time>2017-02-04T13:07:05Z</time>
      </trkpt>
      <trkpt lat="42.50867" lon="2.39426">
        <ele>1482.01</ele>
        <time>2017-02-04T13:07:25Z</time>
      </trkpt>
      <trkpt lat="42.50852" lon="2.39453">
        <ele>1485.37</ele>
        <time>2017-02-04T13:07:52Z</time>
      </trkpt>
      <trkpt lat="42.50823" lon="2.39481">
        <ele>1488.74</ele>
        <time>2017-02-04T13:08:32Z</time>
      </trkpt>
      <trkpt lat="42.50749" lon="2.39487">
        <ele>1492.1</ele>
        <time>2017-02-04T13:09:53Z</time>
      </trkpt>
      <trkpt lat="42.50706" lon="2.39487">
        <ele>1491.62</ele>
        <time>2017-02-04T13:13:38Z</time>
      </trkpt>
      <trkpt lat="42.50662" lon="2.3948">
        <ele>1493.55</ele>
        <time>2017-02-04T13:14:35Z</time>
      </trkpt>
      <trkpt lat="42.5059" lon="2.39483">
        <ele>1497.39</ele>
        <time>2017-02-04T13:16:01Z</time>
      </trkpt>
      <trkpt lat="42.50548" lon="2.39474">
        <ele>1501.24</ele>
        <time>2017-02-04T13:16:53Z</time>
      </trkpt>
      <trkpt lat="42.50503" lon="2.3946">
        <ele>1504.6</ele>
        <time>2017-02-04T13:17:49Z</time>
      </trkpt>
      <trkpt lat="42.50502" lon="2.39531">
        <ele>1508.45</ele>
        <time>2017-02-04T13:18:51Z</time>
      </trkpt>
      <trkpt lat="42.50502" lon="2.39574">
        <ele>1512.77</ele>
        <time>2017-02-04T13:19:31Z</time>
      </trkpt>
      <trkpt lat="42.50493" lon="2.39605">
        <ele>1517.58</ele>
        <time>2017-02-04T13:20:08Z</time>
      </trkpt>
      <trkpt lat="42.50457" lon="2.39602">
        <ele>1521.9</ele>
        <time>2017-02-04T13:20:49Z</time>
      </trkpt>
      <trkpt lat="42.50431" lon="2.39616">
        <ele>1526.71</ele>
        <time>2017-02-04T13:21:34Z</time>
      </trkpt>
      <trkpt lat="42.50404" lon="2.39638">
        <ele>1530.56</ele>
        <time>2017-02-04T13:22:12Z</time>
      </trkpt>
      <trkpt lat="42.50375" lon="2.3965">
        <ele>1534.4</ele>
        <time>2017-02-04T13:22:51Z</time>
      </trkpt>
      <trkpt lat="42.50347" lon="2.39673">
        <ele>1538.73</ele>
        <time>2017-02-04T13:23:32Z</time>
      </trkpt>
      <trkpt lat="42.50317" lon="2.3969">
        <ele>1542.57</ele>
        <time>2017-02-04T13:24:17Z</time>
      </trkpt>
      <trkpt lat="42.50282" lon="2.39713">
        <ele>1547.86</ele>
        <time>2017-02-04T13:25:04Z</time>
      </trkpt>
      <trkpt lat="42.5025" lon="2.39742">
        <ele>1549.3</ele>
        <time>2017-02-04T13:25:40Z</time>
      </trkpt>
      <trkpt lat="42.50233" lon="2.39767">
        <ele>1552.67</ele>
        <time>2017-02-04T13:26:16Z</time>
      </trkpt>
      <trkpt lat="42.50244" lon="2.39783">
        <ele>1555.55</ele>
        <time>2017-02-04T13:26:38Z</time>
      </trkpt>
      <trkpt lat="42.50245" lon="2.39784">
        <ele>1555.55</ele>
        <time>2017-02-04T13:26:40Z</time>
      </trkpt>
      <trkpt lat="42.50272" lon="2.39825">
        <ele>1560.36</ele>
        <time>2017-02-04T13:27:53Z</time>
      </trkpt>
      <trkpt lat="42.50295" lon="2.39851">
        <ele>1564.68</ele>
        <time>2017-02-04T13:28:33Z</time>
      </trkpt>
      <trkpt lat="42.50316" lon="2.39882">
        <ele>1569.01</ele>
        <time>2017-02-04T13:29:17Z</time>
      </trkpt>
      <trkpt lat="42.50322" lon="2.39916">
        <ele>1572.85</ele>
        <time>2017-02-04T13:29:58Z</time>
      </trkpt>
      <trkpt lat="42.50327" lon="2.39972">
        <ele>1577.66</ele>
        <time>2017-02-04T13:30:51Z</time>
      </trkpt>
      <trkpt lat="42.50316" lon="2.40011">
        <ele>1581.03</ele>
        <time>2017-02-04T13:31:27Z</time>
      </trkpt>
      <trkpt lat="42.50297" lon="2.40035">
        <ele>1584.87</ele>
        <time>2017-02-04T13:32:04Z</time>
      </trkpt>
      <trkpt lat="42.50274" lon="2.4006">
        <ele>1589.2</ele>
        <time>2017-02-04T13:32:45Z</time>
      </trkpt>
      <trkpt lat="42.50251" lon="2.40111">
        <ele>1594</ele>
        <time>2017-02-04T13:33:40Z</time>
      </trkpt>
      <trkpt lat="42.50231" lon="2.40125">
        <ele>1598.33</ele>
        <time>2017-02-04T13:34:20Z</time>
      </trkpt>
      <trkpt lat="42.50187" lon="2.40152">
        <ele>1603.14</ele>
        <time>2017-02-04T13:35:22Z</time>
      </trkpt>
      <trkpt lat="42.50165" lon="2.40182">
        <ele>1607.94</ele>
        <time>2017-02-04T13:36:01Z</time>
      </trkpt>
      <trkpt lat="42.50149" lon="2.40208">
        <ele>1612.27</ele>
        <time>2017-02-04T13:36:39Z</time>
      </trkpt>
      <trkpt lat="42.50126" lon="2.40226">
        <ele>1615.63</ele>
        <time>2017-02-04T13:37:20Z</time>
      </trkpt>
      <trkpt lat="42.50096" lon="2.40245">
        <ele>1619</ele>
        <time>2017-02-04T13:38:02Z</time>
      </trkpt>
      <trkpt lat="42.50067" lon="2.40265">
        <ele>1623.32</ele>
        <time>2017-02-04T13:38:43Z</time>
      </trkpt>
      <trkpt lat="42.50039" lon="2.40282">
        <ele>1627.17</ele>
        <time>2017-02-04T13:39:24Z</time>
      </trkpt>
      <trkpt lat="42.50012" lon="2.40301">
        <ele>1631.98</ele>
        <time>2017-02-04T13:40:05Z</time>
      </trkpt>
      <trkpt lat="42.49983" lon="2.40298">
        <ele>1636.3</ele>
        <time>2017-02-04T13:40:46Z</time>
      </trkpt>
      <trkpt lat="42.49976" lon="2.40332">
        <ele>1641.59</ele>
        <time>2017-02-04T13:41:24Z</time>
      </trkpt>
      <trkpt lat="42.49952" lon="2.40354">
        <ele>1644.95</ele>
        <time>2017-02-04T13:42:01Z</time>
      </trkpt>
      <trkpt lat="42.49921" lon="2.40369">
        <ele>1649.28</ele>
        <time>2017-02-04T13:42:45Z</time>
      </trkpt>
      <trkpt lat="42.49903" lon="2.40393">
        <ele>1653.6</ele>
        <time>2017-02-04T13:43:19Z</time>
      </trkpt>
      <trkpt lat="42.49885" lon="2.40401">
        <ele>1656.01</ele>
        <time>2017-02-04T13:43:43Z</time>
      </trkpt>
      <trkpt lat="42.49881" lon="2.40421">
        <ele>1659.37</ele>
        <time>2017-02-04T13:44:10Z</time>
      </trkpt>
      <trkpt lat="42.49891" lon="2.40441">
        <ele>1661.78</ele>
        <time>2017-02-04T13:44:41Z</time>
      </trkpt>
      <trkpt lat="42.49926" lon="2.40454">
        <ele>1665.14</ele>
        <time>2017-02-04T13:45:20Z</time>
      </trkpt>
      <trkpt lat="42.4995" lon="2.40477">
        <ele>1668.51</ele>
        <time>2017-02-04T13:46:01Z</time>
      </trkpt>
      <trkpt lat="42.49977" lon="2.40494">
        <ele>1672.35</ele>
        <time>2017-02-04T13:46:42Z</time>
      </trkpt>
      <trkpt lat="42.50001" lon="2.40517">
        <ele>1676.68</ele>
        <time>2017-02-04T13:47:24Z</time>
      </trkpt>
      <trkpt lat="42.50014" lon="2.4054">
        <ele>1680.52</ele>
        <time>2017-02-04T13:48:00Z</time>
      </trkpt>
      <trkpt lat="42.50021" lon="2.40579">
        <ele>1683.89</ele>
        <time>2017-02-04T13:48:37Z</time>
      </trkpt>
      <trkpt lat="42.50019" lon="2.4063">
        <ele>1687.25</ele>
        <time>2017-02-04T13:49:21Z</time>
      </trkpt>
      <trkpt lat="42.50018" lon="2.40667">
        <ele>1692.06</ele>
        <time>2017-02-04T13:49:58Z</time>
      </trkpt>
      <trkpt lat="42.50018" lon="2.40699">
        <ele>1695.42</ele>
        <time>2017-02-04T13:50:34Z</time>
      </trkpt>
      <trkpt lat="42.50025" lon="2.40756">
        <ele>1699.75</ele>
        <time>2017-02-04T13:51:31Z</time>
      </trkpt>
      <trkpt lat="42.50025" lon="2.4079">
        <ele>1703.59</ele>
        <time>2017-02-04T13:52:03Z</time>
      </trkpt>
      <trkpt lat="42.50027" lon="2.40826">
        <ele>1707.44</ele>
        <time>2017-02-04T13:52:35Z</time>
      </trkpt>
      <trkpt lat="42.50024" lon="2.40855">
        <ele>1711.28</ele>
        <time>2017-02-04T13:52:58Z</time>
      </trkpt>
      <trkpt lat="42.50019" lon="2.40884">
        <ele>1713.21</ele>
        <time>2017-02-04T13:55:52Z</time>
      </trkpt>
      <trkpt lat="42.50015" lon="2.40905">
        <ele>1709.84</ele>
        <time>2017-02-04T13:56:14Z</time>
      </trkpt>
      <trkpt lat="42.50015" lon="2.40922">
        <ele>1706.48</ele>
        <time>2017-02-04T13:56:34Z</time>
      </trkpt>
      <trkpt lat="42.50021" lon="2.40945">
        <ele>1705.04</ele>
        <time>2017-02-04T13:56:50Z</time>
      </trkpt>
    </trkseg>
  </trk>
  <trk>
    <name><![CDATA[TPS1 05 FEB 2016]]></name>
    <trkseg>
      <trkpt lat="42.50015" lon="2.40928">
        <ele>1745.89</ele>
        <time>2017-02-05T07:00:56Z</time>
      </trkpt>
      <trkpt lat="42.50014" lon="2.40921">
        <ele>1745.41</ele>
        <time>2017-02-05T07:01:08Z</time>
      </trkpt>
      <trkpt lat="42.50017" lon="2.40893">
        <ele>1750.22</ele>
        <time>2017-02-05T07:01:38Z</time>
      </trkpt>
      <trkpt lat="42.49861" lon="2.40901">
        <ele>1756.47</ele>
        <time>2017-02-05T07:06:57Z</time>
      </trkpt>
      <trkpt lat="42.49771" lon="2.40961">
        <ele>1760.79</ele>
        <time>2017-02-05T07:08:52Z</time>
      </trkpt>
      <trkpt lat="42.49722" lon="2.41016">
        <ele>1764.64</ele>
        <time>2017-02-05T07:10:04Z</time>
      </trkpt>
      <trkpt lat="42.49676" lon="2.41013">
        <ele>1768.48</ele>
        <time>2017-02-05T07:11:00Z</time>
      </trkpt>
      <trkpt lat="42.4963" lon="2.40981">
        <ele>1771.85</ele>
        <time>2017-02-05T07:11:58Z</time>
      </trkpt>
      <trkpt lat="42.49628" lon="2.40979">
        <ele>1771.85</ele>
        <time>2017-02-05T07:12:01Z</time>
      </trkpt>
      <trkpt lat="42.49595" lon="2.40966">
        <ele>1775.69</ele>
        <time>2017-02-05T07:12:39Z</time>
      </trkpt>
      <trkpt lat="42.49591" lon="2.40965">
        <ele>1773.77</ele>
        <time>2017-02-05T07:12:43Z</time>
      </trkpt>
      <trkpt lat="42.49507" lon="2.40998">
        <ele>1780.5</ele>
        <time>2017-02-05T07:14:14Z</time>
      </trkpt>
      <trkpt lat="42.49466" lon="2.41007">
        <ele>1783.86</ele>
        <time>2017-02-05T07:15:07Z</time>
      </trkpt>
      <trkpt lat="42.49407" lon="2.41026">
        <ele>1788.19</ele>
        <time>2017-02-05T07:16:17Z</time>
      </trkpt>
      <trkpt lat="42.49371" lon="2.41043">
        <ele>1792.52</ele>
        <time>2017-02-05T07:17:11Z</time>
      </trkpt>
      <trkpt lat="42.49344" lon="2.4105">
        <ele>1795.88</ele>
        <time>2017-02-05T07:17:48Z</time>
      </trkpt>
      <trkpt lat="42.4934" lon="2.41051">
        <ele>1795.88</ele>
        <time>2017-02-05T07:17:53Z</time>
      </trkpt>
      <trkpt lat="42.49302" lon="2.41036">
        <ele>1799.73</ele>
        <time>2017-02-05T07:18:53Z</time>
      </trkpt>
      <trkpt lat="42.49256" lon="2.4109">
        <ele>1807.42</ele>
        <time>2017-02-05T07:24:07Z</time>
      </trkpt>
      <trkpt lat="42.49222" lon="2.41118">
        <ele>1810.78</ele>
        <time>2017-02-05T07:25:00Z</time>
      </trkpt>
      <trkpt lat="42.49184" lon="2.41142">
        <ele>1815.11</ele>
        <time>2017-02-05T07:25:56Z</time>
      </trkpt>
      <trkpt lat="42.49141" lon="2.41161">
        <ele>1820.39</ele>
        <time>2017-02-05T07:26:54Z</time>
      </trkpt>
      <trkpt lat="42.49112" lon="2.41162">
        <ele>1824.24</ele>
        <time>2017-02-05T07:27:34Z</time>
      </trkpt>
      <trkpt lat="42.49091" lon="2.41171">
        <ele>1828.08</ele>
        <time>2017-02-05T07:28:09Z</time>
      </trkpt>
      <trkpt lat="42.49058" lon="2.41215">
        <ele>1832.41</ele>
        <time>2017-02-05T07:29:05Z</time>
      </trkpt>
      <trkpt lat="42.48979" lon="2.41281">
        <ele>1839.14</ele>
        <time>2017-02-05T07:31:10Z</time>
      </trkpt>
      <trkpt lat="42.48929" lon="2.41319">
        <ele>1842.98</ele>
        <time>2017-02-05T07:32:20Z</time>
      </trkpt>
      <trkpt lat="42.48901" lon="2.41338">
        <ele>1846.35</ele>
        <time>2017-02-05T07:33:01Z</time>
      </trkpt>
      <trkpt lat="42.48875" lon="2.41353">
        <ele>1850.19</ele>
        <time>2017-02-05T07:33:41Z</time>
      </trkpt>
      <trkpt lat="42.48833" lon="2.41353">
        <ele>1855</ele>
        <time>2017-02-05T07:34:43Z</time>
      </trkpt>
      <trkpt lat="42.48796" lon="2.41333">
        <ele>1859.81</ele>
        <time>2017-02-05T07:35:41Z</time>
      </trkpt>
      <trkpt lat="42.48756" lon="2.41314">
        <ele>1863.65</ele>
        <time>2017-02-05T07:36:39Z</time>
      </trkpt>
      <trkpt lat="42.48729" lon="2.41298">
        <ele>1867.02</ele>
        <time>2017-02-05T07:37:19Z</time>
      </trkpt>
      <trkpt lat="42.48688" lon="2.41276">
        <ele>1871.34</ele>
        <time>2017-02-05T07:38:21Z</time>
      </trkpt>
      <trkpt lat="42.48659" lon="2.41267">
        <ele>1874.71</ele>
        <time>2017-02-05T07:39:00Z</time>
      </trkpt>
      <trkpt lat="42.48638" lon="2.41239">
        <ele>1878.07</ele>
        <time>2017-02-05T07:39:41Z</time>
      </trkpt>
      <trkpt lat="42.48612" lon="2.41235">
        <ele>1881.44</ele>
        <time>2017-02-05T07:40:26Z</time>
      </trkpt>
      <trkpt lat="42.48606" lon="2.41218">
        <ele>1885.28</ele>
        <time>2017-02-05T07:41:09Z</time>
      </trkpt>
      <trkpt lat="42.48592" lon="2.41199">
        <ele>1890.57</ele>
        <time>2017-02-05T07:41:46Z</time>
      </trkpt>
      <trkpt lat="42.48578" lon="2.41182">
        <ele>1893.93</ele>
        <time>2017-02-05T07:42:25Z</time>
      </trkpt>
      <trkpt lat="42.48569" lon="2.41161">
        <ele>1898.26</ele>
        <time>2017-02-05T07:43:01Z</time>
      </trkpt>
      <trkpt lat="42.48554" lon="2.41159">
        <ele>1903.07</ele>
        <time>2017-02-05T07:43:35Z</time>
      </trkpt>
      <trkpt lat="42.48543" lon="2.41186">
        <ele>1908.83</ele>
        <time>2017-02-05T07:44:24Z</time>
      </trkpt>
      <trkpt lat="42.48523" lon="2.41193">
        <ele>1914.12</ele>
        <time>2017-02-05T07:45:11Z</time>
      </trkpt>
      <trkpt lat="42.48502" lon="2.41191">
        <ele>1920.37</ele>
        <time>2017-02-05T07:45:59Z</time>
      </trkpt>
      <trkpt lat="42.48495" lon="2.41163">
        <ele>1925.18</ele>
        <time>2017-02-05T07:46:45Z</time>
      </trkpt>
      <trkpt lat="42.48497" lon="2.41139">
        <ele>1930.95</ele>
        <time>2017-02-05T07:47:31Z</time>
      </trkpt>
      <trkpt lat="42.48495" lon="2.41114">
        <ele>1935.75</ele>
        <time>2017-02-05T07:48:12Z</time>
      </trkpt>
      <trkpt lat="42.4849" lon="2.41089">
        <ele>1941.04</ele>
        <time>2017-02-05T07:48:57Z</time>
      </trkpt>
      <trkpt lat="42.48478" lon="2.41084">
        <ele>1945.85</ele>
        <time>2017-02-05T07:49:34Z</time>
      </trkpt>
      <trkpt lat="42.48475" lon="2.41064">
        <ele>1950.17</ele>
        <time>2017-02-05T07:50:09Z</time>
      </trkpt>
      <trkpt lat="42.48464" lon="2.41065">
        <ele>1955.46</ele>
        <time>2017-02-05T07:50:51Z</time>
      </trkpt>
      <trkpt lat="42.48459" lon="2.41051">
        <ele>1960.27</ele>
        <time>2017-02-05T07:51:35Z</time>
      </trkpt>
      <trkpt lat="42.48462" lon="2.41026">
        <ele>1965.55</ele>
        <time>2017-02-05T07:52:22Z</time>
      </trkpt>
      <trkpt lat="42.4845" lon="2.41032">
        <ele>1969.4</ele>
        <time>2017-02-05T07:52:59Z</time>
      </trkpt>
      <trkpt lat="42.48445" lon="2.41026">
        <ele>1972.76</ele>
        <time>2017-02-05T07:53:39Z</time>
      </trkpt>
      <trkpt lat="42.48446" lon="2.41002">
        <ele>1977.57</ele>
        <time>2017-02-05T07:54:39Z</time>
      </trkpt>
      <trkpt lat="42.48446" lon="2.40983">
        <ele>1981.9</ele>
        <time>2017-02-05T07:55:22Z</time>
      </trkpt>
      <trkpt lat="42.48445" lon="2.40967">
        <ele>1985.74</ele>
        <time>2017-02-05T07:56:01Z</time>
      </trkpt>
      <trkpt lat="42.48445" lon="2.40949">
        <ele>1989.59</ele>
        <time>2017-02-05T07:56:44Z</time>
      </trkpt>
      <trkpt lat="42.48446" lon="2.40933">
        <ele>1992.95</ele>
        <time>2017-02-05T07:57:24Z</time>
      </trkpt>
      <trkpt lat="42.48439" lon="2.40927">
        <ele>1996.8</ele>
        <time>2017-02-05T07:58:03Z</time>
      </trkpt>
      <trkpt lat="42.48431" lon="2.40916">
        <ele>2004.01</ele>
        <time>2017-02-05T07:59:25Z</time>
      </trkpt>
      <trkpt lat="42.48429" lon="2.40898">
        <ele>2008.81</ele>
        <time>2017-02-05T08:00:06Z</time>
      </trkpt>
      <trkpt lat="42.48427" lon="2.40879">
        <ele>2012.66</ele>
        <time>2017-02-05T08:00:45Z</time>
      </trkpt>
      <trkpt lat="42.48421" lon="2.40858">
        <ele>2016.5</ele>
        <time>2017-02-05T08:01:27Z</time>
      </trkpt>
      <trkpt lat="42.48412" lon="2.4084">
        <ele>2019.87</ele>
        <time>2017-02-05T08:02:06Z</time>
      </trkpt>
      <trkpt lat="42.4841" lon="2.40818">
        <ele>2023.23</ele>
        <time>2017-02-05T08:02:44Z</time>
      </trkpt>
      <trkpt lat="42.48411" lon="2.40796">
        <ele>2027.56</ele>
        <time>2017-02-05T08:03:25Z</time>
      </trkpt>
      <trkpt lat="42.48405" lon="2.40774">
        <ele>2031.4</ele>
        <time>2017-02-05T08:04:08Z</time>
      </trkpt>
      <trkpt lat="42.48405" lon="2.40741">
        <ele>2036.69</ele>
        <time>2017-02-05T08:05:08Z</time>
      </trkpt>
      <trkpt lat="42.4841" lon="2.4072">
        <ele>2040.54</ele>
        <time>2017-02-05T08:05:52Z</time>
      </trkpt>
      <trkpt lat="42.48419" lon="2.40704">
        <ele>2045.82</ele>
        <time>2017-02-05T08:06:37Z</time>
      </trkpt>
      <trkpt lat="42.48433" lon="2.40686">
        <ele>2050.63</ele>
        <time>2017-02-05T08:07:36Z</time>
      </trkpt>
      <trkpt lat="42.48441" lon="2.40677">
        <ele>2054.96</ele>
        <time>2017-02-05T08:08:15Z</time>
      </trkpt>
      <trkpt lat="42.48436" lon="2.40668">
        <ele>2059.76</ele>
        <time>2017-02-05T08:09:27Z</time>
      </trkpt>
      <trkpt lat="42.48417" lon="2.40657">
        <ele>2066.01</ele>
        <time>2017-02-05T08:10:07Z</time>
      </trkpt>
      <trkpt lat="42.4838" lon="2.40646">
        <ele>2081.87</ele>
        <time>2017-02-05T08:12:51Z</time>
      </trkpt>
      <trkpt lat="42.48353" lon="2.40658">
        <ele>2085.24</ele>
        <time>2017-02-05T08:20:29Z</time>
      </trkpt>
      <trkpt lat="42.48342" lon="2.40683">
        <ele>2091</ele>
        <time>2017-02-05T08:21:50Z</time>
      </trkpt>
      <trkpt lat="42.48342" lon="2.40683">
        <ele>2091</ele>
        <time>2017-02-05T08:21:51Z</time>
      </trkpt>
      <trkpt lat="42.48326" lon="2.4072">
        <ele>2097.25</ele>
        <time>2017-02-05T08:22:55Z</time>
      </trkpt>
      <trkpt lat="42.48326" lon="2.4072">
        <ele>2096.29</ele>
        <time>2017-02-05T08:22:56Z</time>
      </trkpt>
      <trkpt lat="42.48299" lon="2.40768">
        <ele>2100.62</ele>
        <time>2017-02-05T08:23:43Z</time>
      </trkpt>
      <trkpt lat="42.48285" lon="2.40828">
        <ele>2104.46</ele>
        <time>2017-02-05T08:24:50Z</time>
      </trkpt>
      <trkpt lat="42.4826" lon="2.40876">
        <ele>2110.23</ele>
        <time>2017-02-05T08:25:49Z</time>
      </trkpt>
      <trkpt lat="42.48258" lon="2.40879">
        <ele>2108.79</ele>
        <time>2017-02-05T08:25:53Z</time>
      </trkpt>
      <trkpt lat="42.48237" lon="2.40906">
        <ele>2112.15</ele>
        <time>2017-02-05T08:26:31Z</time>
      </trkpt>
      <trkpt lat="42.48198" lon="2.40936">
        <ele>2116.96</ele>
        <time>2017-02-05T08:27:31Z</time>
      </trkpt>
      <trkpt lat="42.48175" lon="2.40949">
        <ele>2120.32</ele>
        <time>2017-02-05T08:28:10Z</time>
      </trkpt>
      <trkpt lat="42.48148" lon="2.40976">
        <ele>2124.17</ele>
        <time>2017-02-05T08:28:51Z</time>
      </trkpt>
      <trkpt lat="42.4814" lon="2.40992">
        <ele>2127.53</ele>
        <time>2017-02-05T08:29:08Z</time>
      </trkpt>
      <trkpt lat="42.4813" lon="2.41008">
        <ele>2127.53</ele>
        <time>2017-02-05T08:29:25Z</time>
      </trkpt>
      <trkpt lat="42.48106" lon="2.41041">
        <ele>2131.38</ele>
        <time>2017-02-05T08:30:11Z</time>
      </trkpt>
      <trkpt lat="42.48075" lon="2.41079">
        <ele>2135.23</ele>
        <time>2017-02-05T08:31:07Z</time>
      </trkpt>
      <trkpt lat="42.48054" lon="2.41109">
        <ele>2138.59</ele>
        <time>2017-02-05T08:31:49Z</time>
      </trkpt>
      <trkpt lat="42.48018" lon="2.41147">
        <ele>2141.95</ele>
        <time>2017-02-05T08:32:51Z</time>
      </trkpt>
      <trkpt lat="42.47989" lon="2.41181">
        <ele>2145.32</ele>
        <time>2017-02-05T08:33:35Z</time>
      </trkpt>
      <trkpt lat="42.47987" lon="2.41184">
        <ele>2145.32</ele>
        <time>2017-02-05T08:33:39Z</time>
      </trkpt>
      <trkpt lat="42.47963" lon="2.41203">
        <ele>2148.68</ele>
        <time>2017-02-05T08:34:17Z</time>
      </trkpt>
      <trkpt lat="42.4794" lon="2.41225">
        <ele>2152.53</ele>
        <time>2017-02-05T08:35:03Z</time>
      </trkpt>
      <trkpt lat="42.47913" lon="2.41242">
        <ele>2158.78</ele>
        <time>2017-02-05T08:36:55Z</time>
      </trkpt>
      <trkpt lat="42.47907" lon="2.41246">
        <ele>2162.14</ele>
        <time>2017-02-05T08:37:12Z</time>
      </trkpt>
      <trkpt lat="42.47873" lon="2.41219">
        <ele>2184.25</ele>
        <time>2017-02-05T08:40:00Z</time>
      </trkpt>
      <trkpt lat="42.47848" lon="2.41205">
        <ele>2200.59</ele>
        <time>2017-02-05T08:42:24Z</time>
      </trkpt>
      <trkpt lat="42.47812" lon="2.41235">
        <ele>2204.44</ele>
        <time>2017-02-05T08:43:27Z</time>
      </trkpt>
      <trkpt lat="42.47798" lon="2.41249">
        <ele>2209.25</ele>
        <time>2017-02-05T08:44:04Z</time>
      </trkpt>
      <trkpt lat="42.47649" lon="2.413">
        <ele>2260.2</ele>
        <time>2017-02-05T08:50:42Z</time>
      </trkpt>
      <trkpt lat="42.47623" lon="2.41305">
        <ele>2261.64</ele>
        <time>2017-02-05T09:23:04Z</time>
      </trkpt>
      <trkpt lat="42.47588" lon="2.41297">
        <ele>2265</ele>
        <time>2017-02-05T09:24:53Z</time>
      </trkpt>
      <trkpt lat="42.47393" lon="2.41301">
        <ele>2269.33</ele>
        <time>2017-02-05T09:28:54Z</time>
      </trkpt>
      <trkpt lat="42.47355" lon="2.41296">
        <ele>2273.17</ele>
        <time>2017-02-05T09:29:46Z</time>
      </trkpt>
      <trkpt lat="42.47329" lon="2.41292">
        <ele>2277.5</ele>
        <time>2017-02-05T09:30:24Z</time>
      </trkpt>
      <trkpt lat="42.47316" lon="2.4129">
        <ele>2280.87</ele>
        <time>2017-02-05T09:30:43Z</time>
      </trkpt>
      <trkpt lat="42.47291" lon="2.41288">
        <ele>2285.19</ele>
        <time>2017-02-05T09:31:21Z</time>
      </trkpt>
      <trkpt lat="42.47275" lon="2.41286">
        <ele>2289.52</ele>
        <time>2017-02-05T09:31:48Z</time>
      </trkpt>
      <trkpt lat="42.47263" lon="2.41284">
        <ele>2293.84</ele>
        <time>2017-02-05T09:32:13Z</time>
      </trkpt>
      <trkpt lat="42.47244" lon="2.41282">
        <ele>2297.69</ele>
        <time>2017-02-05T09:33:20Z</time>
      </trkpt>
      <trkpt lat="42.47244" lon="2.41282">
        <ele>2297.69</ele>
        <time>2017-02-05T09:33:21Z</time>
      </trkpt>
      <trkpt lat="42.47219" lon="2.41276">
        <ele>2301.53</ele>
        <time>2017-02-05T09:37:21Z</time>
      </trkpt>
      <trkpt lat="42.47185" lon="2.41275">
        <ele>2305.38</ele>
        <time>2017-02-05T09:37:59Z</time>
      </trkpt>
      <trkpt lat="42.47123" lon="2.41295">
        <ele>2308.74</ele>
        <time>2017-02-05T09:39:22Z</time>
      </trkpt>
      <trkpt lat="42.47123" lon="2.41294">
        <ele>2305.38</ele>
        <time>2017-02-05T09:39:40Z</time>
      </trkpt>
      <trkpt lat="42.47066" lon="2.4131">
        <ele>2301.05</ele>
        <time>2017-02-05T09:40:40Z</time>
      </trkpt>
      <trkpt lat="42.47063" lon="2.41309">
        <ele>2301.05</ele>
        <time>2017-02-05T09:40:44Z</time>
      </trkpt>
      <trkpt lat="42.46909" lon="2.41253">
        <ele>2290</ele>
        <time>2017-02-05T09:43:17Z</time>
      </trkpt>
      <trkpt lat="42.46866" lon="2.4125">
        <ele>2284.71</ele>
        <time>2017-02-05T09:44:00Z</time>
      </trkpt>
      <trkpt lat="42.46865" lon="2.41249">
        <ele>2285.67</ele>
        <time>2017-02-05T09:44:06Z</time>
      </trkpt>
      <trkpt lat="42.46862" lon="2.41249">
        <ele>2284.71</ele>
        <time>2017-02-05T09:44:33Z</time>
      </trkpt>
      <trkpt lat="42.46774" lon="2.41292">
        <ele>2277.98</ele>
        <time>2017-02-05T09:45:52Z</time>
      </trkpt>
      <trkpt lat="42.46647" lon="2.41143">
        <ele>2268.85</ele>
        <time>2017-02-05T09:48:46Z</time>
      </trkpt>
      <trkpt lat="42.46647" lon="2.41144">
        <ele>2268.85</ele>
        <time>2017-02-05T09:48:47Z</time>
      </trkpt>
      <trkpt lat="42.46567" lon="2.41023">
        <ele>2267.41</ele>
        <time>2017-02-05T09:52:02Z</time>
      </trkpt>
      <trkpt lat="42.46371" lon="2.40748">
        <ele>2263.56</ele>
        <time>2017-02-05T09:58:36Z</time>
      </trkpt>
      <trkpt lat="42.46364" lon="2.40741">
        <ele>2266.93</ele>
        <time>2017-02-05T09:58:44Z</time>
      </trkpt>
      <trkpt lat="42.46342" lon="2.40719">
        <ele>2261.64</ele>
        <time>2017-02-05T09:59:10Z</time>
      </trkpt>
      <trkpt lat="42.46335" lon="2.40683">
        <ele>2242.89</ele>
        <time>2017-02-05T10:01:04Z</time>
      </trkpt>
      <trkpt lat="42.46303" lon="2.40401">
        <ele>2253.47</ele>
        <time>2017-02-05T10:05:46Z</time>
      </trkpt>
      <trkpt lat="42.46246" lon="2.40337">
        <ele>2257.79</ele>
        <time>2017-02-05T10:07:13Z</time>
      </trkpt>
      <trkpt lat="42.46174" lon="2.40243">
        <ele>2262.12</ele>
        <time>2017-02-05T10:09:47Z</time>
      </trkpt>
      <trkpt lat="42.46151" lon="2.40227">
        <ele>2262.6</ele>
        <time>2017-02-05T10:10:18Z</time>
      </trkpt>
      <trkpt lat="42.46101" lon="2.40211">
        <ele>2265.96</ele>
        <time>2017-02-05T10:11:13Z</time>
      </trkpt>
      <trkpt lat="42.46101" lon="2.40211">
        <ele>2265.96</ele>
        <time>2017-02-05T10:11:14Z</time>
      </trkpt>
      <trkpt lat="42.46053" lon="2.4019">
        <ele>2274.14</ele>
        <time>2017-02-05T10:12:26Z</time>
      </trkpt>
      <trkpt lat="42.46041" lon="2.40125">
        <ele>2268.85</ele>
        <time>2017-02-05T10:14:05Z</time>
      </trkpt>
      <trkpt lat="42.45941" lon="2.40008">
        <ele>2274.14</ele>
        <time>2017-02-05T10:16:45Z</time>
      </trkpt>
      <trkpt lat="42.45919" lon="2.39973">
        <ele>2273.66</ele>
        <time>2017-02-05T10:17:28Z</time>
      </trkpt>
      <trkpt lat="42.45877" lon="2.39839">
        <ele>2278.46</ele>
        <time>2017-02-05T10:19:57Z</time>
      </trkpt>
      <trkpt lat="42.45877" lon="2.39837">
        <ele>2277.02</ele>
        <time>2017-02-05T10:19:59Z</time>
      </trkpt>
      <trkpt lat="42.45864" lon="2.39803">
        <ele>2278.46</ele>
        <time>2017-02-05T10:22:31Z</time>
      </trkpt>
      <trkpt lat="42.4578" lon="2.397">
        <ele>2282.31</ele>
        <time>2017-02-05T10:25:39Z</time>
      </trkpt>
      <trkpt lat="42.45756" lon="2.39666">
        <ele>2285.67</ele>
        <time>2017-02-05T10:26:18Z</time>
      </trkpt>
      <trkpt lat="42.45713" lon="2.39612">
        <ele>2290.48</ele>
        <time>2017-02-05T10:30:49Z</time>
      </trkpt>
      <trkpt lat="42.45712" lon="2.3961">
        <ele>2289.04</ele>
        <time>2017-02-05T10:30:51Z</time>
      </trkpt>
      <trkpt lat="42.45694" lon="2.39573">
        <ele>2292.88</ele>
        <time>2017-02-05T10:31:53Z</time>
      </trkpt>
      <trkpt lat="42.45681" lon="2.39516">
        <ele>2293.36</ele>
        <time>2017-02-05T10:35:19Z</time>
      </trkpt>
      <trkpt lat="42.45686" lon="2.39442">
        <ele>2288.56</ele>
        <time>2017-02-05T10:36:35Z</time>
      </trkpt>
      <trkpt lat="42.45741" lon="2.39415">
        <ele>2271.73</ele>
        <time>2017-02-05T10:37:48Z</time>
      </trkpt>
      <trkpt lat="42.45741" lon="2.39415">
        <ele>2276.54</ele>
        <time>2017-02-05T10:37:49Z</time>
      </trkpt>
      <trkpt lat="42.4581" lon="2.39279">
        <ele>2280.87</ele>
        <time>2017-02-05T10:42:56Z</time>
      </trkpt>
      <trkpt lat="42.45886" lon="2.39175">
        <ele>2287.11</ele>
        <time>2017-02-05T10:46:36Z</time>
      </trkpt>
      <trkpt lat="42.45835" lon="2.39182">
        <ele>2297.69</ele>
        <time>2017-02-05T10:50:03Z</time>
      </trkpt>
      <trkpt lat="42.45782" lon="2.39223">
        <ele>2290.96</ele>
        <time>2017-02-05T10:51:28Z</time>
      </trkpt>
      <trkpt lat="42.45712" lon="2.39357">
        <ele>2277.02</ele>
        <time>2017-02-05T10:56:27Z</time>
      </trkpt>
      <trkpt lat="42.45698" lon="2.39379">
        <ele>2280.87</ele>
        <time>2017-02-05T10:56:56Z</time>
      </trkpt>
      <trkpt lat="42.45671" lon="2.39403">
        <ele>2284.71</ele>
        <time>2017-02-05T10:57:40Z</time>
      </trkpt>
      <trkpt lat="42.45644" lon="2.39419">
        <ele>2290.96</ele>
        <time>2017-02-05T10:59:21Z</time>
      </trkpt>
      <trkpt lat="42.45595" lon="2.39396">
        <ele>2285.67</ele>
        <time>2017-02-05T11:00:59Z</time>
      </trkpt>
      <trkpt lat="42.45491" lon="2.3927">
        <ele>2284.71</ele>
        <time>2017-02-05T11:03:20Z</time>
      </trkpt>
      <trkpt lat="42.45339" lon="2.39063">
        <ele>2268.37</ele>
        <time>2017-02-05T11:12:10Z</time>
      </trkpt>
      <trkpt lat="42.45339" lon="2.39063">
        <ele>2268.37</ele>
        <time>2017-02-05T11:12:12Z</time>
      </trkpt>
      <trkpt lat="42.45325" lon="2.38969">
        <ele>2242.41</ele>
        <time>2017-02-05T11:14:22Z</time>
      </trkpt>
      <trkpt lat="42.45216" lon="2.38782">
        <ele>2204.44</ele>
        <time>2017-02-05T11:21:56Z</time>
      </trkpt>
      <trkpt lat="42.45168" lon="2.38703">
        <ele>2202.04</ele>
        <time>2017-02-05T11:24:02Z</time>
      </trkpt>
      <trkpt lat="42.45168" lon="2.38703">
        <ele>2198.19</ele>
        <time>2017-02-05T11:24:03Z</time>
      </trkpt>
      <trkpt lat="42.45058" lon="2.38494">
        <ele>2180.41</ele>
        <time>2017-02-05T11:27:43Z</time>
      </trkpt>
      <trkpt lat="42.45057" lon="2.38494">
        <ele>2184.25</ele>
        <time>2017-02-05T11:27:44Z</time>
      </trkpt>
      <trkpt lat="42.45045" lon="2.38363">
        <ele>2173.68</ele>
        <time>2017-02-05T11:29:39Z</time>
      </trkpt>
      <trkpt lat="42.45035" lon="2.38074">
        <ele>2154.93</ele>
        <time>2017-02-05T11:32:56Z</time>
      </trkpt>
      <trkpt lat="42.45036" lon="2.38072">
        <ele>2154.93</ele>
        <time>2017-02-05T11:32:57Z</time>
      </trkpt>
      <trkpt lat="42.45082" lon="2.38017">
        <ele>2135.71</ele>
        <time>2017-02-05T11:33:42Z</time>
      </trkpt>
      <trkpt lat="42.45162" lon="2.37907">
        <ele>2109.75</ele>
        <time>2017-02-05T11:34:57Z</time>
      </trkpt>
      <trkpt lat="42.45201" lon="2.3785">
        <ele>2099.66</ele>
        <time>2017-02-05T11:35:39Z</time>
      </trkpt>
      <trkpt lat="42.45253" lon="2.37749">
        <ele>2093.41</ele>
        <time>2017-02-05T11:37:34Z</time>
      </trkpt>
      <trkpt lat="42.45293" lon="2.37668">
        <ele>2087.64</ele>
        <time>2017-02-05T11:38:43Z</time>
      </trkpt>
      <trkpt lat="42.45307" lon="2.37633">
        <ele>2084.28</ele>
        <time>2017-02-05T11:39:19Z</time>
      </trkpt>
      <trkpt lat="42.45312" lon="2.37576">
        <ele>2082.83</ele>
        <time>2017-02-05T11:40:07Z</time>
      </trkpt>
      <trkpt lat="42.45298" lon="2.37393">
        <ele>2067.93</ele>
        <time>2017-02-05T11:49:46Z</time>
      </trkpt>
      <trkpt lat="42.45289" lon="2.37338">
        <ele>2060.24</ele>
        <time>2017-02-05T11:50:19Z</time>
      </trkpt>
      <trkpt lat="42.45289" lon="2.37335">
        <ele>2063.61</ele>
        <time>2017-02-05T11:50:21Z</time>
      </trkpt>
      <trkpt lat="42.45282" lon="2.3731">
        <ele>2059.76</ele>
        <time>2017-02-05T11:50:41Z</time>
      </trkpt>
      <trkpt lat="42.45268" lon="2.37244">
        <ele>2055.44</ele>
        <time>2017-02-05T11:51:35Z</time>
      </trkpt>
      <trkpt lat="42.45264" lon="2.37135">
        <ele>2051.59</ele>
        <time>2017-02-05T11:52:52Z</time>
      </trkpt>
      <trkpt lat="42.45245" lon="2.37094">
        <ele>2045.82</ele>
        <time>2017-02-05T11:53:22Z</time>
      </trkpt>
      <trkpt lat="42.45164" lon="2.37054">
        <ele>2039.09</ele>
        <time>2017-02-05T11:54:57Z</time>
      </trkpt>
      <trkpt lat="42.45105" lon="2.36997">
        <ele>2033.81</ele>
        <time>2017-02-05T11:56:00Z</time>
      </trkpt>
      <trkpt lat="42.45072" lon="2.36992">
        <ele>2031.4</ele>
        <time>2017-02-05T11:56:28Z</time>
      </trkpt>
      <trkpt lat="42.44977" lon="2.37015">
        <ele>2026.6</ele>
        <time>2017-02-05T11:57:58Z</time>
      </trkpt>
      <trkpt lat="42.449" lon="2.36964">
        <ele>2020.35</ele>
        <time>2017-02-05T11:59:36Z</time>
      </trkpt>
      <trkpt lat="42.44887" lon="2.36946">
        <ele>2020.35</ele>
        <time>2017-02-05T11:59:56Z</time>
      </trkpt>
      <trkpt lat="42.44839" lon="2.36865">
        <ele>2013.62</ele>
        <time>2017-02-05T12:01:17Z</time>
      </trkpt>
      <trkpt lat="42.44837" lon="2.3686">
        <ele>2014.58</ele>
        <time>2017-02-05T12:01:21Z</time>
      </trkpt>
      <trkpt lat="42.44774" lon="2.36767">
        <ele>2010.73</ele>
        <time>2017-02-05T12:03:00Z</time>
      </trkpt>
      <trkpt lat="42.44775" lon="2.36749">
        <ele>2016.02</ele>
        <time>2017-02-05T12:13:11Z</time>
      </trkpt>
      <trkpt lat="42.44784" lon="2.36722">
        <ele>2007.85</ele>
        <time>2017-02-05T12:14:51Z</time>
      </trkpt>
      <trkpt lat="42.44787" lon="2.36711">
        <ele>2004.49</ele>
        <time>2017-02-05T12:14:54Z</time>
      </trkpt>
      <trkpt lat="42.44794" lon="2.36699">
        <ele>2000.64</ele>
        <time>2017-02-05T12:15:12Z</time>
      </trkpt>
      <trkpt lat="42.44803" lon="2.36676">
        <ele>1992.47</ele>
        <time>2017-02-05T12:15:29Z</time>
      </trkpt>
      <trkpt lat="42.44815" lon="2.36669">
        <ele>1988.62</ele>
        <time>2017-02-05T12:15:35Z</time>
      </trkpt>
      <trkpt lat="42.4483" lon="2.3666">
        <ele>1979.01</ele>
        <time>2017-02-05T12:15:51Z</time>
      </trkpt>
      <trkpt lat="42.44845" lon="2.36676">
        <ele>1981.9</ele>
        <time>2017-02-05T12:16:34Z</time>
      </trkpt>
      <trkpt lat="42.44856" lon="2.3669">
        <ele>1978.05</ele>
        <time>2017-02-05T12:16:40Z</time>
      </trkpt>
      <trkpt lat="42.44866" lon="2.3671">
        <ele>1973.24</ele>
        <time>2017-02-05T12:16:52Z</time>
      </trkpt>
      <trkpt lat="42.4488" lon="2.36722">
        <ele>1967.48</ele>
        <time>2017-02-05T12:17:41Z</time>
      </trkpt>
      <trkpt lat="42.44891" lon="2.36727">
        <ele>1964.59</ele>
        <time>2017-02-05T12:17:56Z</time>
      </trkpt>
      <trkpt lat="42.44897" lon="2.3673">
        <ele>1959.3</ele>
        <time>2017-02-05T12:18:11Z</time>
      </trkpt>
      <trkpt lat="42.44903" lon="2.36722">
        <ele>1953.06</ele>
        <time>2017-02-05T12:18:25Z</time>
      </trkpt>
      <trkpt lat="42.44911" lon="2.36722">
        <ele>1944.88</ele>
        <time>2017-02-05T12:18:51Z</time>
      </trkpt>
      <trkpt lat="42.44919" lon="2.36724">
        <ele>1941.52</ele>
        <time>2017-02-05T12:19:53Z</time>
      </trkpt>
      <trkpt lat="42.44932" lon="2.36716">
        <ele>1928.06</ele>
        <time>2017-02-05T12:20:28Z</time>
      </trkpt>
      <trkpt lat="42.44936" lon="2.36714">
        <ele>1921.33</ele>
        <time>2017-02-05T12:20:41Z</time>
      </trkpt>
      <trkpt lat="42.44941" lon="2.36714">
        <ele>1915.56</ele>
        <time>2017-02-05T12:20:47Z</time>
      </trkpt>
      <trkpt lat="42.44987" lon="2.367">
        <ele>1911.24</ele>
        <time>2017-02-05T12:21:33Z</time>
      </trkpt>
      <trkpt lat="42.44974" lon="2.36688">
        <ele>1907.39</ele>
        <time>2017-02-05T12:21:46Z</time>
      </trkpt>
      <trkpt lat="42.44964" lon="2.36657">
        <ele>1910.76</ele>
        <time>2017-02-05T12:28:10Z</time>
      </trkpt>
      <trkpt lat="42.44962" lon="2.36622">
        <ele>1910.28</ele>
        <time>2017-02-05T12:30:32Z</time>
      </trkpt>
      <trkpt lat="42.44955" lon="2.36568">
        <ele>1906.91</ele>
        <time>2017-02-05T12:31:08Z</time>
      </trkpt>
      <trkpt lat="42.44947" lon="2.36529">
        <ele>1906.91</ele>
        <time>2017-02-05T12:31:33Z</time>
      </trkpt>
      <trkpt lat="42.44939" lon="2.36497">
        <ele>1903.07</ele>
        <time>2017-02-05T12:31:57Z</time>
      </trkpt>
      <trkpt lat="42.44923" lon="2.36429">
        <ele>1899.7</ele>
        <time>2017-02-05T12:32:44Z</time>
      </trkpt>
      <trkpt lat="42.44917" lon="2.36396">
        <ele>1899.7</ele>
        <time>2017-02-05T12:33:07Z</time>
      </trkpt>
      <trkpt lat="42.44907" lon="2.36376">
        <ele>1899.7</ele>
        <time>2017-02-05T12:33:23Z</time>
      </trkpt>
      <trkpt lat="42.44886" lon="2.36358">
        <ele>1894.9</ele>
        <time>2017-02-05T12:33:44Z</time>
      </trkpt>
      <trkpt lat="42.44824" lon="2.36306">
        <ele>1889.61</ele>
        <time>2017-02-05T12:34:44Z</time>
      </trkpt>
      <trkpt lat="42.44813" lon="2.36293">
        <ele>1888.65</ele>
        <time>2017-02-05T12:34:53Z</time>
      </trkpt>
      <trkpt lat="42.44775" lon="2.3629">
        <ele>1885.28</ele>
        <time>2017-02-05T12:35:22Z</time>
      </trkpt>
      <trkpt lat="42.44748" lon="2.36265">
        <ele>1886.24</ele>
        <time>2017-02-05T12:36:48Z</time>
      </trkpt>
      <trkpt lat="42.44777" lon="2.36124">
        <ele>1884.32</ele>
        <time>2017-02-05T12:38:51Z</time>
      </trkpt>
      <trkpt lat="42.447" lon="2.35845">
        <ele>1890.57</ele>
        <time>2017-02-05T12:44:12Z</time>
      </trkpt>
      <trkpt lat="42.44659" lon="2.35812">
        <ele>1894.9</ele>
        <time>2017-02-05T12:45:12Z</time>
      </trkpt>
      <trkpt lat="42.44641" lon="2.35752">
        <ele>1898.26</ele>
        <time>2017-02-05T12:46:09Z</time>
      </trkpt>
      <trkpt lat="42.4464" lon="2.35747">
        <ele>1898.26</ele>
        <time>2017-02-05T12:46:14Z</time>
      </trkpt>
      <trkpt lat="42.44558" lon="2.35723">
        <ele>1899.22</ele>
        <time>2017-02-05T12:48:39Z</time>
      </trkpt>
    </trkseg>
  </trk>
  <trk>
    <name><![CDATA[TPS1 06 FEB 2016]]></name>
    <trkseg>
      <trkpt lat="42.44567" lon="2.35719">
        <ele>1906.43</ele>
        <time>2017-02-06T08:11:00Z</time>
      </trkpt>
      <trkpt lat="42.4456" lon="2.35675">
        <ele>1906.91</ele>
        <time>2017-02-06T08:18:09Z</time>
      </trkpt>
      <trkpt lat="42.44595" lon="2.35614">
        <ele>1901.63</ele>
        <time>2017-02-06T08:18:59Z</time>
      </trkpt>
      <trkpt lat="42.44598" lon="2.35541">
        <ele>1906.43</ele>
        <time>2017-02-06T08:28:01Z</time>
      </trkpt>
      <trkpt lat="42.44575" lon="2.35482">
        <ele>1918.45</ele>
        <time>2017-02-06T08:30:02Z</time>
      </trkpt>
      <trkpt lat="42.44438" lon="2.35238">
        <ele>1954.98</ele>
        <time>2017-02-06T08:38:57Z</time>
      </trkpt>
      <trkpt lat="42.44395" lon="2.3514">
        <ele>1943.92</ele>
        <time>2017-02-06T08:41:01Z</time>
      </trkpt>
      <trkpt lat="42.44358" lon="2.35058">
        <ele>1955.46</ele>
        <time>2017-02-06T08:43:01Z</time>
      </trkpt>
      <trkpt lat="42.44282" lon="2.34871">
        <ele>2000.64</ele>
        <time>2017-02-06T08:49:05Z</time>
      </trkpt>
      <trkpt lat="42.44206" lon="2.34702">
        <ele>2016.5</ele>
        <time>2017-02-06T08:52:53Z</time>
      </trkpt>
      <trkpt lat="42.44143" lon="2.34608">
        <ele>2022.27</ele>
        <time>2017-02-06T08:55:12Z</time>
      </trkpt>
      <trkpt lat="42.44143" lon="2.34608">
        <ele>2022.27</ele>
        <time>2017-02-06T08:55:13Z</time>
      </trkpt>
      <trkpt lat="42.44107" lon="2.3457">
        <ele>2033.33</ele>
        <time>2017-02-06T08:57:47Z</time>
      </trkpt>
      <trkpt lat="42.44052" lon="2.34568">
        <ele>2048.71</ele>
        <time>2017-02-06T08:59:36Z</time>
      </trkpt>
      <trkpt lat="42.44014" lon="2.34421">
        <ele>2055.44</ele>
        <time>2017-02-06T09:02:55Z</time>
      </trkpt>
      <trkpt lat="42.43997" lon="2.34166">
        <ele>2055.44</ele>
        <time>2017-02-06T09:07:27Z</time>
      </trkpt>
      <trkpt lat="42.4397" lon="2.33939">
        <ele>2078.99</ele>
        <time>2017-02-06T09:17:54Z</time>
      </trkpt>
      <trkpt lat="42.43937" lon="2.33693">
        <ele>2120.81</ele>
        <time>2017-02-06T09:24:38Z</time>
      </trkpt>
      <trkpt lat="42.43921" lon="2.33456">
        <ele>2190.02</ele>
        <time>2017-02-06T09:35:57Z</time>
      </trkpt>
      <trkpt lat="42.43909" lon="2.33346">
        <ele>2210.21</ele>
        <time>2017-02-06T09:38:43Z</time>
      </trkpt>
      <trkpt lat="42.43888" lon="2.33313">
        <ele>2224.63</ele>
        <time>2017-02-06T09:39:47Z</time>
      </trkpt>
      <trkpt lat="42.43821" lon="2.33273">
        <ele>2245.78</ele>
        <time>2017-02-06T09:44:14Z</time>
      </trkpt>
      <trkpt lat="42.43785" lon="2.33188">
        <ele>2267.41</ele>
        <time>2017-02-06T09:54:34Z</time>
      </trkpt>
      <trkpt lat="42.43775" lon="2.33083">
        <ele>2272.69</ele>
        <time>2017-02-06T09:56:54Z</time>
      </trkpt>
      <trkpt lat="42.43735" lon="2.3291">
        <ele>2296.73</ele>
        <time>2017-02-06T10:05:42Z</time>
      </trkpt>
      <trkpt lat="42.43637" lon="2.32809">
        <ele>2364.98</ele>
        <time>2017-02-06T10:21:31Z</time>
      </trkpt>
      <trkpt lat="42.43618" lon="2.3279">
        <ele>2377.96</ele>
        <time>2017-02-06T10:22:42Z</time>
      </trkpt>
      <trkpt lat="42.43617" lon="2.32789">
        <ele>2377.96</ele>
        <time>2017-02-06T10:22:43Z</time>
      </trkpt>
      <trkpt lat="42.43591" lon="2.32753">
        <ele>2382.28</ele>
        <time>2017-02-06T10:26:00Z</time>
      </trkpt>
      <trkpt lat="42.43547" lon="2.32648">
        <ele>2385.65</ele>
        <time>2017-02-06T10:27:28Z</time>
      </trkpt>
      <trkpt lat="42.43452" lon="2.3252">
        <ele>2363.06</ele>
        <time>2017-02-06T10:29:23Z</time>
      </trkpt>
      <trkpt lat="42.43426" lon="2.32459">
        <ele>2358.25</ele>
        <time>2017-02-06T10:29:58Z</time>
      </trkpt>
      <trkpt lat="42.43415" lon="2.32431">
        <ele>2356.33</ele>
        <time>2017-02-06T10:30:20Z</time>
      </trkpt>
      <trkpt lat="42.4338" lon="2.3238">
        <ele>2356.33</ele>
        <time>2017-02-06T10:31:00Z</time>
      </trkpt>
      <trkpt lat="42.43374" lon="2.32371">
        <ele>2352</ele>
        <time>2017-02-06T10:31:06Z</time>
      </trkpt>
      <trkpt lat="42.43326" lon="2.3229">
        <ele>2345.27</ele>
        <time>2017-02-06T10:32:20Z</time>
      </trkpt>
      <trkpt lat="42.43289" lon="2.32222">
        <ele>2359.69</ele>
        <time>2017-02-06T10:33:31Z</time>
      </trkpt>
      <trkpt lat="42.43213" lon="2.32136">
        <ele>2365.46</ele>
        <time>2017-02-06T10:35:34Z</time>
      </trkpt>
      <trkpt lat="42.43119" lon="2.31964">
        <ele>2370.27</ele>
        <time>2017-02-06T10:38:42Z</time>
      </trkpt>
      <trkpt lat="42.43084" lon="2.31866">
        <ele>2360.17</ele>
        <time>2017-02-06T10:39:41Z</time>
      </trkpt>
      <trkpt lat="42.4302" lon="2.31743">
        <ele>2346.72</ele>
        <time>2017-02-06T10:41:16Z</time>
      </trkpt>
      <trkpt lat="42.43007" lon="2.31702">
        <ele>2340.95</ele>
        <time>2017-02-06T10:41:51Z</time>
      </trkpt>
      <trkpt lat="42.43006" lon="2.317">
        <ele>2344.31</ele>
        <time>2017-02-06T10:41:53Z</time>
      </trkpt>
      <trkpt lat="42.42996" lon="2.31667">
        <ele>2344.79</ele>
        <time>2017-02-06T10:42:28Z</time>
      </trkpt>
      <trkpt lat="42.42949" lon="2.31495">
        <ele>2353.93</ele>
        <time>2017-02-06T10:44:48Z</time>
      </trkpt>
      <trkpt lat="42.42939" lon="2.31428">
        <ele>2351.04</ele>
        <time>2017-02-06T10:45:56Z</time>
      </trkpt>
      <trkpt lat="42.4294" lon="2.31398">
        <ele>2355.85</ele>
        <time>2017-02-06T10:46:22Z</time>
      </trkpt>
      <trkpt lat="42.4294" lon="2.31272">
        <ele>2349.6</ele>
        <time>2017-02-06T10:48:28Z</time>
      </trkpt>
      <trkpt lat="42.42954" lon="2.31241">
        <ele>2357.29</ele>
        <time>2017-02-06T10:49:07Z</time>
      </trkpt>
      <trkpt lat="42.4302" lon="2.31081">
        <ele>2375.55</ele>
        <time>2017-02-06T10:54:35Z</time>
      </trkpt>
      <trkpt lat="42.43115" lon="2.30892">
        <ele>2386.13</ele>
        <time>2017-02-06T10:59:44Z</time>
      </trkpt>
      <trkpt lat="42.43143" lon="2.30821">
        <ele>2398.15</ele>
        <time>2017-02-06T11:01:40Z</time>
      </trkpt>
      <trkpt lat="42.43148" lon="2.30581">
        <ele>2420.74</ele>
        <time>2017-02-06T11:07:24Z</time>
      </trkpt>
      <trkpt lat="42.42834" lon="2.30204">
        <ele>2396.7</ele>
        <time>2017-02-06T11:16:24Z</time>
      </trkpt>
      <trkpt lat="42.42727" lon="2.29986">
        <ele>2399.59</ele>
        <time>2017-02-06T11:19:18Z</time>
      </trkpt>
      <trkpt lat="42.42668" lon="2.29783">
        <ele>2396.7</ele>
        <time>2017-02-06T11:22:31Z</time>
      </trkpt>
      <trkpt lat="42.42668" lon="2.2978">
        <ele>2392.86</ele>
        <time>2017-02-06T11:22:33Z</time>
      </trkpt>
      <trkpt lat="42.42905" lon="2.29232">
        <ele>2383.73</ele>
        <time>2017-02-06T11:31:41Z</time>
      </trkpt>
      <trkpt lat="42.42905" lon="2.29231">
        <ele>2383.73</ele>
        <time>2017-02-06T11:31:42Z</time>
      </trkpt>
      <trkpt lat="42.42969" lon="2.29107">
        <ele>2388.53</ele>
        <time>2017-02-06T11:33:37Z</time>
      </trkpt>
      <trkpt lat="42.43051" lon="2.28755">
        <ele>2397.18</ele>
        <time>2017-02-06T11:39:23Z</time>
      </trkpt>
      <trkpt lat="42.43051" lon="2.28754">
        <ele>2397.18</ele>
        <time>2017-02-06T11:39:24Z</time>
      </trkpt>
      <trkpt lat="42.43062" lon="2.28702">
        <ele>2393.82</ele>
        <time>2017-02-06T11:40:10Z</time>
      </trkpt>
      <trkpt lat="42.43064" lon="2.28697">
        <ele>2398.63</ele>
        <time>2017-02-06T11:40:14Z</time>
      </trkpt>
      <trkpt lat="42.42957" lon="2.28112">
        <ele>2386.61</ele>
        <time>2017-02-06T11:50:53Z</time>
      </trkpt>
      <trkpt lat="42.42952" lon="2.28044">
        <ele>2385.17</ele>
        <time>2017-02-06T11:51:33Z</time>
      </trkpt>
      <trkpt lat="42.42963" lon="2.27988">
        <ele>2389.49</ele>
        <time>2017-02-06T11:52:14Z</time>
      </trkpt>
      <trkpt lat="42.42987" lon="2.27896">
        <ele>2395.74</ele>
        <time>2017-02-06T11:55:26Z</time>
      </trkpt>
      <trkpt lat="42.43023" lon="2.27812">
        <ele>2403.43</ele>
        <time>2017-02-06T11:57:48Z</time>
      </trkpt>
      <trkpt lat="42.43064" lon="2.27797">
        <ele>2410.16</ele>
        <time>2017-02-06T11:59:48Z</time>
      </trkpt>
      <trkpt lat="42.43064" lon="2.27796">
        <ele>2410.16</ele>
        <time>2017-02-06T11:59:49Z</time>
      </trkpt>
      <trkpt lat="42.4307" lon="2.27784">
        <ele>2406.8</ele>
        <time>2017-02-06T12:00:09Z</time>
      </trkpt>
      <trkpt lat="42.4314" lon="2.2774">
        <ele>2419.3</ele>
        <time>2017-02-06T12:02:58Z</time>
      </trkpt>
      <trkpt lat="42.43141" lon="2.27739">
        <ele>2426.02</ele>
        <time>2017-02-06T12:02:59Z</time>
      </trkpt>
      <trkpt lat="42.43199" lon="2.2768">
        <ele>2435.64</ele>
        <time>2017-02-06T12:06:02Z</time>
      </trkpt>
      <trkpt lat="42.43204" lon="2.27669">
        <ele>2433.71</ele>
        <time>2017-02-06T12:06:45Z</time>
      </trkpt>
      <trkpt lat="42.43204" lon="2.27669">
        <ele>2435.64</ele>
        <time>2017-02-06T12:06:46Z</time>
      </trkpt>
      <trkpt lat="42.43212" lon="2.27561">
        <ele>2437.56</ele>
        <time>2017-02-06T12:08:27Z</time>
      </trkpt>
      <trkpt lat="42.43236" lon="2.27458">
        <ele>2427.95</ele>
        <time>2017-02-06T12:09:51Z</time>
      </trkpt>
      <trkpt lat="42.43236" lon="2.27457">
        <ele>2424.1</ele>
        <time>2017-02-06T12:09:52Z</time>
      </trkpt>
      <trkpt lat="42.43276" lon="2.27424">
        <ele>2415.93</ele>
        <time>2017-02-06T12:10:57Z</time>
      </trkpt>
      <trkpt lat="42.43278" lon="2.27356">
        <ele>2414.01</ele>
        <time>2017-02-06T12:12:13Z</time>
      </trkpt>
      <trkpt lat="42.43249" lon="2.27316">
        <ele>2401.03</ele>
        <time>2017-02-06T12:12:40Z</time>
      </trkpt>
      <trkpt lat="42.43216" lon="2.27238">
        <ele>2384.21</ele>
        <time>2017-02-06T12:26:04Z</time>
      </trkpt>
      <trkpt lat="42.43199" lon="2.27184">
        <ele>2366.9</ele>
        <time>2017-02-06T12:27:05Z</time>
      </trkpt>
      <trkpt lat="42.43075" lon="2.27111">
        <ele>2304.42</ele>
        <time>2017-02-06T12:28:41Z</time>
      </trkpt>
      <trkpt lat="42.43013" lon="2.27052">
        <ele>2277.5</ele>
        <time>2017-02-06T12:29:39Z</time>
      </trkpt>
      <trkpt lat="42.43011" lon="2.2705">
        <ele>2276.54</ele>
        <time>2017-02-06T12:29:40Z</time>
      </trkpt>
      <trkpt lat="42.42969" lon="2.2704">
        <ele>2260.68</ele>
        <time>2017-02-06T12:29:51Z</time>
      </trkpt>
      <trkpt lat="42.42969" lon="2.2704">
        <ele>2264.52</ele>
        <time>2017-02-06T12:29:52Z</time>
      </trkpt>
      <trkpt lat="42.42899" lon="2.26905">
        <ele>2220.3</ele>
        <time>2017-02-06T12:32:02Z</time>
      </trkpt>
      <trkpt lat="42.42898" lon="2.26902">
        <ele>2220.3</ele>
        <time>2017-02-06T12:32:03Z</time>
      </trkpt>
      <trkpt lat="42.42879" lon="2.26742">
        <ele>2199.15</ele>
        <time>2017-02-06T12:33:15Z</time>
      </trkpt>
      <trkpt lat="42.42847" lon="2.26711">
        <ele>2191.94</ele>
        <time>2017-02-06T12:33:23Z</time>
      </trkpt>
      <trkpt lat="42.42775" lon="2.26597">
        <ele>2150.61</ele>
        <time>2017-02-06T12:35:05Z</time>
      </trkpt>
      <trkpt lat="42.42743" lon="2.26527">
        <ele>2149.16</ele>
        <time>2017-02-06T12:35:27Z</time>
      </trkpt>
      <trkpt lat="42.42737" lon="2.26516">
        <ele>2145.32</ele>
        <time>2017-02-06T12:35:32Z</time>
      </trkpt>
      <trkpt lat="42.42734" lon="2.26513">
        <ele>2144.84</ele>
        <time>2017-02-06T12:35:36Z</time>
      </trkpt>
      <trkpt lat="42.42709" lon="2.26506">
        <ele>2136.67</ele>
        <time>2017-02-06T12:35:59Z</time>
      </trkpt>
      <trkpt lat="42.42708" lon="2.26505">
        <ele>2136.67</ele>
        <time>2017-02-06T12:36:00Z</time>
      </trkpt>
      <trkpt lat="42.42697" lon="2.26495">
        <ele>2141.95</ele>
        <time>2017-02-06T12:36:10Z</time>
      </trkpt>
      <trkpt lat="42.4265" lon="2.26424">
        <ele>2121.77</ele>
        <time>2017-02-06T13:07:49Z</time>
      </trkpt>
      <trkpt lat="42.42636" lon="2.26408">
        <ele>2131.86</ele>
        <time>2017-02-06T13:08:02Z</time>
      </trkpt>
      <trkpt lat="42.42611" lon="2.26274">
        <ele>2132.82</ele>
        <time>2017-02-06T13:11:19Z</time>
      </trkpt>
      <trkpt lat="42.42564" lon="2.26261">
        <ele>2130.42</ele>
        <time>2017-02-06T13:12:06Z</time>
      </trkpt>
      <trkpt lat="42.4253" lon="2.26318">
        <ele>2119.36</ele>
        <time>2017-02-06T13:14:24Z</time>
      </trkpt>
      <trkpt lat="42.42507" lon="2.26352">
        <ele>2107.83</ele>
        <time>2017-02-06T13:14:31Z</time>
      </trkpt>
      <trkpt lat="42.42423" lon="2.26354">
        <ele>2101.58</ele>
        <time>2017-02-06T13:16:15Z</time>
      </trkpt>
      <trkpt lat="42.4239" lon="2.26381">
        <ele>2078.03</ele>
        <time>2017-02-06T13:16:38Z</time>
      </trkpt>
      <trkpt lat="42.42384" lon="2.26408">
        <ele>2071.78</ele>
        <time>2017-02-06T13:17:34Z</time>
      </trkpt>
      <trkpt lat="42.42354" lon="2.2645">
        <ele>2061.68</ele>
        <time>2017-02-06T13:17:43Z</time>
      </trkpt>
      <trkpt lat="42.42318" lon="2.26502">
        <ele>2052.07</ele>
        <time>2017-02-06T13:17:51Z</time>
      </trkpt>
      <trkpt lat="42.423" lon="2.26597">
        <ele>2025.15</ele>
        <time>2017-02-06T13:19:35Z</time>
      </trkpt>
      <trkpt lat="42.42294" lon="2.26667">
        <ele>2019.87</ele>
        <time>2017-02-06T13:20:08Z</time>
      </trkpt>
      <trkpt lat="42.42295" lon="2.26667">
        <ele>2015.54</ele>
        <time>2017-02-06T13:20:10Z</time>
      </trkpt>
      <trkpt lat="42.42294" lon="2.26668">
        <ele>2016.98</ele>
        <time>2017-02-06T13:20:18Z</time>
      </trkpt>
      <trkpt lat="42.42273" lon="2.26725">
        <ele>1999.2</ele>
        <time>2017-02-06T13:20:54Z</time>
      </trkpt>
      <trkpt lat="42.42239" lon="2.26765">
        <ele>1988.14</ele>
        <time>2017-02-06T13:23:52Z</time>
      </trkpt>
      <trkpt lat="42.42239" lon="2.26765">
        <ele>1988.14</ele>
        <time>2017-02-06T13:23:53Z</time>
      </trkpt>
      <trkpt lat="42.42197" lon="2.26799">
        <ele>1981.41</ele>
        <time>2017-02-06T13:25:34Z</time>
      </trkpt>
      <trkpt lat="42.42099" lon="2.2691">
        <ele>1972.76</ele>
        <time>2017-02-06T13:27:56Z</time>
      </trkpt>
      <trkpt lat="42.42048" lon="2.26995">
        <ele>1966.03</ele>
        <time>2017-02-06T14:08:49Z</time>
      </trkpt>
      <trkpt lat="42.42134" lon="2.2687">
        <ele>1980.45</ele>
        <time>2017-02-06T14:12:28Z</time>
      </trkpt>
      <trkpt lat="42.42171" lon="2.26811">
        <ele>1991.51</ele>
        <time>2017-02-06T14:13:37Z</time>
      </trkpt>
      <trkpt lat="42.42175" lon="2.26806">
        <ele>1989.59</ele>
        <time>2017-02-06T14:13:45Z</time>
      </trkpt>
      <trkpt lat="42.42235" lon="2.2674">
        <ele>1998.24</ele>
        <time>2017-02-06T14:15:42Z</time>
      </trkpt>
      <trkpt lat="42.42217" lon="2.26719">
        <ele>2000.64</ele>
        <time>2017-02-06T14:16:10Z</time>
      </trkpt>
      <trkpt lat="42.42174" lon="2.2669">
        <ele>1995.83</ele>
        <time>2017-02-06T14:17:12Z</time>
      </trkpt>
      <trkpt lat="42.42157" lon="2.26677">
        <ele>2003.52</ele>
        <time>2017-02-06T14:17:38Z</time>
      </trkpt>
      <trkpt lat="42.42134" lon="2.26648">
        <ele>2009.29</ele>
        <time>2017-02-06T14:18:54Z</time>
      </trkpt>
      <trkpt lat="42.42135" lon="2.26629">
        <ele>2017.46</ele>
        <time>2017-02-06T14:20:14Z</time>
      </trkpt>
      <trkpt lat="42.42143" lon="2.26594">
        <ele>2035.73</ele>
        <time>2017-02-06T14:22:03Z</time>
      </trkpt>
      <trkpt lat="42.42156" lon="2.26553">
        <ele>2037.17</ele>
        <time>2017-02-06T14:24:01Z</time>
      </trkpt>
      <trkpt lat="42.42178" lon="2.26524">
        <ele>2050.63</ele>
        <time>2017-02-06T14:26:13Z</time>
      </trkpt>
      <trkpt lat="42.42194" lon="2.26487">
        <ele>2060.24</ele>
        <time>2017-02-06T14:27:25Z</time>
      </trkpt>
      <trkpt lat="42.42196" lon="2.26484">
        <ele>2065.53</ele>
        <time>2017-02-06T14:27:29Z</time>
      </trkpt>
      <trkpt lat="42.42171" lon="2.26427">
        <ele>2071.78</ele>
        <time>2017-02-06T14:29:25Z</time>
      </trkpt>
      <trkpt lat="42.42129" lon="2.26318">
        <ele>2078.99</ele>
        <time>2017-02-06T14:34:44Z</time>
      </trkpt>
      <trkpt lat="42.42106" lon="2.26171">
        <ele>2123.21</ele>
        <time>2017-02-06T14:40:31Z</time>
      </trkpt>
      <trkpt lat="42.42076" lon="2.26063">
        <ele>2155.89</ele>
        <time>2017-02-06T14:46:14Z</time>
      </trkpt>
      <trkpt lat="42.42059" lon="2.25979">
        <ele>2164.06</ele>
        <time>2017-02-06T14:48:26Z</time>
      </trkpt>
      <trkpt lat="42.42045" lon="2.25896">
        <ele>2176.56</ele>
        <time>2017-02-06T14:51:06Z</time>
      </trkpt>
      <trkpt lat="42.42043" lon="2.25883">
        <ele>2184.25</ele>
        <time>2017-02-06T14:51:36Z</time>
      </trkpt>
      <trkpt lat="42.42041" lon="2.25857">
        <ele>2191.94</ele>
        <time>2017-02-06T14:54:05Z</time>
      </trkpt>
      <trkpt lat="42.42044" lon="2.25834">
        <ele>2205.88</ele>
        <time>2017-02-06T14:55:49Z</time>
      </trkpt>
      <trkpt lat="42.42032" lon="2.25818">
        <ele>2208.29</ele>
        <time>2017-02-06T14:57:31Z</time>
      </trkpt>
      <trkpt lat="42.42032" lon="2.25818">
        <ele>2208.29</ele>
        <time>2017-02-06T14:57:32Z</time>
      </trkpt>
      <trkpt lat="42.42007" lon="2.25796">
        <ele>2224.63</ele>
        <time>2017-02-06T14:59:16Z</time>
      </trkpt>
      <trkpt lat="42.41987" lon="2.25777">
        <ele>2226.07</ele>
        <time>2017-02-06T15:00:44Z</time>
      </trkpt>
      <trkpt lat="42.4197" lon="2.25766">
        <ele>2241.45</ele>
        <time>2017-02-06T15:02:02Z</time>
      </trkpt>
      <trkpt lat="42.41954" lon="2.2575">
        <ele>2227.51</ele>
        <time>2017-02-06T15:02:55Z</time>
      </trkpt>
    </trkseg>
  </trk>
  <trk>
    <name><![CDATA[TPS1 07 FEB 2016]]></name>
    <trkseg>
      <trkpt lat="42.41953" lon="2.25748">
        <ele>2236.64</ele>
        <time>2017-02-07T08:25:49Z</time>
      </trkpt>
      <trkpt lat="42.41965" lon="2.2573">
        <ele>2241.45</ele>
        <time>2017-02-07T08:28:47Z</time>
      </trkpt>
      <trkpt lat="42.4197" lon="2.2568">
        <ele>2244.82</ele>
        <time>2017-02-07T08:30:23Z</time>
      </trkpt>
      <trkpt lat="42.41971" lon="2.25655">
        <ele>2248.66</ele>
        <time>2017-02-07T08:30:51Z</time>
      </trkpt>
      <trkpt lat="42.41974" lon="2.2564">
        <ele>2252.03</ele>
        <time>2017-02-07T08:31:13Z</time>
      </trkpt>
      <trkpt lat="42.41975" lon="2.25617">
        <ele>2256.35</ele>
        <time>2017-02-07T08:31:47Z</time>
      </trkpt>
      <trkpt lat="42.41977" lon="2.25585">
        <ele>2261.16</ele>
        <time>2017-02-07T08:32:35Z</time>
      </trkpt>
      <trkpt lat="42.4198" lon="2.25552">
        <ele>2263.56</ele>
        <time>2017-02-07T08:33:24Z</time>
      </trkpt>
      <trkpt lat="42.41985" lon="2.25528">
        <ele>2268.37</ele>
        <time>2017-02-07T08:33:58Z</time>
      </trkpt>
      <trkpt lat="42.41993" lon="2.25497">
        <ele>2271.73</ele>
        <time>2017-02-07T08:34:49Z</time>
      </trkpt>
      <trkpt lat="42.42" lon="2.25476">
        <ele>2274.62</ele>
        <time>2017-02-07T08:35:15Z</time>
      </trkpt>
      <trkpt lat="42.42015" lon="2.25441">
        <ele>2278.94</ele>
        <time>2017-02-07T08:36:11Z</time>
      </trkpt>
      <trkpt lat="42.42024" lon="2.25405">
        <ele>2283.75</ele>
        <time>2017-02-07T08:37:02Z</time>
      </trkpt>
      <trkpt lat="42.42025" lon="2.25393">
        <ele>2287.11</ele>
        <time>2017-02-07T08:37:19Z</time>
      </trkpt>
      <trkpt lat="42.42031" lon="2.2537">
        <ele>2291.44</ele>
        <time>2017-02-07T08:37:57Z</time>
      </trkpt>
      <trkpt lat="42.42031" lon="2.25364">
        <ele>2290.48</ele>
        <time>2017-02-07T08:38:07Z</time>
      </trkpt>
      <trkpt lat="42.4203" lon="2.25346">
        <ele>2296.25</ele>
        <time>2017-02-07T08:38:31Z</time>
      </trkpt>
      <trkpt lat="42.42034" lon="2.25323">
        <ele>2302.49</ele>
        <time>2017-02-07T08:39:15Z</time>
      </trkpt>
      <trkpt lat="42.42034" lon="2.25323">
        <ele>2302.49</ele>
        <time>2017-02-07T08:39:16Z</time>
      </trkpt>
      <trkpt lat="42.4204" lon="2.25299">
        <ele>2307.78</ele>
        <time>2017-02-07T08:40:13Z</time>
      </trkpt>
      <trkpt lat="42.42041" lon="2.25296">
        <ele>2306.82</ele>
        <time>2017-02-07T08:40:18Z</time>
      </trkpt>
      <trkpt lat="42.42042" lon="2.25287">
        <ele>2312.11</ele>
        <time>2017-02-07T08:40:44Z</time>
      </trkpt>
      <trkpt lat="42.42042" lon="2.25288">
        <ele>2312.11</ele>
        <time>2017-02-07T08:40:45Z</time>
      </trkpt>
      <trkpt lat="42.42045" lon="2.25269">
        <ele>2316.91</ele>
        <time>2017-02-07T08:41:36Z</time>
      </trkpt>
      <trkpt lat="42.42047" lon="2.25256">
        <ele>2320.28</ele>
        <time>2017-02-07T08:42:02Z</time>
      </trkpt>
      <trkpt lat="42.42048" lon="2.25242">
        <ele>2322.68</ele>
        <time>2017-02-07T08:42:27Z</time>
      </trkpt>
      <trkpt lat="42.42046" lon="2.2521">
        <ele>2330.37</ele>
        <time>2017-02-07T08:43:21Z</time>
      </trkpt>
      <trkpt lat="42.42044" lon="2.25191">
        <ele>2332.78</ele>
        <time>2017-02-07T08:43:47Z</time>
      </trkpt>
      <trkpt lat="42.42042" lon="2.25181">
        <ele>2337.58</ele>
        <time>2017-02-07T08:44:31Z</time>
      </trkpt>
      <trkpt lat="42.42024" lon="2.25085">
        <ele>2341.43</ele>
        <time>2017-02-07T08:46:43Z</time>
      </trkpt>
      <trkpt lat="42.42014" lon="2.25061">
        <ele>2345.75</ele>
        <time>2017-02-07T08:47:23Z</time>
      </trkpt>
      <trkpt lat="42.42016" lon="2.25036">
        <ele>2349.12</ele>
        <time>2017-02-07T08:48:02Z</time>
      </trkpt>
      <trkpt lat="42.42029" lon="2.25022">
        <ele>2354.89</ele>
        <time>2017-02-07T08:48:36Z</time>
      </trkpt>
      <trkpt lat="42.42024" lon="2.25009">
        <ele>2358.25</ele>
        <time>2017-02-07T08:48:55Z</time>
      </trkpt>
      <trkpt lat="42.42018" lon="2.24986">
        <ele>2363.06</ele>
        <time>2017-02-07T08:49:33Z</time>
      </trkpt>
      <trkpt lat="42.42011" lon="2.2496">
        <ele>2368.35</ele>
        <time>2017-02-07T08:50:16Z</time>
      </trkpt>
      <trkpt lat="42.4201" lon="2.24945">
        <ele>2371.71</ele>
        <time>2017-02-07T08:50:36Z</time>
      </trkpt>
      <trkpt lat="42.42004" lon="2.24924">
        <ele>2376.52</ele>
        <time>2017-02-07T08:51:07Z</time>
      </trkpt>
      <trkpt lat="42.41999" lon="2.24915">
        <ele>2375.55</ele>
        <time>2017-02-07T08:51:25Z</time>
      </trkpt>
      <trkpt lat="42.41999" lon="2.249">
        <ele>2378.92</ele>
        <time>2017-02-07T08:51:49Z</time>
      </trkpt>
      <trkpt lat="42.42" lon="2.24891">
        <ele>2382.28</ele>
        <time>2017-02-07T08:52:02Z</time>
      </trkpt>
      <trkpt lat="42.42" lon="2.24888">
        <ele>2380.84</ele>
        <time>2017-02-07T08:52:05Z</time>
      </trkpt>
      <trkpt lat="42.42" lon="2.24879">
        <ele>2384.21</ele>
        <time>2017-02-07T08:52:17Z</time>
      </trkpt>
      <trkpt lat="42.41997" lon="2.24873">
        <ele>2384.21</ele>
        <time>2017-02-07T08:52:26Z</time>
      </trkpt>
      <trkpt lat="42.41992" lon="2.24839">
        <ele>2388.53</ele>
        <time>2017-02-07T08:53:16Z</time>
      </trkpt>
      <trkpt lat="42.41977" lon="2.24766">
        <ele>2393.82</ele>
        <time>2017-02-07T08:54:45Z</time>
      </trkpt>
      <trkpt lat="42.41978" lon="2.24746">
        <ele>2397.67</ele>
        <time>2017-02-07T08:55:11Z</time>
      </trkpt>
      <trkpt lat="42.41974" lon="2.24719">
        <ele>2401.03</ele>
        <time>2017-02-07T08:55:49Z</time>
      </trkpt>
      <trkpt lat="42.41972" lon="2.24692">
        <ele>2405.84</ele>
        <time>2017-02-07T08:56:25Z</time>
      </trkpt>
      <trkpt lat="42.41963" lon="2.24662">
        <ele>2409.68</ele>
        <time>2017-02-07T08:57:04Z</time>
      </trkpt>
      <trkpt lat="42.41946" lon="2.24637">
        <ele>2411.12</ele>
        <time>2017-02-07T08:57:43Z</time>
      </trkpt>
      <trkpt lat="42.41929" lon="2.24613">
        <ele>2415.93</ele>
        <time>2017-02-07T08:58:22Z</time>
      </trkpt>
      <trkpt lat="42.41905" lon="2.24583">
        <ele>2420.26</ele>
        <time>2017-02-07T08:59:14Z</time>
      </trkpt>
      <trkpt lat="42.41893" lon="2.24569">
        <ele>2424.58</ele>
        <time>2017-02-07T08:59:51Z</time>
      </trkpt>
      <trkpt lat="42.41876" lon="2.2453">
        <ele>2427.95</ele>
        <time>2017-02-07T09:00:54Z</time>
      </trkpt>
      <trkpt lat="42.4187" lon="2.24517">
        <ele>2431.31</ele>
        <time>2017-02-07T09:01:18Z</time>
      </trkpt>
      <trkpt lat="42.41859" lon="2.24499">
        <ele>2435.64</ele>
        <time>2017-02-07T09:01:54Z</time>
      </trkpt>
      <trkpt lat="42.41843" lon="2.24479">
        <ele>2441.89</ele>
        <time>2017-02-07T09:02:48Z</time>
      </trkpt>
      <trkpt lat="42.41841" lon="2.24476">
        <ele>2440.44</ele>
        <time>2017-02-07T09:02:53Z</time>
      </trkpt>
      <trkpt lat="42.41832" lon="2.24466">
        <ele>2445.25</ele>
        <time>2017-02-07T09:03:19Z</time>
      </trkpt>
      <trkpt lat="42.41788" lon="2.24428">
        <ele>2459.19</ele>
        <time>2017-02-07T09:07:00Z</time>
      </trkpt>
      <trkpt lat="42.41774" lon="2.2443">
        <ele>2465.44</ele>
        <time>2017-02-07T09:07:55Z</time>
      </trkpt>
      <trkpt lat="42.41758" lon="2.24451">
        <ele>2469.76</ele>
        <time>2017-02-07T09:08:40Z</time>
      </trkpt>
      <trkpt lat="42.41743" lon="2.24444">
        <ele>2475.05</ele>
        <time>2017-02-07T09:10:30Z</time>
      </trkpt>
      <trkpt lat="42.41737" lon="2.24427">
        <ele>2480.34</ele>
        <time>2017-02-07T09:10:56Z</time>
      </trkpt>
      <trkpt lat="42.41737" lon="2.24426">
        <ele>2480.34</ele>
        <time>2017-02-07T09:10:57Z</time>
      </trkpt>
      <trkpt lat="42.41727" lon="2.24421">
        <ele>2485.15</ele>
        <time>2017-02-07T09:11:40Z</time>
      </trkpt>
      <trkpt lat="42.41718" lon="2.24422">
        <ele>2488.99</ele>
        <time>2017-02-07T09:12:18Z</time>
      </trkpt>
      <trkpt lat="42.41717" lon="2.24417">
        <ele>2490.43</ele>
        <time>2017-02-07T09:12:25Z</time>
      </trkpt>
      <trkpt lat="42.41702" lon="2.24413">
        <ele>2494.76</ele>
        <time>2017-02-07T09:13:29Z</time>
      </trkpt>
      <trkpt lat="42.417" lon="2.24403">
        <ele>2497.64</ele>
        <time>2017-02-07T09:13:47Z</time>
      </trkpt>
      <trkpt lat="42.41692" lon="2.24397">
        <ele>2502.45</ele>
        <time>2017-02-07T09:14:21Z</time>
      </trkpt>
      <trkpt lat="42.41684" lon="2.24404">
        <ele>2506.29</ele>
        <time>2017-02-07T09:14:46Z</time>
      </trkpt>
      <trkpt lat="42.41678" lon="2.24382">
        <ele>2512.06</ele>
        <time>2017-02-07T09:15:47Z</time>
      </trkpt>
      <trkpt lat="42.4168" lon="2.24377">
        <ele>2515.43</ele>
        <time>2017-02-07T09:15:59Z</time>
      </trkpt>
      <trkpt lat="42.41697" lon="2.24328">
        <ele>2519.75</ele>
        <time>2017-02-07T09:17:30Z</time>
      </trkpt>
      <trkpt lat="42.41701" lon="2.24321">
        <ele>2523.12</ele>
        <time>2017-02-07T09:17:46Z</time>
      </trkpt>
      <trkpt lat="42.41707" lon="2.24296">
        <ele>2526.48</ele>
        <time>2017-02-07T09:18:28Z</time>
      </trkpt>
      <trkpt lat="42.41712" lon="2.24275">
        <ele>2526.48</ele>
        <time>2017-02-07T09:18:55Z</time>
      </trkpt>
      <trkpt lat="42.41721" lon="2.24252">
        <ele>2526.48</ele>
        <time>2017-02-07T09:20:43Z</time>
      </trkpt>
      <trkpt lat="42.41729" lon="2.2414">
        <ele>2522.16</ele>
        <time>2017-02-07T09:32:19Z</time>
      </trkpt>
      <trkpt lat="42.41721" lon="2.2405">
        <ele>2515.43</ele>
        <time>2017-02-07T09:32:41Z</time>
      </trkpt>
      <trkpt lat="42.4168" lon="2.2397">
        <ele>2511.58</ele>
        <time>2017-02-07T09:33:02Z</time>
      </trkpt>
      <trkpt lat="42.41662" lon="2.23895">
        <ele>2506.29</ele>
        <time>2017-02-07T09:33:28Z</time>
      </trkpt>
      <trkpt lat="42.41673" lon="2.23826">
        <ele>2505.33</ele>
        <time>2017-02-07T09:34:02Z</time>
      </trkpt>
      <trkpt lat="42.41688" lon="2.23795">
        <ele>2501.49</ele>
        <time>2017-02-07T09:34:30Z</time>
      </trkpt>
      <trkpt lat="42.41722" lon="2.23749">
        <ele>2497.16</ele>
        <time>2017-02-07T09:34:51Z</time>
      </trkpt>
      <trkpt lat="42.41756" lon="2.23683">
        <ele>2493.32</ele>
        <time>2017-02-07T09:35:26Z</time>
      </trkpt>
      <trkpt lat="42.41758" lon="2.2368">
        <ele>2493.32</ele>
        <time>2017-02-07T09:35:27Z</time>
      </trkpt>
      <trkpt lat="42.41767" lon="2.2366">
        <ele>2488.99</ele>
        <time>2017-02-07T09:35:32Z</time>
      </trkpt>
      <trkpt lat="42.41769" lon="2.23658">
        <ele>2488.99</ele>
        <time>2017-02-07T09:35:33Z</time>
      </trkpt>
      <trkpt lat="42.41769" lon="2.23658">
        <ele>2488.99</ele>
        <time>2017-02-07T09:35:50Z</time>
      </trkpt>
      <trkpt lat="42.41771" lon="2.23645">
        <ele>2485.63</ele>
        <time>2017-02-07T09:35:54Z</time>
      </trkpt>
      <trkpt lat="42.41783" lon="2.23612">
        <ele>2480.82</ele>
        <time>2017-02-07T09:36:02Z</time>
      </trkpt>
      <trkpt lat="42.41784" lon="2.23594">
        <ele>2476.97</ele>
        <time>2017-02-07T09:36:05Z</time>
      </trkpt>
      <trkpt lat="42.41783" lon="2.23569">
        <ele>2476.97</ele>
        <time>2017-02-07T09:36:30Z</time>
      </trkpt>
      <trkpt lat="42.41782" lon="2.23559">
        <ele>2471.69</ele>
        <time>2017-02-07T09:36:33Z</time>
      </trkpt>
      <trkpt lat="42.41779" lon="2.23543">
        <ele>2464.96</ele>
        <time>2017-02-07T09:36:35Z</time>
      </trkpt>
      <trkpt lat="42.41778" lon="2.23535">
        <ele>2464.96</ele>
        <time>2017-02-07T09:36:36Z</time>
      </trkpt>
      <trkpt lat="42.41774" lon="2.23519">
        <ele>2459.67</ele>
        <time>2017-02-07T09:36:38Z</time>
      </trkpt>
      <trkpt lat="42.41776" lon="2.23504">
        <ele>2456.79</ele>
        <time>2017-02-07T09:36:40Z</time>
      </trkpt>
      <trkpt lat="42.41776" lon="2.23482">
        <ele>2445.25</ele>
        <time>2017-02-07T09:36:43Z</time>
      </trkpt>
      <trkpt lat="42.41777" lon="2.23475">
        <ele>2447.17</ele>
        <time>2017-02-07T09:36:44Z</time>
      </trkpt>
      <trkpt lat="42.41784" lon="2.23453">
        <ele>2443.33</ele>
        <time>2017-02-07T09:36:47Z</time>
      </trkpt>
      <trkpt lat="42.41786" lon="2.23445">
        <ele>2443.33</ele>
        <time>2017-02-07T09:36:48Z</time>
      </trkpt>
      <trkpt lat="42.41803" lon="2.23378">
        <ele>2438.52</ele>
        <time>2017-02-07T09:37:30Z</time>
      </trkpt>
      <trkpt lat="42.41805" lon="2.23339">
        <ele>2437.56</ele>
        <time>2017-02-07T09:37:43Z</time>
      </trkpt>
      <trkpt lat="42.41805" lon="2.23326">
        <ele>2433.71</ele>
        <time>2017-02-07T09:37:52Z</time>
      </trkpt>
      <trkpt lat="42.41804" lon="2.23294">
        <ele>2432.27</ele>
        <time>2017-02-07T09:37:59Z</time>
      </trkpt>
      <trkpt lat="42.418" lon="2.23238">
        <ele>2434.2</ele>
        <time>2017-02-07T09:46:35Z</time>
      </trkpt>
      <trkpt lat="42.41814" lon="2.23193">
        <ele>2438.52</ele>
        <time>2017-02-07T09:47:24Z</time>
      </trkpt>
      <trkpt lat="42.41819" lon="2.23178">
        <ele>2442.85</ele>
        <time>2017-02-07T09:47:39Z</time>
      </trkpt>
      <trkpt lat="42.41823" lon="2.23172">
        <ele>2441.41</ele>
        <time>2017-02-07T09:47:47Z</time>
      </trkpt>
      <trkpt lat="42.4185" lon="2.23137">
        <ele>2440.92</ele>
        <time>2017-02-07T09:48:31Z</time>
      </trkpt>
      <trkpt lat="42.41867" lon="2.23098">
        <ele>2439</ele>
        <time>2017-02-07T09:49:02Z</time>
      </trkpt>
      <trkpt lat="42.41891" lon="2.23007">
        <ele>2442.37</ele>
        <time>2017-02-07T09:50:15Z</time>
      </trkpt>
      <trkpt lat="42.41917" lon="2.2293">
        <ele>2437.08</ele>
        <time>2017-02-07T09:51:09Z</time>
      </trkpt>
      <trkpt lat="42.41915" lon="2.22898">
        <ele>2431.31</ele>
        <time>2017-02-07T09:51:18Z</time>
      </trkpt>
      <trkpt lat="42.41916" lon="2.22863">
        <ele>2426.99</ele>
        <time>2017-02-07T09:51:35Z</time>
      </trkpt>
      <trkpt lat="42.41913" lon="2.22844">
        <ele>2423.62</ele>
        <time>2017-02-07T09:51:39Z</time>
      </trkpt>
      <trkpt lat="42.41912" lon="2.22839">
        <ele>2423.62</ele>
        <time>2017-02-07T09:51:40Z</time>
      </trkpt>
      <trkpt lat="42.41893" lon="2.22792">
        <ele>2418.33</ele>
        <time>2017-02-07T09:51:55Z</time>
      </trkpt>
      <trkpt lat="42.41869" lon="2.22732">
        <ele>2426.99</ele>
        <time>2017-02-07T10:03:33Z</time>
      </trkpt>
      <trkpt lat="42.41869" lon="2.22732">
        <ele>2426.99</ele>
        <time>2017-02-07T10:03:34Z</time>
      </trkpt>
      <trkpt lat="42.41869" lon="2.22716">
        <ele>2425.54</ele>
        <time>2017-02-07T10:04:06Z</time>
      </trkpt>
      <trkpt lat="42.41865" lon="2.22657">
        <ele>2425.54</ele>
        <time>2017-02-07T10:05:35Z</time>
      </trkpt>
      <trkpt lat="42.41863" lon="2.22648">
        <ele>2431.31</ele>
        <time>2017-02-07T10:05:46Z</time>
      </trkpt>
      <trkpt lat="42.41863" lon="2.22647">
        <ele>2431.31</ele>
        <time>2017-02-07T10:05:47Z</time>
      </trkpt>
      <trkpt lat="42.41859" lon="2.22617">
        <ele>2435.64</ele>
        <time>2017-02-07T10:06:34Z</time>
      </trkpt>
      <trkpt lat="42.41858" lon="2.22591">
        <ele>2441.89</ele>
        <time>2017-02-07T10:07:19Z</time>
      </trkpt>
      <trkpt lat="42.41856" lon="2.22577">
        <ele>2440.44</ele>
        <time>2017-02-07T10:07:36Z</time>
      </trkpt>
      <trkpt lat="42.41856" lon="2.22557">
        <ele>2443.33</ele>
        <time>2017-02-07T10:08:21Z</time>
      </trkpt>
      <trkpt lat="42.41855" lon="2.22553">
        <ele>2446.69</ele>
        <time>2017-02-07T10:08:46Z</time>
      </trkpt>
      <trkpt lat="42.41855" lon="2.22536">
        <ele>2452.94</ele>
        <time>2017-02-07T10:09:21Z</time>
      </trkpt>
      <trkpt lat="42.41859" lon="2.22477">
        <ele>2453.42</ele>
        <time>2017-02-07T10:11:20Z</time>
      </trkpt>
      <trkpt lat="42.41859" lon="2.22476">
        <ele>2459.19</ele>
        <time>2017-02-07T10:11:22Z</time>
      </trkpt>
      <trkpt lat="42.41858" lon="2.22463">
        <ele>2463.52</ele>
        <time>2017-02-07T10:11:41Z</time>
      </trkpt>
      <trkpt lat="42.41846" lon="2.22385">
        <ele>2467.36</ele>
        <time>2017-02-07T10:13:02Z</time>
      </trkpt>
      <trkpt lat="42.41843" lon="2.22352">
        <ele>2472.17</ele>
        <time>2017-02-07T10:13:59Z</time>
      </trkpt>
      <trkpt lat="42.41845" lon="2.22336">
        <ele>2476.49</ele>
        <time>2017-02-07T10:14:41Z</time>
      </trkpt>
      <trkpt lat="42.41846" lon="2.22308">
        <ele>2480.34</ele>
        <time>2017-02-07T10:15:33Z</time>
      </trkpt>
      <trkpt lat="42.41847" lon="2.22304">
        <ele>2483.7</ele>
        <time>2017-02-07T10:15:42Z</time>
      </trkpt>
      <trkpt lat="42.41847" lon="2.22296">
        <ele>2483.22</ele>
        <time>2017-02-07T10:16:03Z</time>
      </trkpt>
      <trkpt lat="42.41844" lon="2.22274">
        <ele>2488.03</ele>
        <time>2017-02-07T10:16:39Z</time>
      </trkpt>
      <trkpt lat="42.41853" lon="2.22272">
        <ele>2491.39</ele>
        <time>2017-02-07T10:16:56Z</time>
      </trkpt>
      <trkpt lat="42.4185" lon="2.2225">
        <ele>2497.16</ele>
        <time>2017-02-07T10:17:41Z</time>
      </trkpt>
      <trkpt lat="42.41846" lon="2.22229">
        <ele>2501.49</ele>
        <time>2017-02-07T10:18:18Z</time>
      </trkpt>
      <trkpt lat="42.41844" lon="2.22212">
        <ele>2505.33</ele>
        <time>2017-02-07T10:18:54Z</time>
      </trkpt>
      <trkpt lat="42.41839" lon="2.22191">
        <ele>2510.14</ele>
        <time>2017-02-07T10:19:35Z</time>
      </trkpt>
      <trkpt lat="42.41838" lon="2.22175">
        <ele>2514.47</ele>
        <time>2017-02-07T10:20:15Z</time>
      </trkpt>
      <trkpt lat="42.41838" lon="2.22168">
        <ele>2517.83</ele>
        <time>2017-02-07T10:20:35Z</time>
      </trkpt>
      <trkpt lat="42.41825" lon="2.22154">
        <ele>2523.6</ele>
        <time>2017-02-07T10:21:15Z</time>
      </trkpt>
      <trkpt lat="42.41823" lon="2.22142">
        <ele>2528.89</ele>
        <time>2017-02-07T10:21:50Z</time>
      </trkpt>
      <trkpt lat="42.41827" lon="2.22137">
        <ele>2528.89</ele>
        <time>2017-02-07T10:22:06Z</time>
      </trkpt>
      <trkpt lat="42.41817" lon="2.22119">
        <ele>2533.69</ele>
        <time>2017-02-07T10:22:43Z</time>
      </trkpt>
      <trkpt lat="42.41807" lon="2.22101">
        <ele>2538.5</ele>
        <time>2017-02-07T10:23:22Z</time>
      </trkpt>
      <trkpt lat="42.41794" lon="2.22082">
        <ele>2543.79</ele>
        <time>2017-02-07T10:24:05Z</time>
      </trkpt>
      <trkpt lat="42.41785" lon="2.22063">
        <ele>2551</ele>
        <time>2017-02-07T10:24:46Z</time>
      </trkpt>
      <trkpt lat="42.41785" lon="2.22062">
        <ele>2551</ele>
        <time>2017-02-07T10:24:47Z</time>
      </trkpt>
      <trkpt lat="42.41788" lon="2.22032">
        <ele>2555.32</ele>
        <time>2017-02-07T10:25:42Z</time>
      </trkpt>
      <trkpt lat="42.41788" lon="2.22008">
        <ele>2560.13</ele>
        <time>2017-02-07T10:26:18Z</time>
      </trkpt>
      <trkpt lat="42.41785" lon="2.21982">
        <ele>2564.45</ele>
        <time>2017-02-07T10:26:58Z</time>
      </trkpt>
      <trkpt lat="42.41786" lon="2.21957">
        <ele>2569.26</ele>
        <time>2017-02-07T10:27:38Z</time>
      </trkpt>
      <trkpt lat="42.41785" lon="2.21935">
        <ele>2571.18</ele>
        <time>2017-02-07T10:28:11Z</time>
      </trkpt>
      <trkpt lat="42.41786" lon="2.21926">
        <ele>2574.55</ele>
        <time>2017-02-07T10:28:24Z</time>
      </trkpt>
      <trkpt lat="42.41788" lon="2.21878">
        <ele>2578.87</ele>
        <time>2017-02-07T10:29:32Z</time>
      </trkpt>
      <trkpt lat="42.41788" lon="2.21819">
        <ele>2582.72</ele>
        <time>2017-02-07T10:30:30Z</time>
      </trkpt>
      <trkpt lat="42.41786" lon="2.21744">
        <ele>2588.49</ele>
        <time>2017-02-07T10:31:58Z</time>
      </trkpt>
      <trkpt lat="42.41795" lon="2.21703">
        <ele>2594.74</ele>
        <time>2017-02-07T10:32:51Z</time>
      </trkpt>
      <trkpt lat="42.41797" lon="2.21698">
        <ele>2594.74</ele>
        <time>2017-02-07T10:32:56Z</time>
      </trkpt>
      <trkpt lat="42.41833" lon="2.21644">
        <ele>2596.18</ele>
        <time>2017-02-07T10:34:05Z</time>
      </trkpt>
      <trkpt lat="42.41853" lon="2.21594">
        <ele>2594.74</ele>
        <time>2017-02-07T10:35:32Z</time>
      </trkpt>
      <trkpt lat="42.41856" lon="2.21542">
        <ele>2599.54</ele>
        <time>2017-02-07T10:36:27Z</time>
      </trkpt>
      <trkpt lat="42.41857" lon="2.21524">
        <ele>2603.39</ele>
        <time>2017-02-07T10:36:53Z</time>
      </trkpt>
      <trkpt lat="42.41858" lon="2.21517">
        <ele>2601.95</ele>
        <time>2017-02-07T10:36:59Z</time>
      </trkpt>
      <trkpt lat="42.4186" lon="2.21467">
        <ele>2603.39</ele>
        <time>2017-02-07T10:38:25Z</time>
      </trkpt>
      <trkpt lat="42.41846" lon="2.21442">
        <ele>2607.71</ele>
        <time>2017-02-07T10:39:11Z</time>
      </trkpt>
      <trkpt lat="42.41838" lon="2.2144">
        <ele>2607.71</ele>
        <time>2017-02-07T10:39:28Z</time>
      </trkpt>
      <trkpt lat="42.41825" lon="2.2144">
        <ele>2611.08</ele>
        <time>2017-02-07T10:40:13Z</time>
      </trkpt>
      <trkpt lat="42.41818" lon="2.21436">
        <ele>2614.92</ele>
        <time>2017-02-07T10:40:52Z</time>
      </trkpt>
      <trkpt lat="42.4182" lon="2.21428">
        <ele>2618.29</ele>
        <time>2017-02-07T10:41:25Z</time>
      </trkpt>
      <trkpt lat="42.41809" lon="2.21422">
        <ele>2621.65</ele>
        <time>2017-02-07T10:42:02Z</time>
      </trkpt>
      <trkpt lat="42.41792" lon="2.21407">
        <ele>2626.94</ele>
        <time>2017-02-07T10:42:46Z</time>
      </trkpt>
      <trkpt lat="42.41784" lon="2.21381">
        <ele>2630.79</ele>
        <time>2017-02-07T10:43:29Z</time>
      </trkpt>
      <trkpt lat="42.41777" lon="2.21347">
        <ele>2634.15</ele>
        <time>2017-02-07T10:44:17Z</time>
      </trkpt>
      <trkpt lat="42.41777" lon="2.21335">
        <ele>2634.15</ele>
        <time>2017-02-07T10:44:36Z</time>
      </trkpt>
      <trkpt lat="42.41781" lon="2.21308">
        <ele>2637.51</ele>
        <time>2017-02-07T10:45:15Z</time>
      </trkpt>
      <trkpt lat="42.41787" lon="2.21272">
        <ele>2640.88</ele>
        <time>2017-02-07T10:45:57Z</time>
      </trkpt>
      <trkpt lat="42.41788" lon="2.21266">
        <ele>2640.88</ele>
        <time>2017-02-07T10:46:08Z</time>
      </trkpt>
      <trkpt lat="42.41795" lon="2.21189">
        <ele>2644.24</ele>
        <time>2017-02-07T10:47:21Z</time>
      </trkpt>
      <trkpt lat="42.41803" lon="2.21115">
        <ele>2647.61</ele>
        <time>2017-02-07T10:48:32Z</time>
      </trkpt>
      <trkpt lat="42.418" lon="2.21076">
        <ele>2651.93</ele>
        <time>2017-02-07T10:49:15Z</time>
      </trkpt>
      <trkpt lat="42.41801" lon="2.21064">
        <ele>2651.93</ele>
        <time>2017-02-07T10:49:31Z</time>
      </trkpt>
      <trkpt lat="42.41799" lon="2.21029">
        <ele>2655.3</ele>
        <time>2017-02-07T10:50:23Z</time>
      </trkpt>
      <trkpt lat="42.41802" lon="2.21011">
        <ele>2660.11</ele>
        <time>2017-02-07T10:50:57Z</time>
      </trkpt>
      <trkpt lat="42.41808" lon="2.20991">
        <ele>2665.39</ele>
        <time>2017-02-07T10:51:35Z</time>
      </trkpt>
      <trkpt lat="42.41808" lon="2.20995">
        <ele>2663.95</ele>
        <time>2017-02-07T10:51:43Z</time>
      </trkpt>
      <trkpt lat="42.41806" lon="2.20996">
        <ele>2663.47</ele>
        <time>2017-02-07T10:53:26Z</time>
      </trkpt>
      <trkpt lat="42.41808" lon="2.20994">
        <ele>2664.91</ele>
        <time>2017-02-07T10:54:43Z</time>
      </trkpt>
      <trkpt lat="42.41809" lon="2.20976">
        <ele>2668.76</ele>
        <time>2017-02-07T10:55:29Z</time>
      </trkpt>
      <trkpt lat="42.41822" lon="2.20962">
        <ele>2673.56</ele>
        <time>2017-02-07T10:56:13Z</time>
      </trkpt>
      <trkpt lat="42.41818" lon="2.20945">
        <ele>2677.89</ele>
        <time>2017-02-07T10:56:52Z</time>
      </trkpt>
      <trkpt lat="42.41827" lon="2.20941">
        <ele>2682.22</ele>
        <time>2017-02-07T10:57:14Z</time>
      </trkpt>
      <trkpt lat="42.41831" lon="2.2094">
        <ele>2681.25</ele>
        <time>2017-02-07T10:57:34Z</time>
      </trkpt>
      <trkpt lat="42.41835" lon="2.20929">
        <ele>2686.54</ele>
        <time>2017-02-07T11:04:30Z</time>
      </trkpt>
      <trkpt lat="42.41819" lon="2.20907">
        <ele>2689.91</ele>
        <time>2017-02-07T11:05:51Z</time>
      </trkpt>
      <trkpt lat="42.4181" lon="2.209">
        <ele>2693.27</ele>
        <time>2017-02-07T11:06:15Z</time>
      </trkpt>
      <trkpt lat="42.41787" lon="2.20899">
        <ele>2696.64</ele>
        <time>2017-02-07T11:07:16Z</time>
      </trkpt>
      <trkpt lat="42.41762" lon="2.20901">
        <ele>2702.4</ele>
        <time>2017-02-07T11:08:04Z</time>
      </trkpt>
      <trkpt lat="42.41723" lon="2.20905">
        <ele>2706.25</ele>
        <time>2017-02-07T11:09:40Z</time>
      </trkpt>
      <trkpt lat="42.417" lon="2.20917">
        <ele>2709.61</ele>
        <time>2017-02-07T11:10:35Z</time>
      </trkpt>
      <trkpt lat="42.41683" lon="2.20927">
        <ele>2715.86</ele>
        <time>2017-02-07T11:20:36Z</time>
      </trkpt>
      <trkpt lat="42.41682" lon="2.20928">
        <ele>2714.9</ele>
        <time>2017-02-07T11:20:40Z</time>
      </trkpt>
      <trkpt lat="42.41676" lon="2.20919">
        <ele>2718.75</ele>
        <time>2017-02-07T11:22:10Z</time>
      </trkpt>
      <trkpt lat="42.41672" lon="2.20903">
        <ele>2726.44</ele>
        <time>2017-02-07T11:23:15Z</time>
      </trkpt>
      <trkpt lat="42.41671" lon="2.20903">
        <ele>2726.44</ele>
        <time>2017-02-07T11:23:16Z</time>
      </trkpt>
      <trkpt lat="42.41661" lon="2.20906">
        <ele>2732.68</ele>
        <time>2017-02-07T11:24:29Z</time>
      </trkpt>
      <trkpt lat="42.41637" lon="2.2091">
        <ele>2739.89</ele>
        <time>2017-02-07T11:26:26Z</time>
      </trkpt>
      <trkpt lat="42.41624" lon="2.20905">
        <ele>2749.03</ele>
        <time>2017-02-07T11:27:56Z</time>
      </trkpt>
      <trkpt lat="42.41602" lon="2.2091">
        <ele>2758.16</ele>
        <time>2017-02-07T11:29:25Z</time>
      </trkpt>
      <trkpt lat="42.41591" lon="2.2092">
        <ele>2763.93</ele>
        <time>2017-02-07T11:30:08Z</time>
      </trkpt>
      <trkpt lat="42.41587" lon="2.20918">
        <ele>2768.25</ele>
        <time>2017-02-07T11:30:16Z</time>
      </trkpt>
      <trkpt lat="42.41579" lon="2.20917">
        <ele>2771.62</ele>
        <time>2017-02-07T11:30:41Z</time>
      </trkpt>
      <trkpt lat="42.41568" lon="2.20919">
        <ele>2776.42</ele>
        <time>2017-02-07T11:31:29Z</time>
      </trkpt>
      <trkpt lat="42.41564" lon="2.20917">
        <ele>2779.79</ele>
        <time>2017-02-07T11:31:41Z</time>
      </trkpt>
      <trkpt lat="42.41562" lon="2.20904">
        <ele>2779.31</ele>
        <time>2017-02-07T11:34:14Z</time>
      </trkpt>
      <trkpt lat="42.41608" lon="2.20754">
        <ele>2779.79</ele>
        <time>2017-02-07T11:37:31Z</time>
      </trkpt>
      <trkpt lat="42.41629" lon="2.2072">
        <ele>2784.12</ele>
        <time>2017-02-07T11:38:53Z</time>
      </trkpt>
      <trkpt lat="42.41645" lon="2.20698">
        <ele>2787.48</ele>
        <time>2017-02-07T11:40:09Z</time>
      </trkpt>
      <trkpt lat="42.4167" lon="2.20639">
        <ele>2794.21</ele>
        <time>2017-02-07T11:52:03Z</time>
      </trkpt>
      <trkpt lat="42.41709" lon="2.20472">
        <ele>2797.09</ele>
        <time>2017-02-07T11:54:52Z</time>
      </trkpt>
      <trkpt lat="42.41702" lon="2.20394">
        <ele>2792.29</ele>
        <time>2017-02-07T11:56:01Z</time>
      </trkpt>
      <trkpt lat="42.41687" lon="2.20352">
        <ele>2790.84</ele>
        <time>2017-02-07T11:56:40Z</time>
      </trkpt>
      <trkpt lat="42.41666" lon="2.20288">
        <ele>2793.25</ele>
        <time>2017-02-07T11:59:20Z</time>
      </trkpt>
      <trkpt lat="42.41657" lon="2.20264">
        <ele>2794.21</ele>
        <time>2017-02-07T12:00:02Z</time>
      </trkpt>
      <trkpt lat="42.41652" lon="2.20239">
        <ele>2798.05</ele>
        <time>2017-02-07T12:00:40Z</time>
      </trkpt>
      <trkpt lat="42.41644" lon="2.20203">
        <ele>2801.9</ele>
        <time>2017-02-07T12:01:42Z</time>
      </trkpt>
      <trkpt lat="42.41631" lon="2.20177">
        <ele>2806.23</ele>
        <time>2017-02-07T12:02:40Z</time>
      </trkpt>
      <trkpt lat="42.41634" lon="2.201">
        <ele>2808.15</ele>
        <time>2017-02-07T12:04:33Z</time>
      </trkpt>
      <trkpt lat="42.41645" lon="2.20071">
        <ele>2806.71</ele>
        <time>2017-02-07T12:05:11Z</time>
      </trkpt>
      <trkpt lat="42.41646" lon="2.20054">
        <ele>2804.78</ele>
        <time>2017-02-07T12:05:32Z</time>
      </trkpt>
      <trkpt lat="42.41641" lon="2.1997">
        <ele>2806.23</ele>
        <time>2017-02-07T12:07:57Z</time>
      </trkpt>
      <trkpt lat="42.41643" lon="2.19969">
        <ele>2808.15</ele>
        <time>2017-02-07T12:08:22Z</time>
      </trkpt>
      <trkpt lat="42.41655" lon="2.19953">
        <ele>2801.9</ele>
        <time>2017-02-07T12:08:43Z</time>
      </trkpt>
      <trkpt lat="42.41661" lon="2.19939">
        <ele>2797.09</ele>
        <time>2017-02-07T12:08:54Z</time>
      </trkpt>
      <trkpt lat="42.41675" lon="2.19922">
        <ele>2793.73</ele>
        <time>2017-02-07T12:09:35Z</time>
      </trkpt>
      <trkpt lat="42.41683" lon="2.19912">
        <ele>2790.36</ele>
        <time>2017-02-07T12:09:44Z</time>
      </trkpt>
      <trkpt lat="42.41692" lon="2.19893">
        <ele>2785.08</ele>
        <time>2017-02-07T12:10:01Z</time>
      </trkpt>
      <trkpt lat="42.41705" lon="2.19868">
        <ele>2779.31</ele>
        <time>2017-02-07T12:10:21Z</time>
      </trkpt>
      <trkpt lat="42.41705" lon="2.19867">
        <ele>2779.31</ele>
        <time>2017-02-07T12:10:22Z</time>
      </trkpt>
      <trkpt lat="42.41716" lon="2.19851">
        <ele>2774.98</ele>
        <time>2017-02-07T12:11:21Z</time>
      </trkpt>
      <trkpt lat="42.41728" lon="2.19843">
        <ele>2772.58</ele>
        <time>2017-02-07T12:11:38Z</time>
      </trkpt>
      <trkpt lat="42.41728" lon="2.19836">
        <ele>2768.73</ele>
        <time>2017-02-07T12:11:47Z</time>
      </trkpt>
      <trkpt lat="42.41732" lon="2.19819">
        <ele>2765.37</ele>
        <time>2017-02-07T12:11:58Z</time>
      </trkpt>
      <trkpt lat="42.41741" lon="2.19798">
        <ele>2762</ele>
        <time>2017-02-07T12:12:08Z</time>
      </trkpt>
      <trkpt lat="42.4175" lon="2.19784">
        <ele>2758.64</ele>
        <time>2017-02-07T12:12:16Z</time>
      </trkpt>
      <trkpt lat="42.41756" lon="2.19771">
        <ele>2754.8</ele>
        <time>2017-02-07T12:12:20Z</time>
      </trkpt>
      <trkpt lat="42.41768" lon="2.19743">
        <ele>2749.03</ele>
        <time>2017-02-07T12:12:28Z</time>
      </trkpt>
      <trkpt lat="42.41771" lon="2.1972">
        <ele>2746.14</ele>
        <time>2017-02-07T12:12:33Z</time>
      </trkpt>
      <trkpt lat="42.41772" lon="2.19689">
        <ele>2744.7</ele>
        <time>2017-02-07T12:13:40Z</time>
      </trkpt>
      <trkpt lat="42.41787" lon="2.19632">
        <ele>2739.89</ele>
        <time>2017-02-07T12:15:12Z</time>
      </trkpt>
      <trkpt lat="42.41787" lon="2.19631">
        <ele>2739.89</ele>
        <time>2017-02-07T12:15:13Z</time>
      </trkpt>
      <trkpt lat="42.41801" lon="2.196">
        <ele>2733.17</ele>
        <time>2017-02-07T12:15:42Z</time>
      </trkpt>
      <trkpt lat="42.41806" lon="2.1959">
        <ele>2731.24</ele>
        <time>2017-02-07T12:15:54Z</time>
      </trkpt>
      <trkpt lat="42.41814" lon="2.19556">
        <ele>2729.32</ele>
        <time>2017-02-07T12:16:21Z</time>
      </trkpt>
      <trkpt lat="42.41866" lon="2.19454">
        <ele>2729.32</ele>
        <time>2017-02-07T12:43:23Z</time>
      </trkpt>
      <trkpt lat="42.41867" lon="2.19422">
        <ele>2734.13</ele>
        <time>2017-02-07T12:44:08Z</time>
      </trkpt>
      <trkpt lat="42.41865" lon="2.19389">
        <ele>2738.45</ele>
        <time>2017-02-07T12:44:52Z</time>
      </trkpt>
      <trkpt lat="42.41863" lon="2.19372">
        <ele>2743.26</ele>
        <time>2017-02-07T12:45:30Z</time>
      </trkpt>
      <trkpt lat="42.41863" lon="2.1937">
        <ele>2742.3</ele>
        <time>2017-02-07T12:45:32Z</time>
      </trkpt>
      <trkpt lat="42.4186" lon="2.19351">
        <ele>2745.66</ele>
        <time>2017-02-07T12:46:02Z</time>
      </trkpt>
      <trkpt lat="42.41858" lon="2.1933">
        <ele>2749.51</ele>
        <time>2017-02-07T12:46:42Z</time>
      </trkpt>
      <trkpt lat="42.41857" lon="2.19317">
        <ele>2753.83</ele>
        <time>2017-02-07T12:47:06Z</time>
      </trkpt>
      <trkpt lat="42.41857" lon="2.19317">
        <ele>2753.83</ele>
        <time>2017-02-07T12:47:07Z</time>
      </trkpt>
      <trkpt lat="42.41855" lon="2.19295">
        <ele>2757.2</ele>
        <time>2017-02-07T12:47:48Z</time>
      </trkpt>
      <trkpt lat="42.41851" lon="2.19277">
        <ele>2762.49</ele>
        <time>2017-02-07T12:48:25Z</time>
      </trkpt>
      <trkpt lat="42.41855" lon="2.19254">
        <ele>2768.25</ele>
        <time>2017-02-07T12:49:22Z</time>
      </trkpt>
      <trkpt lat="42.4186" lon="2.19231">
        <ele>2773.06</ele>
        <time>2017-02-07T12:50:02Z</time>
      </trkpt>
      <trkpt lat="42.41863" lon="2.1921">
        <ele>2777.87</ele>
        <time>2017-02-07T12:50:42Z</time>
      </trkpt>
      <trkpt lat="42.41859" lon="2.19187">
        <ele>2782.19</ele>
        <time>2017-02-07T12:51:22Z</time>
      </trkpt>
      <trkpt lat="42.41853" lon="2.19163">
        <ele>2787</ele>
        <time>2017-02-07T12:52:03Z</time>
      </trkpt>
      <trkpt lat="42.41844" lon="2.19146">
        <ele>2790.36</ele>
        <time>2017-02-07T12:52:45Z</time>
      </trkpt>
      <trkpt lat="42.4183" lon="2.19122">
        <ele>2794.69</ele>
        <time>2017-02-07T12:53:24Z</time>
      </trkpt>
      <trkpt lat="42.41819" lon="2.191">
        <ele>2798.54</ele>
        <time>2017-02-07T12:54:00Z</time>
      </trkpt>
      <trkpt lat="42.41803" lon="2.19088">
        <ele>2802.38</ele>
        <time>2017-02-07T12:54:28Z</time>
      </trkpt>
      <trkpt lat="42.41777" lon="2.19084">
        <ele>2807.19</ele>
        <time>2017-02-07T12:55:08Z</time>
      </trkpt>
      <trkpt lat="42.41753" lon="2.19073">
        <ele>2812.47</ele>
        <time>2017-02-07T12:55:48Z</time>
      </trkpt>
      <trkpt lat="42.4173" lon="2.19048">
        <ele>2815.36</ele>
        <time>2017-02-07T12:58:10Z</time>
      </trkpt>
      <trkpt lat="42.4173" lon="2.19048">
        <ele>2813.92</ele>
        <time>2017-02-07T12:58:11Z</time>
      </trkpt>
      <trkpt lat="42.41731" lon="2.19017">
        <ele>2805.26</ele>
        <time>2017-02-07T13:06:03Z</time>
      </trkpt>
      <trkpt lat="42.41742" lon="2.18985">
        <ele>2803.82</ele>
        <time>2017-02-07T13:06:09Z</time>
      </trkpt>
      <trkpt lat="42.41749" lon="2.18968">
        <ele>2803.34</ele>
        <time>2017-02-07T13:07:22Z</time>
      </trkpt>
      <trkpt lat="42.41747" lon="2.18966">
        <ele>2801.42</ele>
        <time>2017-02-07T13:09:48Z</time>
      </trkpt>
      <trkpt lat="42.41735" lon="2.18972">
        <ele>2798.05</ele>
        <time>2017-02-07T13:09:55Z</time>
      </trkpt>
      <trkpt lat="42.41727" lon="2.1898">
        <ele>2795.65</ele>
        <time>2017-02-07T13:10:00Z</time>
      </trkpt>
      <trkpt lat="42.41698" lon="2.18967">
        <ele>2778.35</ele>
        <time>2017-02-07T13:10:35Z</time>
      </trkpt>
      <trkpt lat="42.41691" lon="2.18963">
        <ele>2771.62</ele>
        <time>2017-02-07T13:10:37Z</time>
      </trkpt>
      <trkpt lat="42.41686" lon="2.18958">
        <ele>2768.73</ele>
        <time>2017-02-07T13:10:56Z</time>
      </trkpt>
      <trkpt lat="42.41677" lon="2.18955">
        <ele>2765.85</ele>
        <time>2017-02-07T13:11:21Z</time>
      </trkpt>
      <trkpt lat="42.4167" lon="2.18961">
        <ele>2762</ele>
        <time>2017-02-07T13:11:24Z</time>
      </trkpt>
      <trkpt lat="42.41664" lon="2.18953">
        <ele>2753.83</ele>
        <time>2017-02-07T13:11:29Z</time>
      </trkpt>
      <trkpt lat="42.41664" lon="2.18936">
        <ele>2749.99</ele>
        <time>2017-02-07T13:11:32Z</time>
      </trkpt>
      <trkpt lat="42.41664" lon="2.18914">
        <ele>2749.51</ele>
        <time>2017-02-07T13:11:56Z</time>
      </trkpt>
      <trkpt lat="42.41651" lon="2.1891">
        <ele>2742.3</ele>
        <time>2017-02-07T13:12:02Z</time>
      </trkpt>
      <trkpt lat="42.41644" lon="2.18911">
        <ele>2739.41</ele>
        <time>2017-02-07T13:12:04Z</time>
      </trkpt>
      <trkpt lat="42.41635" lon="2.18912">
        <ele>2737.49</ele>
        <time>2017-02-07T13:12:06Z</time>
      </trkpt>
      <trkpt lat="42.41631" lon="2.18912">
        <ele>2732.68</ele>
        <time>2017-02-07T13:12:07Z</time>
      </trkpt>
      <trkpt lat="42.41618" lon="2.18918">
        <ele>2728.84</ele>
        <time>2017-02-07T13:12:10Z</time>
      </trkpt>
      <trkpt lat="42.41616" lon="2.18919">
        <ele>2724.51</ele>
        <time>2017-02-07T13:12:11Z</time>
      </trkpt>
      <trkpt lat="42.41614" lon="2.18918">
        <ele>2724.51</ele>
        <time>2017-02-07T13:12:12Z</time>
      </trkpt>
      <trkpt lat="42.41609" lon="2.18916">
        <ele>2723.07</ele>
        <time>2017-02-07T13:12:49Z</time>
      </trkpt>
      <trkpt lat="42.41597" lon="2.18919">
        <ele>2717.78</ele>
        <time>2017-02-07T13:12:54Z</time>
      </trkpt>
      <trkpt lat="42.41595" lon="2.18916">
        <ele>2716.82</ele>
        <time>2017-02-07T13:14:02Z</time>
      </trkpt>
      <trkpt lat="42.41587" lon="2.18924">
        <ele>2713.46</ele>
        <time>2017-02-07T13:14:06Z</time>
      </trkpt>
      <trkpt lat="42.41578" lon="2.18931">
        <ele>2710.09</ele>
        <time>2017-02-07T13:14:09Z</time>
      </trkpt>
      <trkpt lat="42.41558" lon="2.18939">
        <ele>2705.77</ele>
        <time>2017-02-07T13:14:14Z</time>
      </trkpt>
      <trkpt lat="42.41546" lon="2.1894">
        <ele>2701.92</ele>
        <time>2017-02-07T13:14:18Z</time>
      </trkpt>
      <trkpt lat="42.41537" lon="2.18941">
        <ele>2698.08</ele>
        <time>2017-02-07T13:14:20Z</time>
      </trkpt>
      <trkpt lat="42.41522" lon="2.18944">
        <ele>2694.71</ele>
        <time>2017-02-07T13:14:23Z</time>
      </trkpt>
      <trkpt lat="42.41503" lon="2.18947">
        <ele>2690.87</ele>
        <time>2017-02-07T13:14:28Z</time>
      </trkpt>
      <trkpt lat="42.41486" lon="2.1895">
        <ele>2688.94</ele>
        <time>2017-02-07T13:14:55Z</time>
      </trkpt>
      <trkpt lat="42.41486" lon="2.1894">
        <ele>2685.1</ele>
        <time>2017-02-07T13:14:59Z</time>
      </trkpt>
      <trkpt lat="42.41485" lon="2.18928">
        <ele>2678.85</ele>
        <time>2017-02-07T13:15:06Z</time>
      </trkpt>
      <trkpt lat="42.41484" lon="2.18917">
        <ele>2674.04</ele>
        <time>2017-02-07T13:15:09Z</time>
      </trkpt>
      <trkpt lat="42.415" lon="2.18902">
        <ele>2669.24</ele>
        <time>2017-02-07T13:15:14Z</time>
      </trkpt>
      <trkpt lat="42.41511" lon="2.18889">
        <ele>2663.95</ele>
        <time>2017-02-07T13:15:17Z</time>
      </trkpt>
      <trkpt lat="42.41526" lon="2.18866">
        <ele>2663.95</ele>
        <time>2017-02-07T13:16:08Z</time>
      </trkpt>
      <trkpt lat="42.41525" lon="2.18851">
        <ele>2658.66</ele>
        <time>2017-02-07T13:16:12Z</time>
      </trkpt>
      <trkpt lat="42.41525" lon="2.18845">
        <ele>2657.7</ele>
        <time>2017-02-07T13:16:13Z</time>
      </trkpt>
      <trkpt lat="42.41521" lon="2.18818">
        <ele>2652.42</ele>
        <time>2017-02-07T13:16:17Z</time>
      </trkpt>
      <trkpt lat="42.41517" lon="2.18797">
        <ele>2648.09</ele>
        <time>2017-02-07T13:16:20Z</time>
      </trkpt>
      <trkpt lat="42.41511" lon="2.18762">
        <ele>2642.8</ele>
        <time>2017-02-07T13:16:26Z</time>
      </trkpt>
      <trkpt lat="42.4151" lon="2.18753">
        <ele>2642.32</ele>
        <time>2017-02-07T13:16:28Z</time>
      </trkpt>
      <trkpt lat="42.41502" lon="2.1875">
        <ele>2636.07</ele>
        <time>2017-02-07T13:16:31Z</time>
      </trkpt>
      <trkpt lat="42.41496" lon="2.18748">
        <ele>2634.63</ele>
        <time>2017-02-07T13:16:33Z</time>
      </trkpt>
      <trkpt lat="42.41487" lon="2.1875">
        <ele>2629.82</ele>
        <time>2017-02-07T13:16:37Z</time>
      </trkpt>
      <trkpt lat="42.41473" lon="2.18754">
        <ele>2627.9</ele>
        <time>2017-02-07T13:16:44Z</time>
      </trkpt>
      <trkpt lat="42.41457" lon="2.18752">
        <ele>2623.09</ele>
        <time>2017-02-07T13:16:51Z</time>
      </trkpt>
      <trkpt lat="42.41445" lon="2.18738">
        <ele>2618.29</ele>
        <time>2017-02-07T13:16:58Z</time>
      </trkpt>
      <trkpt lat="42.41442" lon="2.18738">
        <ele>2617.33</ele>
        <time>2017-02-07T13:17:16Z</time>
      </trkpt>
      <trkpt lat="42.41436" lon="2.18717">
        <ele>2613.48</ele>
        <time>2017-02-07T13:17:21Z</time>
      </trkpt>
      <trkpt lat="42.4142" lon="2.18685">
        <ele>2608.67</ele>
        <time>2017-02-07T13:17:30Z</time>
      </trkpt>
      <trkpt lat="42.41416" lon="2.18672">
        <ele>2605.31</ele>
        <time>2017-02-07T13:17:33Z</time>
      </trkpt>
      <trkpt lat="42.414" lon="2.18649">
        <ele>2600.98</ele>
        <time>2017-02-07T13:17:38Z</time>
      </trkpt>
      <trkpt lat="42.41394" lon="2.18639">
        <ele>2597.62</ele>
        <time>2017-02-07T13:17:40Z</time>
      </trkpt>
      <trkpt lat="42.4139" lon="2.18617">
        <ele>2595.7</ele>
        <time>2017-02-07T13:17:43Z</time>
      </trkpt>
      <trkpt lat="42.41386" lon="2.18596">
        <ele>2592.33</ele>
        <time>2017-02-07T13:17:46Z</time>
      </trkpt>
      <trkpt lat="42.41387" lon="2.18581">
        <ele>2588.97</ele>
        <time>2017-02-07T13:17:48Z</time>
      </trkpt>
      <trkpt lat="42.41372" lon="2.18547">
        <ele>2587.53</ele>
        <time>2017-02-07T13:17:54Z</time>
      </trkpt>
      <trkpt lat="42.41374" lon="2.18548">
        <ele>2588.97</ele>
        <time>2017-02-07T13:18:39Z</time>
      </trkpt>
      <trkpt lat="42.41377" lon="2.18539">
        <ele>2584.16</ele>
        <time>2017-02-07T13:18:43Z</time>
      </trkpt>
      <trkpt lat="42.41383" lon="2.18514">
        <ele>2580.32</ele>
        <time>2017-02-07T13:18:50Z</time>
      </trkpt>
      <trkpt lat="42.41381" lon="2.18505">
        <ele>2576.95</ele>
        <time>2017-02-07T13:19:02Z</time>
      </trkpt>
      <trkpt lat="42.4138" lon="2.18504">
        <ele>2576.95</ele>
        <time>2017-02-07T13:19:15Z</time>
      </trkpt>
      <trkpt lat="42.41397" lon="2.18494">
        <ele>2572.14</ele>
        <time>2017-02-07T13:19:22Z</time>
      </trkpt>
      <trkpt lat="42.41398" lon="2.18449">
        <ele>2565.9</ele>
        <time>2017-02-07T13:19:29Z</time>
      </trkpt>
      <trkpt lat="42.41395" lon="2.18416">
        <ele>2562.53</ele>
        <time>2017-02-07T13:19:34Z</time>
      </trkpt>
      <trkpt lat="42.41392" lon="2.18396">
        <ele>2559.65</ele>
        <time>2017-02-07T13:20:09Z</time>
      </trkpt>
      <trkpt lat="42.41402" lon="2.18369">
        <ele>2556.76</ele>
        <time>2017-02-07T13:20:17Z</time>
      </trkpt>
      <trkpt lat="42.414" lon="2.18357">
        <ele>2553.4</ele>
        <time>2017-02-07T13:20:20Z</time>
      </trkpt>
      <trkpt lat="42.41398" lon="2.18351">
        <ele>2549.07</ele>
        <time>2017-02-07T13:20:21Z</time>
      </trkpt>
      <trkpt lat="42.41395" lon="2.18339">
        <ele>2548.59</ele>
        <time>2017-02-07T13:20:23Z</time>
      </trkpt>
      <trkpt lat="42.41393" lon="2.18332">
        <ele>2543.79</ele>
        <time>2017-02-07T13:20:24Z</time>
      </trkpt>
      <trkpt lat="42.41389" lon="2.18324">
        <ele>2543.79</ele>
        <time>2017-02-07T13:20:25Z</time>
      </trkpt>
      <trkpt lat="42.41386" lon="2.18316">
        <ele>2538.5</ele>
        <time>2017-02-07T13:20:26Z</time>
      </trkpt>
      <trkpt lat="42.4139" lon="2.183">
        <ele>2536.58</ele>
        <time>2017-02-07T13:20:29Z</time>
      </trkpt>
      <trkpt lat="42.41385" lon="2.18284">
        <ele>2530.81</ele>
        <time>2017-02-07T13:20:32Z</time>
      </trkpt>
      <trkpt lat="42.41385" lon="2.18279">
        <ele>2530.81</ele>
        <time>2017-02-07T13:20:33Z</time>
      </trkpt>
      <trkpt lat="42.41388" lon="2.18273">
        <ele>2529.37</ele>
        <time>2017-02-07T13:20:49Z</time>
      </trkpt>
      <trkpt lat="42.41376" lon="2.18256">
        <ele>2520.23</ele>
        <time>2017-02-07T13:20:54Z</time>
      </trkpt>
      <trkpt lat="42.41368" lon="2.18241">
        <ele>2511.58</ele>
        <time>2017-02-07T13:20:56Z</time>
      </trkpt>
      <trkpt lat="42.41363" lon="2.18225">
        <ele>2508.22</ele>
        <time>2017-02-07T13:20:58Z</time>
      </trkpt>
      <trkpt lat="42.4136" lon="2.18217">
        <ele>2501.49</ele>
        <time>2017-02-07T13:20:59Z</time>
      </trkpt>
      <trkpt lat="42.41356" lon="2.1821">
        <ele>2504.37</ele>
        <time>2017-02-07T13:21:00Z</time>
      </trkpt>
      <trkpt lat="42.41353" lon="2.18204">
        <ele>2496.68</ele>
        <time>2017-02-07T13:21:01Z</time>
      </trkpt>
      <trkpt lat="42.41346" lon="2.18188">
        <ele>2492.84</ele>
        <time>2017-02-07T13:21:05Z</time>
      </trkpt>
      <trkpt lat="42.41345" lon="2.18186">
        <ele>2492.84</ele>
        <time>2017-02-07T13:21:06Z</time>
      </trkpt>
      <trkpt lat="42.41343" lon="2.18189">
        <ele>2490.91</ele>
        <time>2017-02-07T13:21:49Z</time>
      </trkpt>
      <trkpt lat="42.41333" lon="2.18172">
        <ele>2486.11</ele>
        <time>2017-02-07T13:21:52Z</time>
      </trkpt>
      <trkpt lat="42.41328" lon="2.18155">
        <ele>2481.78</ele>
        <time>2017-02-07T13:21:54Z</time>
      </trkpt>
      <trkpt lat="42.41328" lon="2.18148">
        <ele>2483.22</ele>
        <time>2017-02-07T13:21:55Z</time>
      </trkpt>
      <trkpt lat="42.41321" lon="2.18115">
        <ele>2479.38</ele>
        <time>2017-02-07T13:22:01Z</time>
      </trkpt>
      <trkpt lat="42.41317" lon="2.18094">
        <ele>2476.01</ele>
        <time>2017-02-07T13:22:04Z</time>
      </trkpt>
      <trkpt lat="42.41316" lon="2.18079">
        <ele>2472.17</ele>
        <time>2017-02-07T13:22:06Z</time>
      </trkpt>
      <trkpt lat="42.41303" lon="2.18064">
        <ele>2466.88</ele>
        <time>2017-02-07T13:22:14Z</time>
      </trkpt>
      <trkpt lat="42.413" lon="2.18061">
        <ele>2466.88</ele>
        <time>2017-02-07T13:22:15Z</time>
      </trkpt>
      <trkpt lat="42.41286" lon="2.18057">
        <ele>2463.04</ele>
        <time>2017-02-07T13:22:19Z</time>
      </trkpt>
      <trkpt lat="42.41272" lon="2.18041">
        <ele>2458.23</ele>
        <time>2017-02-07T13:22:22Z</time>
      </trkpt>
      <trkpt lat="42.41261" lon="2.1803">
        <ele>2454.38</ele>
        <time>2017-02-07T13:22:25Z</time>
      </trkpt>
      <trkpt lat="42.41261" lon="2.18032">
        <ele>2456.31</ele>
        <time>2017-02-07T13:22:27Z</time>
      </trkpt>
      <trkpt lat="42.41244" lon="2.18024">
        <ele>2450.54</ele>
        <time>2017-02-07T13:22:44Z</time>
      </trkpt>
      <trkpt lat="42.41228" lon="2.18008">
        <ele>2446.21</ele>
        <time>2017-02-07T13:22:48Z</time>
      </trkpt>
      <trkpt lat="42.41209" lon="2.17987">
        <ele>2440.44</ele>
        <time>2017-02-07T13:22:52Z</time>
      </trkpt>
      <trkpt lat="42.41199" lon="2.17973">
        <ele>2437.08</ele>
        <time>2017-02-07T13:22:54Z</time>
      </trkpt>
      <trkpt lat="42.41193" lon="2.17965">
        <ele>2433.23</ele>
        <time>2017-02-07T13:22:55Z</time>
      </trkpt>
      <trkpt lat="42.41157" lon="2.17941">
        <ele>2427.47</ele>
        <time>2017-02-07T13:23:02Z</time>
      </trkpt>
      <trkpt lat="42.41137" lon="2.17941">
        <ele>2426.02</ele>
        <time>2017-02-07T13:23:08Z</time>
      </trkpt>
      <trkpt lat="42.41137" lon="2.17943">
        <ele>2426.5</ele>
        <time>2017-02-07T13:23:54Z</time>
      </trkpt>
      <trkpt lat="42.41136" lon="2.1793">
        <ele>2420.26</ele>
        <time>2017-02-07T13:23:57Z</time>
      </trkpt>
      <trkpt lat="42.41131" lon="2.17894">
        <ele>2414.49</ele>
        <time>2017-02-07T13:24:01Z</time>
      </trkpt>
      <trkpt lat="42.41117" lon="2.17867">
        <ele>2405.36</ele>
        <time>2017-02-07T13:24:04Z</time>
      </trkpt>
      <trkpt lat="42.41113" lon="2.17856">
        <ele>2401.51</ele>
        <time>2017-02-07T13:24:05Z</time>
      </trkpt>
      <trkpt lat="42.41112" lon="2.17845">
        <ele>2398.15</ele>
        <time>2017-02-07T13:24:06Z</time>
      </trkpt>
      <trkpt lat="42.41109" lon="2.17808">
        <ele>2396.7</ele>
        <time>2017-02-07T13:24:11Z</time>
      </trkpt>
      <trkpt lat="42.41102" lon="2.17792">
        <ele>2390.94</ele>
        <time>2017-02-07T13:24:13Z</time>
      </trkpt>
      <trkpt lat="42.41087" lon="2.17768">
        <ele>2381.8</ele>
        <time>2017-02-07T13:24:17Z</time>
      </trkpt>
      <trkpt lat="42.41077" lon="2.1775">
        <ele>2377</ele>
        <time>2017-02-07T13:24:19Z</time>
      </trkpt>
      <trkpt lat="42.4107" lon="2.17732">
        <ele>2373.15</ele>
        <time>2017-02-07T13:24:21Z</time>
      </trkpt>
      <trkpt lat="42.41065" lon="2.17706">
        <ele>2374.59</ele>
        <time>2017-02-07T13:24:32Z</time>
      </trkpt>
      <trkpt lat="42.41064" lon="2.17705">
        <ele>2374.59</ele>
        <time>2017-02-07T13:24:53Z</time>
      </trkpt>
      <trkpt lat="42.41055" lon="2.177">
        <ele>2370.75</ele>
        <time>2017-02-07T13:24:57Z</time>
      </trkpt>
      <trkpt lat="42.4105" lon="2.17696">
        <ele>2367.38</ele>
        <time>2017-02-07T13:24:58Z</time>
      </trkpt>
      <trkpt lat="42.41047" lon="2.17675">
        <ele>2364.02</ele>
        <time>2017-02-07T13:25:01Z</time>
      </trkpt>
      <trkpt lat="42.41033" lon="2.17639">
        <ele>2359.69</ele>
        <time>2017-02-07T13:25:07Z</time>
      </trkpt>
      <trkpt lat="42.41026" lon="2.17627">
        <ele>2355.37</ele>
        <time>2017-02-07T13:25:09Z</time>
      </trkpt>
      <trkpt lat="42.41008" lon="2.17598">
        <ele>2350.08</ele>
        <time>2017-02-07T13:25:13Z</time>
      </trkpt>
      <trkpt lat="42.41002" lon="2.17593">
        <ele>2345.27</ele>
        <time>2017-02-07T13:25:14Z</time>
      </trkpt>
      <trkpt lat="42.40997" lon="2.17588">
        <ele>2345.27</ele>
        <time>2017-02-07T13:25:15Z</time>
      </trkpt>
      <trkpt lat="42.40987" lon="2.17577">
        <ele>2341.43</ele>
        <time>2017-02-07T13:25:17Z</time>
      </trkpt>
      <trkpt lat="42.4097" lon="2.17548">
        <ele>2336.14</ele>
        <time>2017-02-07T13:25:21Z</time>
      </trkpt>
      <trkpt lat="42.40965" lon="2.1754">
        <ele>2336.14</ele>
        <time>2017-02-07T13:25:22Z</time>
      </trkpt>
      <trkpt lat="42.40949" lon="2.17518">
        <ele>2332.3</ele>
        <time>2017-02-07T13:25:25Z</time>
      </trkpt>
      <trkpt lat="42.40944" lon="2.1751">
        <ele>2326.53</ele>
        <time>2017-02-07T13:25:26Z</time>
      </trkpt>
      <trkpt lat="42.40929" lon="2.17494">
        <ele>2323.16</ele>
        <time>2017-02-07T13:25:29Z</time>
      </trkpt>
      <trkpt lat="42.40914" lon="2.17473">
        <ele>2316.43</ele>
        <time>2017-02-07T13:25:32Z</time>
      </trkpt>
      <trkpt lat="42.4091" lon="2.17463">
        <ele>2316.43</ele>
        <time>2017-02-07T13:25:33Z</time>
      </trkpt>
      <trkpt lat="42.40896" lon="2.17454">
        <ele>2316.43</ele>
        <time>2017-02-07T13:26:01Z</time>
      </trkpt>
      <trkpt lat="42.40892" lon="2.17441">
        <ele>2312.59</ele>
        <time>2017-02-07T13:26:05Z</time>
      </trkpt>
      <trkpt lat="42.40888" lon="2.17437">
        <ele>2312.59</ele>
        <time>2017-02-07T13:26:06Z</time>
      </trkpt>
      <trkpt lat="42.40883" lon="2.17433">
        <ele>2310.67</ele>
        <time>2017-02-07T13:26:07Z</time>
      </trkpt>
      <trkpt lat="42.40858" lon="2.17418">
        <ele>2303.94</ele>
        <time>2017-02-07T13:26:11Z</time>
      </trkpt>
      <trkpt lat="42.4085" lon="2.174">
        <ele>2299.61</ele>
        <time>2017-02-07T13:26:18Z</time>
      </trkpt>
      <trkpt lat="42.40843" lon="2.17386">
        <ele>2295.28</ele>
        <time>2017-02-07T13:26:21Z</time>
      </trkpt>
      <trkpt lat="42.40844" lon="2.17379">
        <ele>2295.28</ele>
        <time>2017-02-07T13:26:22Z</time>
      </trkpt>
      <trkpt lat="42.40846" lon="2.17373">
        <ele>2294.8</ele>
        <time>2017-02-07T13:26:41Z</time>
      </trkpt>
      <trkpt lat="42.40839" lon="2.17366">
        <ele>2290.96</ele>
        <time>2017-02-07T13:26:46Z</time>
      </trkpt>
      <trkpt lat="42.40816" lon="2.17355">
        <ele>2285.19</ele>
        <time>2017-02-07T13:26:51Z</time>
      </trkpt>
      <trkpt lat="42.40798" lon="2.17327">
        <ele>2274.62</ele>
        <time>2017-02-07T13:26:55Z</time>
      </trkpt>
      <trkpt lat="42.40796" lon="2.17314">
        <ele>2269.33</ele>
        <time>2017-02-07T13:26:56Z</time>
      </trkpt>
      <trkpt lat="42.40786" lon="2.17293">
        <ele>2265.48</ele>
        <time>2017-02-07T13:26:58Z</time>
      </trkpt>
      <trkpt lat="42.40759" lon="2.17274">
        <ele>2261.16</ele>
        <time>2017-02-07T13:27:02Z</time>
      </trkpt>
      <trkpt lat="42.40752" lon="2.17267">
        <ele>2256.83</ele>
        <time>2017-02-07T13:27:03Z</time>
      </trkpt>
      <trkpt lat="42.40738" lon="2.17236">
        <ele>2251.06</ele>
        <time>2017-02-07T13:27:06Z</time>
      </trkpt>
      <trkpt lat="42.40714" lon="2.17204">
        <ele>2245.3</ele>
        <time>2017-02-07T13:27:10Z</time>
      </trkpt>
      <trkpt lat="42.40707" lon="2.17194">
        <ele>2243.37</ele>
        <time>2017-02-07T13:27:11Z</time>
      </trkpt>
      <trkpt lat="42.40685" lon="2.17162">
        <ele>2239.05</ele>
        <time>2017-02-07T13:27:15Z</time>
      </trkpt>
      <trkpt lat="42.40667" lon="2.17118">
        <ele>2230.88</ele>
        <time>2017-02-07T13:27:20Z</time>
      </trkpt>
      <trkpt lat="42.40634" lon="2.17086">
        <ele>2222.71</ele>
        <time>2017-02-07T13:27:25Z</time>
      </trkpt>
      <trkpt lat="42.406" lon="2.17039">
        <ele>2222.71</ele>
        <time>2017-02-07T13:28:03Z</time>
      </trkpt>
      <trkpt lat="42.40596" lon="2.17023">
        <ele>2216.94</ele>
        <time>2017-02-07T13:28:08Z</time>
      </trkpt>
      <trkpt lat="42.40598" lon="2.17006">
        <ele>2213.09</ele>
        <time>2017-02-07T13:28:10Z</time>
      </trkpt>
      <trkpt lat="42.40593" lon="2.16977">
        <ele>2206.36</ele>
        <time>2017-02-07T13:28:13Z</time>
      </trkpt>
      <trkpt lat="42.4059" lon="2.16969">
        <ele>2207.81</ele>
        <time>2017-02-07T13:28:14Z</time>
      </trkpt>
      <trkpt lat="42.40582" lon="2.16954">
        <ele>2203.48</ele>
        <time>2017-02-07T13:28:16Z</time>
      </trkpt>
      <trkpt lat="42.40578" lon="2.16934">
        <ele>2200.11</ele>
        <time>2017-02-07T13:28:18Z</time>
      </trkpt>
      <trkpt lat="42.40569" lon="2.16917">
        <ele>2196.75</ele>
        <time>2017-02-07T13:28:20Z</time>
      </trkpt>
      <trkpt lat="42.40563" lon="2.1691">
        <ele>2197.23</ele>
        <time>2017-02-07T13:28:54Z</time>
      </trkpt>
      <trkpt lat="42.40564" lon="2.16909">
        <ele>2197.23</ele>
        <time>2017-02-07T13:28:56Z</time>
      </trkpt>
      <trkpt lat="42.40569" lon="2.16886">
        <ele>2192.42</ele>
        <time>2017-02-07T13:29:02Z</time>
      </trkpt>
      <trkpt lat="42.4057" lon="2.16853">
        <ele>2188.58</ele>
        <time>2017-02-07T13:29:06Z</time>
      </trkpt>
      <trkpt lat="42.40568" lon="2.16823">
        <ele>2184.25</ele>
        <time>2017-02-07T13:29:09Z</time>
      </trkpt>
      <trkpt lat="42.40564" lon="2.16784">
        <ele>2178</ele>
        <time>2017-02-07T13:29:12Z</time>
      </trkpt>
      <trkpt lat="42.4057" lon="2.16749">
        <ele>2173.2</ele>
        <time>2017-02-07T13:29:15Z</time>
      </trkpt>
      <trkpt lat="42.40574" lon="2.16734">
        <ele>2176.56</ele>
        <time>2017-02-07T13:29:17Z</time>
      </trkpt>
      <trkpt lat="42.40559" lon="2.16715">
        <ele>2168.87</ele>
        <time>2017-02-07T13:29:21Z</time>
      </trkpt>
      <trkpt lat="42.40542" lon="2.16698">
        <ele>2165.03</ele>
        <time>2017-02-07T13:29:24Z</time>
      </trkpt>
      <trkpt lat="42.40539" lon="2.16689">
        <ele>2161.66</ele>
        <time>2017-02-07T13:29:25Z</time>
      </trkpt>
      <trkpt lat="42.40537" lon="2.1668">
        <ele>2161.66</ele>
        <time>2017-02-07T13:29:26Z</time>
      </trkpt>
      <trkpt lat="42.40529" lon="2.16667">
        <ele>2158.3</ele>
        <time>2017-02-07T13:29:28Z</time>
      </trkpt>
      <trkpt lat="42.40527" lon="2.1666">
        <ele>2159.74</ele>
        <time>2017-02-07T13:29:29Z</time>
      </trkpt>
      <trkpt lat="42.40531" lon="2.16641">
        <ele>2156.37</ele>
        <time>2017-02-07T13:29:32Z</time>
      </trkpt>
      <trkpt lat="42.40534" lon="2.16631">
        <ele>2156.86</ele>
        <time>2017-02-07T13:29:56Z</time>
      </trkpt>
      <trkpt lat="42.40538" lon="2.16565">
        <ele>2148.68</ele>
        <time>2017-02-07T13:30:04Z</time>
      </trkpt>
      <trkpt lat="42.40518" lon="2.16514">
        <ele>2141.47</ele>
        <time>2017-02-07T13:30:15Z</time>
      </trkpt>
      <trkpt lat="42.40501" lon="2.16515">
        <ele>2137.63</ele>
        <time>2017-02-07T13:30:18Z</time>
      </trkpt>
      <trkpt lat="42.40484" lon="2.16521">
        <ele>2139.55</ele>
        <time>2017-02-07T13:30:22Z</time>
      </trkpt>
      <trkpt lat="42.40435" lon="2.16494">
        <ele>2135.23</ele>
        <time>2017-02-07T13:30:41Z</time>
      </trkpt>
      <trkpt lat="42.40414" lon="2.16485">
        <ele>2133.78</ele>
        <time>2017-02-07T13:30:57Z</time>
      </trkpt>
      <trkpt lat="42.40403" lon="2.16474">
        <ele>2130.42</ele>
        <time>2017-02-07T13:31:20Z</time>
      </trkpt>
      <trkpt lat="42.40391" lon="2.16461">
        <ele>2127.05</ele>
        <time>2017-02-07T13:31:23Z</time>
      </trkpt>
      <trkpt lat="42.40374" lon="2.16447">
        <ele>2120.81</ele>
        <time>2017-02-07T13:31:26Z</time>
      </trkpt>
      <trkpt lat="42.40359" lon="2.16434">
        <ele>2117.44</ele>
        <time>2017-02-07T13:31:28Z</time>
      </trkpt>
      <trkpt lat="42.40342" lon="2.16423">
        <ele>2113.6</ele>
        <time>2017-02-07T13:31:30Z</time>
      </trkpt>
      <trkpt lat="42.40333" lon="2.16417">
        <ele>2112.63</ele>
        <time>2017-02-07T13:31:31Z</time>
      </trkpt>
      <trkpt lat="42.40243" lon="2.16329">
        <ele>2107.35</ele>
        <time>2017-02-07T13:31:50Z</time>
      </trkpt>
      <trkpt lat="42.40228" lon="2.1631">
        <ele>2103.02</ele>
        <time>2017-02-07T13:31:54Z</time>
      </trkpt>
      <trkpt lat="42.40217" lon="2.16292">
        <ele>2098.21</ele>
        <time>2017-02-07T13:31:57Z</time>
      </trkpt>
      <trkpt lat="42.40202" lon="2.16266">
        <ele>2096.77</ele>
        <time>2017-02-07T13:32:01Z</time>
      </trkpt>
      <trkpt lat="42.40189" lon="2.16238">
        <ele>2093.89</ele>
        <time>2017-02-07T13:32:05Z</time>
      </trkpt>
      <trkpt lat="42.40173" lon="2.16227">
        <ele>2092.45</ele>
        <time>2017-02-07T13:32:18Z</time>
      </trkpt>
      <trkpt lat="42.40159" lon="2.16214">
        <ele>2088.6</ele>
        <time>2017-02-07T13:32:48Z</time>
      </trkpt>
      <trkpt lat="42.40127" lon="2.16193">
        <ele>2082.83</ele>
        <time>2017-02-07T13:32:55Z</time>
      </trkpt>
      <trkpt lat="42.40123" lon="2.16191">
        <ele>2082.83</ele>
        <time>2017-02-07T13:32:56Z</time>
      </trkpt>
      <trkpt lat="42.40121" lon="2.16174">
        <ele>2078.99</ele>
        <time>2017-02-07T13:33:00Z</time>
      </trkpt>
      <trkpt lat="42.40117" lon="2.1616">
        <ele>2074.18</ele>
        <time>2017-02-07T13:33:02Z</time>
      </trkpt>
      <trkpt lat="42.40108" lon="2.16142">
        <ele>2070.34</ele>
        <time>2017-02-07T13:33:05Z</time>
      </trkpt>
      <trkpt lat="42.40093" lon="2.16117">
        <ele>2064.09</ele>
        <time>2017-02-07T13:33:09Z</time>
      </trkpt>
      <trkpt lat="42.40089" lon="2.16114">
        <ele>2064.09</ele>
        <time>2017-02-07T13:33:10Z</time>
      </trkpt>
      <trkpt lat="42.40054" lon="2.16074">
        <ele>2054.47</ele>
        <time>2017-02-07T13:33:19Z</time>
      </trkpt>
      <trkpt lat="42.40021" lon="2.16033">
        <ele>2051.11</ele>
        <time>2017-02-07T13:33:45Z</time>
      </trkpt>
      <trkpt lat="42.40014" lon="2.16021">
        <ele>2049.67</ele>
        <time>2017-02-07T13:33:47Z</time>
      </trkpt>
      <trkpt lat="42.40001" lon="2.15981">
        <ele>2046.78</ele>
        <time>2017-02-07T13:33:53Z</time>
      </trkpt>
      <trkpt lat="42.39989" lon="2.1594">
        <ele>2041.98</ele>
        <time>2017-02-07T13:33:59Z</time>
      </trkpt>
      <trkpt lat="42.39966" lon="2.15881">
        <ele>2038.13</ele>
        <time>2017-02-07T13:34:10Z</time>
      </trkpt>
      <trkpt lat="42.3995" lon="2.15854">
        <ele>2034.29</ele>
        <time>2017-02-07T13:34:17Z</time>
      </trkpt>
      <trkpt lat="42.3993" lon="2.15821">
        <ele>2028.52</ele>
        <time>2017-02-07T13:34:22Z</time>
      </trkpt>
      <trkpt lat="42.39921" lon="2.15807">
        <ele>2024.67</ele>
        <time>2017-02-07T13:34:24Z</time>
      </trkpt>
      <trkpt lat="42.39895" lon="2.15776">
        <ele>2023.71</ele>
        <time>2017-02-07T13:34:53Z</time>
      </trkpt>
      <trkpt lat="42.39888" lon="2.15759">
        <ele>2020.35</ele>
        <time>2017-02-07T13:34:57Z</time>
      </trkpt>
      <trkpt lat="42.39886" lon="2.15754">
        <ele>2020.35</ele>
        <time>2017-02-07T13:34:58Z</time>
      </trkpt>
      <trkpt lat="42.39874" lon="2.15714">
        <ele>2015.06</ele>
        <time>2017-02-07T13:35:05Z</time>
      </trkpt>
      <trkpt lat="42.39868" lon="2.15699">
        <ele>2010.25</ele>
        <time>2017-02-07T13:35:07Z</time>
      </trkpt>
      <trkpt lat="42.39847" lon="2.15676">
        <ele>2008.81</ele>
        <time>2017-02-07T13:35:12Z</time>
      </trkpt>
      <trkpt lat="42.39841" lon="2.15672">
        <ele>2009.29</ele>
        <time>2017-02-07T13:35:38Z</time>
      </trkpt>
      <trkpt lat="42.39834" lon="2.1566">
        <ele>2005.93</ele>
        <time>2017-02-07T13:35:42Z</time>
      </trkpt>
      <trkpt lat="42.39837" lon="2.15638">
        <ele>2001.12</ele>
        <time>2017-02-07T13:35:45Z</time>
      </trkpt>
      <trkpt lat="42.39842" lon="2.15619">
        <ele>1996.32</ele>
        <time>2017-02-07T13:35:47Z</time>
      </trkpt>
      <trkpt lat="42.39838" lon="2.1561">
        <ele>1991.99</ele>
        <time>2017-02-07T13:35:48Z</time>
      </trkpt>
      <trkpt lat="42.39828" lon="2.15591">
        <ele>1988.14</ele>
        <time>2017-02-07T13:35:50Z</time>
      </trkpt>
      <trkpt lat="42.39822" lon="2.15584">
        <ele>1988.14</ele>
        <time>2017-02-07T13:35:51Z</time>
      </trkpt>
      <trkpt lat="42.3979" lon="2.15581">
        <ele>1989.1</ele>
        <time>2017-02-07T13:36:18Z</time>
      </trkpt>
      <trkpt lat="42.39789" lon="2.15561">
        <ele>1985.74</ele>
        <time>2017-02-07T13:36:23Z</time>
      </trkpt>
      <trkpt lat="42.39787" lon="2.15541">
        <ele>1983.82</ele>
        <time>2017-02-07T13:36:26Z</time>
      </trkpt>
      <trkpt lat="42.39779" lon="2.15526">
        <ele>1980.45</ele>
        <time>2017-02-07T13:36:29Z</time>
      </trkpt>
      <trkpt lat="42.3977" lon="2.15508">
        <ele>1976.61</ele>
        <time>2017-02-07T13:36:32Z</time>
      </trkpt>
      <trkpt lat="42.39766" lon="2.15504">
        <ele>1976.61</ele>
        <time>2017-02-07T13:36:33Z</time>
      </trkpt>
      <trkpt lat="42.39734" lon="2.15511">
        <ele>1978.53</ele>
        <time>2017-02-07T13:37:22Z</time>
      </trkpt>
      <trkpt lat="42.39736" lon="2.15517">
        <ele>1979.49</ele>
        <time>2017-02-07T13:39:13Z</time>
      </trkpt>
      <trkpt lat="42.39734" lon="2.15513">
        <ele>1976.13</ele>
        <time>2017-02-07T13:39:50Z</time>
      </trkpt>
      <trkpt lat="42.39735" lon="2.1551">
        <ele>1976.13</ele>
        <time>2017-02-07T13:40:20Z</time>
      </trkpt>
      <trkpt lat="42.39735" lon="2.1551">
        <ele>1977.57</ele>
        <time>2017-02-07T13:50:00Z</time>
      </trkpt>
      <trkpt lat="42.39732" lon="2.15517">
        <ele>1977.09</ele>
        <time>2017-02-07T13:51:55Z</time>
      </trkpt>
      <trkpt lat="42.39715" lon="2.15528">
        <ele>1980.45</ele>
        <time>2017-02-07T13:52:53Z</time>
      </trkpt>
      <trkpt lat="42.39713" lon="2.15535">
        <ele>1980.45</ele>
        <time>2017-02-07T13:53:06Z</time>
      </trkpt>
      <trkpt lat="42.39676" lon="2.15555">
        <ele>1984.3</ele>
        <time>2017-02-07T13:54:17Z</time>
      </trkpt>
      <trkpt lat="42.39659" lon="2.15556">
        <ele>1985.74</ele>
        <time>2017-02-07T13:54:43Z</time>
      </trkpt>
      <trkpt lat="42.39625" lon="2.15558">
        <ele>1990.07</ele>
        <time>2017-02-07T13:55:26Z</time>
      </trkpt>
      <trkpt lat="42.39591" lon="2.15559">
        <ele>1994.39</ele>
        <time>2017-02-07T13:56:12Z</time>
      </trkpt>
      <trkpt lat="42.39561" lon="2.15559">
        <ele>1998.24</ele>
        <time>2017-02-07T13:56:54Z</time>
      </trkpt>
      <trkpt lat="42.39522" lon="2.15561">
        <ele>2001.6</ele>
        <time>2017-02-07T13:57:39Z</time>
      </trkpt>
      <trkpt lat="42.39477" lon="2.15552">
        <ele>2004.97</ele>
        <time>2017-02-07T13:58:32Z</time>
      </trkpt>
      <trkpt lat="42.39458" lon="2.15546">
        <ele>2005.93</ele>
        <time>2017-02-07T13:58:55Z</time>
      </trkpt>
      <trkpt lat="42.39411" lon="2.15525">
        <ele>2010.73</ele>
        <time>2017-02-07T13:59:54Z</time>
      </trkpt>
      <trkpt lat="42.39393" lon="2.15531">
        <ele>2014.58</ele>
        <time>2017-02-07T14:00:26Z</time>
      </trkpt>
      <trkpt lat="42.39376" lon="2.15541">
        <ele>2020.35</ele>
        <time>2017-02-07T14:01:07Z</time>
      </trkpt>
      <trkpt lat="42.3936" lon="2.15558">
        <ele>2025.64</ele>
        <time>2017-02-07T14:01:47Z</time>
      </trkpt>
      <trkpt lat="42.39344" lon="2.15578">
        <ele>2031.4</ele>
        <time>2017-02-07T14:02:24Z</time>
      </trkpt>
      <trkpt lat="42.39339" lon="2.15585">
        <ele>2034.77</ele>
        <time>2017-02-07T14:02:42Z</time>
      </trkpt>
      <trkpt lat="42.39328" lon="2.15603">
        <ele>2040.05</ele>
        <time>2017-02-07T14:03:23Z</time>
      </trkpt>
      <trkpt lat="42.39319" lon="2.15621">
        <ele>2045.34</ele>
        <time>2017-02-07T14:04:01Z</time>
      </trkpt>
      <trkpt lat="42.39315" lon="2.1563">
        <ele>2048.71</ele>
        <time>2017-02-07T14:04:19Z</time>
      </trkpt>
      <trkpt lat="42.39311" lon="2.1564">
        <ele>2052.07</ele>
        <time>2017-02-07T14:04:33Z</time>
      </trkpt>
      <trkpt lat="42.39305" lon="2.15651">
        <ele>2055.44</ele>
        <time>2017-02-07T14:05:11Z</time>
      </trkpt>
      <trkpt lat="42.393" lon="2.15672">
        <ele>2060.24</ele>
        <time>2017-02-07T14:05:49Z</time>
      </trkpt>
      <trkpt lat="42.393" lon="2.15705">
        <ele>2064.57</ele>
        <time>2017-02-07T14:06:28Z</time>
      </trkpt>
      <trkpt lat="42.39287" lon="2.15738">
        <ele>2068.89</ele>
        <time>2017-02-07T14:07:07Z</time>
      </trkpt>
      <trkpt lat="42.39271" lon="2.15768">
        <ele>2074.66</ele>
        <time>2017-02-07T14:07:50Z</time>
      </trkpt>
      <trkpt lat="42.39281" lon="2.15783">
        <ele>2078.03</ele>
        <time>2017-02-07T14:08:20Z</time>
      </trkpt>
      <trkpt lat="42.39279" lon="2.15801">
        <ele>2082.35</ele>
        <time>2017-02-07T14:08:56Z</time>
      </trkpt>
      <trkpt lat="42.39266" lon="2.15822">
        <ele>2087.16</ele>
        <time>2017-02-07T14:09:32Z</time>
      </trkpt>
      <trkpt lat="42.39255" lon="2.15834">
        <ele>2092.45</ele>
        <time>2017-02-07T14:10:12Z</time>
      </trkpt>
      <trkpt lat="42.39255" lon="2.15845">
        <ele>2095.81</ele>
        <time>2017-02-07T14:10:32Z</time>
      </trkpt>
      <trkpt lat="42.39257" lon="2.15868">
        <ele>2100.14</ele>
        <time>2017-02-07T14:11:06Z</time>
      </trkpt>
      <trkpt lat="42.39247" lon="2.1589">
        <ele>2103.98</ele>
        <time>2017-02-07T14:11:39Z</time>
      </trkpt>
      <trkpt lat="42.39246" lon="2.15899">
        <ele>2107.35</ele>
        <time>2017-02-07T14:12:00Z</time>
      </trkpt>
      <trkpt lat="42.39241" lon="2.15928">
        <ele>2113.12</ele>
        <time>2017-02-07T14:12:40Z</time>
      </trkpt>
      <trkpt lat="42.39233" lon="2.15949">
        <ele>2119.36</ele>
        <time>2017-02-07T14:13:14Z</time>
      </trkpt>
      <trkpt lat="42.3923" lon="2.1596">
        <ele>2122.73</ele>
        <time>2017-02-07T14:13:31Z</time>
      </trkpt>
      <trkpt lat="42.39221" lon="2.15967">
        <ele>2126.57</ele>
        <time>2017-02-07T14:14:17Z</time>
      </trkpt>
      <trkpt lat="42.39214" lon="2.15966">
        <ele>2126.57</ele>
        <time>2017-02-07T14:14:40Z</time>
      </trkpt>
      <trkpt lat="42.3921" lon="2.15942">
        <ele>2127.53</ele>
        <time>2017-02-07T14:15:45Z</time>
      </trkpt>
    </trkseg>
  </trk>
  <trk>
    <name><![CDATA[TPS1 09 FEB 2016 AM]]></name>
    <trkseg>
      <trkpt lat="42.39204" lon="2.15955">
        <ele>2105.91</ele>
        <time>2017-02-09T05:58:06Z</time>
      </trkpt>
      <trkpt lat="42.39234" lon="2.15972">
        <ele>2100.62</ele>
        <time>2017-02-09T06:00:17Z</time>
      </trkpt>
      <trkpt lat="42.39247" lon="2.15957">
        <ele>2096.29</ele>
        <time>2017-02-09T06:02:04Z</time>
      </trkpt>
      <trkpt lat="42.39254" lon="2.15914">
        <ele>2088.6</ele>
        <time>2017-02-09T06:02:16Z</time>
      </trkpt>
      <trkpt lat="42.39266" lon="2.1587">
        <ele>2076.59</ele>
        <time>2017-02-09T06:02:27Z</time>
      </trkpt>
      <trkpt lat="42.39274" lon="2.15839">
        <ele>2069.86</ele>
        <time>2017-02-09T06:02:48Z</time>
      </trkpt>
      <trkpt lat="42.39293" lon="2.15768">
        <ele>2047.75</ele>
        <time>2017-02-09T06:02:59Z</time>
      </trkpt>
      <trkpt lat="42.39303" lon="2.15725">
        <ele>2042.46</ele>
        <time>2017-02-09T06:03:05Z</time>
      </trkpt>
      <trkpt lat="42.39313" lon="2.15695">
        <ele>2037.17</ele>
        <time>2017-02-09T06:03:09Z</time>
      </trkpt>
      <trkpt lat="42.39338" lon="2.15643">
        <ele>2016.98</ele>
        <time>2017-02-09T06:03:18Z</time>
      </trkpt>
      <trkpt lat="42.39343" lon="2.15632">
        <ele>2019.87</ele>
        <time>2017-02-09T06:03:20Z</time>
      </trkpt>
      <trkpt lat="42.39356" lon="2.15605">
        <ele>1998.72</ele>
        <time>2017-02-09T06:03:24Z</time>
      </trkpt>
      <trkpt lat="42.3941" lon="2.15552">
        <ele>1981.41</ele>
        <time>2017-02-09T06:03:35Z</time>
      </trkpt>
      <trkpt lat="42.39446" lon="2.15551">
        <ele>1976.13</ele>
        <time>2017-02-09T06:03:42Z</time>
      </trkpt>
      <trkpt lat="42.39467" lon="2.15559">
        <ele>1972.76</ele>
        <time>2017-02-09T06:03:46Z</time>
      </trkpt>
      <trkpt lat="42.39491" lon="2.15563">
        <ele>1969.4</ele>
        <time>2017-02-09T06:03:52Z</time>
      </trkpt>
      <trkpt lat="42.39495" lon="2.15563">
        <ele>1969.4</ele>
        <time>2017-02-09T06:03:53Z</time>
      </trkpt>
      <trkpt lat="42.39552" lon="2.15563">
        <ele>1966.03</ele>
        <time>2017-02-09T06:04:06Z</time>
      </trkpt>
      <trkpt lat="42.3959" lon="2.15564">
        <ele>1958.82</ele>
        <time>2017-02-09T06:04:13Z</time>
      </trkpt>
      <trkpt lat="42.39602" lon="2.15565">
        <ele>1955.94</ele>
        <time>2017-02-09T06:04:15Z</time>
      </trkpt>
      <trkpt lat="42.39619" lon="2.15562">
        <ele>1957.86</ele>
        <time>2017-02-09T06:04:18Z</time>
      </trkpt>
      <trkpt lat="42.39679" lon="2.15557">
        <ele>1951.61</ele>
        <time>2017-02-09T06:04:30Z</time>
      </trkpt>
      <trkpt lat="42.39687" lon="2.15557">
        <ele>1951.61</ele>
        <time>2017-02-09T06:04:32Z</time>
      </trkpt>
      <trkpt lat="42.39716" lon="2.15543">
        <ele>1946.81</ele>
        <time>2017-02-09T06:04:38Z</time>
      </trkpt>
      <trkpt lat="42.39798" lon="2.15508">
        <ele>1945.36</ele>
        <time>2017-02-09T06:05:03Z</time>
      </trkpt>
      <trkpt lat="42.398" lon="2.15417">
        <ele>1940.08</ele>
        <time>2017-02-09T06:05:43Z</time>
      </trkpt>
      <trkpt lat="42.39781" lon="2.15377">
        <ele>1940.56</ele>
        <time>2017-02-09T06:05:54Z</time>
      </trkpt>
      <trkpt lat="42.39787" lon="2.1537">
        <ele>1945.36</ele>
        <time>2017-02-09T06:10:24Z</time>
      </trkpt>
      <trkpt lat="42.39787" lon="2.15369">
        <ele>1949.69</ele>
        <time>2017-02-09T06:12:12Z</time>
      </trkpt>
      <trkpt lat="42.39755" lon="2.15268">
        <ele>1953.06</ele>
        <time>2017-02-09T06:16:43Z</time>
      </trkpt>
      <trkpt lat="42.39797" lon="2.15248">
        <ele>1956.9</ele>
        <time>2017-02-09T06:17:34Z</time>
      </trkpt>
      <trkpt lat="42.39815" lon="2.15218">
        <ele>1961.71</ele>
        <time>2017-02-09T06:18:12Z</time>
      </trkpt>
      <trkpt lat="42.39835" lon="2.15159">
        <ele>1966.51</ele>
        <time>2017-02-09T06:19:15Z</time>
      </trkpt>
      <trkpt lat="42.39853" lon="2.15097">
        <ele>1970.36</ele>
        <time>2017-02-09T06:20:17Z</time>
      </trkpt>
      <trkpt lat="42.39865" lon="2.15061">
        <ele>1973.72</ele>
        <time>2017-02-09T06:20:57Z</time>
      </trkpt>
      <trkpt lat="42.39866" lon="2.15059">
        <ele>1973.72</ele>
        <time>2017-02-09T06:20:59Z</time>
      </trkpt>
      <trkpt lat="42.39871" lon="2.15045">
        <ele>1978.05</ele>
        <time>2017-02-09T06:21:13Z</time>
      </trkpt>
      <trkpt lat="42.39909" lon="2.14917">
        <ele>1982.86</ele>
        <time>2017-02-09T06:23:15Z</time>
      </trkpt>
      <trkpt lat="42.39932" lon="2.14873">
        <ele>1987.66</ele>
        <time>2017-02-09T06:24:07Z</time>
      </trkpt>
      <trkpt lat="42.39932" lon="2.14872">
        <ele>1987.66</ele>
        <time>2017-02-09T06:24:08Z</time>
      </trkpt>
      <trkpt lat="42.39959" lon="2.14801">
        <ele>1991.03</ele>
        <time>2017-02-09T06:25:26Z</time>
      </trkpt>
      <trkpt lat="42.39973" lon="2.14757">
        <ele>1995.83</ele>
        <time>2017-02-09T06:26:26Z</time>
      </trkpt>
      <trkpt lat="42.39981" lon="2.1475">
        <ele>1999.2</ele>
        <time>2017-02-09T06:26:44Z</time>
      </trkpt>
      <trkpt lat="42.39998" lon="2.14732">
        <ele>2004.49</ele>
        <time>2017-02-09T06:27:27Z</time>
      </trkpt>
      <trkpt lat="42.40015" lon="2.14714">
        <ele>2009.29</ele>
        <time>2017-02-09T06:28:08Z</time>
      </trkpt>
      <trkpt lat="42.40022" lon="2.14697">
        <ele>2014.58</ele>
        <time>2017-02-09T06:28:49Z</time>
      </trkpt>
      <trkpt lat="42.40032" lon="2.14675">
        <ele>2019.87</ele>
        <time>2017-02-09T06:29:25Z</time>
      </trkpt>
      <trkpt lat="42.40036" lon="2.14666">
        <ele>2023.71</ele>
        <time>2017-02-09T06:30:00Z</time>
      </trkpt>
      <trkpt lat="42.4004" lon="2.14666">
        <ele>2027.08</ele>
        <time>2017-02-09T06:33:27Z</time>
      </trkpt>
      <trkpt lat="42.40046" lon="2.14637">
        <ele>2030.92</ele>
        <time>2017-02-09T06:34:43Z</time>
      </trkpt>
      <trkpt lat="42.40051" lon="2.14628">
        <ele>2034.29</ele>
        <time>2017-02-09T06:35:04Z</time>
      </trkpt>
      <trkpt lat="42.40042" lon="2.14612">
        <ele>2040.05</ele>
        <time>2017-02-09T06:35:45Z</time>
      </trkpt>
      <trkpt lat="42.40051" lon="2.14591">
        <ele>2045.34</ele>
        <time>2017-02-09T06:36:34Z</time>
      </trkpt>
      <trkpt lat="42.40067" lon="2.14565">
        <ele>2048.71</ele>
        <time>2017-02-09T06:37:47Z</time>
      </trkpt>
      <trkpt lat="42.4008" lon="2.14557">
        <ele>2052.55</ele>
        <time>2017-02-09T06:38:28Z</time>
      </trkpt>
      <trkpt lat="42.40082" lon="2.14547">
        <ele>2058.32</ele>
        <time>2017-02-09T06:38:58Z</time>
      </trkpt>
      <trkpt lat="42.40097" lon="2.14536">
        <ele>2062.17</ele>
        <time>2017-02-09T06:39:36Z</time>
      </trkpt>
      <trkpt lat="42.4015" lon="2.14462">
        <ele>2065.53</ele>
        <time>2017-02-09T06:42:02Z</time>
      </trkpt>
      <trkpt lat="42.40163" lon="2.14451">
        <ele>2069.86</ele>
        <time>2017-02-09T06:42:43Z</time>
      </trkpt>
      <trkpt lat="42.40176" lon="2.14441">
        <ele>2074.66</ele>
        <time>2017-02-09T06:43:12Z</time>
      </trkpt>
      <trkpt lat="42.40176" lon="2.14441">
        <ele>2074.66</ele>
        <time>2017-02-09T06:43:13Z</time>
      </trkpt>
      <trkpt lat="42.40179" lon="2.14429">
        <ele>2078.03</ele>
        <time>2017-02-09T06:43:44Z</time>
      </trkpt>
      <trkpt lat="42.40179" lon="2.14415">
        <ele>2081.87</ele>
        <time>2017-02-09T06:44:23Z</time>
      </trkpt>
      <trkpt lat="42.40181" lon="2.14404">
        <ele>2087.16</ele>
        <time>2017-02-09T06:44:46Z</time>
      </trkpt>
      <trkpt lat="42.40173" lon="2.14395">
        <ele>2092.93</ele>
        <time>2017-02-09T06:45:16Z</time>
      </trkpt>
      <trkpt lat="42.40172" lon="2.14395">
        <ele>2092.93</ele>
        <time>2017-02-09T06:45:17Z</time>
      </trkpt>
      <trkpt lat="42.40158" lon="2.14362">
        <ele>2098.7</ele>
        <time>2017-02-09T06:46:24Z</time>
      </trkpt>
      <trkpt lat="42.40153" lon="2.14351">
        <ele>2098.7</ele>
        <time>2017-02-09T06:46:45Z</time>
      </trkpt>
      <trkpt lat="42.40146" lon="2.14331">
        <ele>2105.42</ele>
        <time>2017-02-09T06:47:25Z</time>
      </trkpt>
      <trkpt lat="42.40144" lon="2.14326">
        <ele>2103.98</ele>
        <time>2017-02-09T06:47:33Z</time>
      </trkpt>
      <trkpt lat="42.40138" lon="2.14312">
        <ele>2107.35</ele>
        <time>2017-02-09T06:47:55Z</time>
      </trkpt>
      <trkpt lat="42.40129" lon="2.1429">
        <ele>2110.71</ele>
        <time>2017-02-09T06:48:32Z</time>
      </trkpt>
      <trkpt lat="42.40117" lon="2.14268">
        <ele>2116.48</ele>
        <time>2017-02-09T06:49:11Z</time>
      </trkpt>
      <trkpt lat="42.40108" lon="2.14257">
        <ele>2119.84</ele>
        <time>2017-02-09T06:49:35Z</time>
      </trkpt>
      <trkpt lat="42.40092" lon="2.14231">
        <ele>2123.21</ele>
        <time>2017-02-09T06:50:34Z</time>
      </trkpt>
      <trkpt lat="42.40078" lon="2.14206">
        <ele>2127.05</ele>
        <time>2017-02-09T06:51:13Z</time>
      </trkpt>
      <trkpt lat="42.40077" lon="2.14202">
        <ele>2125.13</ele>
        <time>2017-02-09T06:51:18Z</time>
      </trkpt>
      <trkpt lat="42.40072" lon="2.1419">
        <ele>2129.46</ele>
        <time>2017-02-09T06:51:35Z</time>
      </trkpt>
      <trkpt lat="42.40068" lon="2.14183">
        <ele>2126.09</ele>
        <time>2017-02-09T06:51:46Z</time>
      </trkpt>
      <trkpt lat="42.40063" lon="2.14175">
        <ele>2129.94</ele>
        <time>2017-02-09T06:52:01Z</time>
      </trkpt>
      <trkpt lat="42.40045" lon="2.14153">
        <ele>2135.23</ele>
        <time>2017-02-09T06:52:41Z</time>
      </trkpt>
      <trkpt lat="42.40035" lon="2.14139">
        <ele>2138.59</ele>
        <time>2017-02-09T06:53:05Z</time>
      </trkpt>
      <trkpt lat="42.40021" lon="2.14116">
        <ele>2142.92</ele>
        <time>2017-02-09T06:53:38Z</time>
      </trkpt>
      <trkpt lat="42.4002" lon="2.14116">
        <ele>2142.92</ele>
        <time>2017-02-09T06:53:54Z</time>
      </trkpt>
      <trkpt lat="42.39979" lon="2.14079">
        <ele>2148.2</ele>
        <time>2017-02-09T06:55:32Z</time>
      </trkpt>
      <trkpt lat="42.39971" lon="2.14072">
        <ele>2151.57</ele>
        <time>2017-02-09T06:55:52Z</time>
      </trkpt>
      <trkpt lat="42.39956" lon="2.14062">
        <ele>2156.37</ele>
        <time>2017-02-09T06:56:38Z</time>
      </trkpt>
      <trkpt lat="42.39943" lon="2.14052">
        <ele>2161.18</ele>
        <time>2017-02-09T06:57:15Z</time>
      </trkpt>
      <trkpt lat="42.39928" lon="2.14043">
        <ele>2165.51</ele>
        <time>2017-02-09T06:57:54Z</time>
      </trkpt>
      <trkpt lat="42.3991" lon="2.14036">
        <ele>2168.87</ele>
        <time>2017-02-09T06:58:31Z</time>
      </trkpt>
      <trkpt lat="42.39904" lon="2.14033">
        <ele>2172.24</ele>
        <time>2017-02-09T06:58:45Z</time>
      </trkpt>
      <trkpt lat="42.39887" lon="2.14018">
        <ele>2176.08</ele>
        <time>2017-02-09T06:59:30Z</time>
      </trkpt>
      <trkpt lat="42.39879" lon="2.14002">
        <ele>2180.89</ele>
        <time>2017-02-09T07:00:20Z</time>
      </trkpt>
      <trkpt lat="42.39868" lon="2.13996">
        <ele>2184.25</ele>
        <time>2017-02-09T07:00:45Z</time>
      </trkpt>
      <trkpt lat="42.39863" lon="2.13983">
        <ele>2188.1</ele>
        <time>2017-02-09T07:01:09Z</time>
      </trkpt>
      <trkpt lat="42.39864" lon="2.13982">
        <ele>2188.1</ele>
        <time>2017-02-09T07:01:10Z</time>
      </trkpt>
      <trkpt lat="42.39845" lon="2.13963">
        <ele>2193.39</ele>
        <time>2017-02-09T07:02:19Z</time>
      </trkpt>
      <trkpt lat="42.39842" lon="2.13955">
        <ele>2196.75</ele>
        <time>2017-02-09T07:02:34Z</time>
      </trkpt>
      <trkpt lat="42.39839" lon="2.13948">
        <ele>2200.11</ele>
        <time>2017-02-09T07:02:51Z</time>
      </trkpt>
      <trkpt lat="42.39829" lon="2.13933">
        <ele>2203.96</ele>
        <time>2017-02-09T07:03:27Z</time>
      </trkpt>
      <trkpt lat="42.39821" lon="2.13911">
        <ele>2207.81</ele>
        <time>2017-02-09T07:04:02Z</time>
      </trkpt>
      <trkpt lat="42.39815" lon="2.13892">
        <ele>2211.17</ele>
        <time>2017-02-09T07:04:38Z</time>
      </trkpt>
      <trkpt lat="42.39812" lon="2.13884">
        <ele>2215.01</ele>
        <time>2017-02-09T07:04:51Z</time>
      </trkpt>
      <trkpt lat="42.39792" lon="2.13844">
        <ele>2222.71</ele>
        <time>2017-02-09T07:06:07Z</time>
      </trkpt>
      <trkpt lat="42.39791" lon="2.13841">
        <ele>2220.3</ele>
        <time>2017-02-09T07:06:11Z</time>
      </trkpt>
      <trkpt lat="42.39775" lon="2.13815">
        <ele>2226.55</ele>
        <time>2017-02-09T07:07:02Z</time>
      </trkpt>
      <trkpt lat="42.39771" lon="2.13799">
        <ele>2230.88</ele>
        <time>2017-02-09T07:07:26Z</time>
      </trkpt>
      <trkpt lat="42.3977" lon="2.13797">
        <ele>2230.88</ele>
        <time>2017-02-09T07:07:27Z</time>
      </trkpt>
      <trkpt lat="42.39768" lon="2.13774">
        <ele>2234.24</ele>
        <time>2017-02-09T07:07:57Z</time>
      </trkpt>
      <trkpt lat="42.39767" lon="2.13735">
        <ele>2241.45</ele>
        <time>2017-02-09T07:08:59Z</time>
      </trkpt>
      <trkpt lat="42.39763" lon="2.13712">
        <ele>2246.74</ele>
        <time>2017-02-09T07:09:41Z</time>
      </trkpt>
      <trkpt lat="42.39761" lon="2.13698">
        <ele>2252.03</ele>
        <time>2017-02-09T07:10:17Z</time>
      </trkpt>
      <trkpt lat="42.39757" lon="2.13686">
        <ele>2255.39</ele>
        <time>2017-02-09T07:10:41Z</time>
      </trkpt>
      <trkpt lat="42.39751" lon="2.13662">
        <ele>2260.2</ele>
        <time>2017-02-09T07:11:25Z</time>
      </trkpt>
      <trkpt lat="42.39748" lon="2.13654">
        <ele>2265.48</ele>
        <time>2017-02-09T07:11:47Z</time>
      </trkpt>
      <trkpt lat="42.39745" lon="2.13642">
        <ele>2265.48</ele>
        <time>2017-02-09T07:12:03Z</time>
      </trkpt>
      <trkpt lat="42.39743" lon="2.1363">
        <ele>2268.85</ele>
        <time>2017-02-09T07:12:23Z</time>
      </trkpt>
      <trkpt lat="42.39734" lon="2.13616">
        <ele>2273.66</ele>
        <time>2017-02-09T07:13:06Z</time>
      </trkpt>
      <trkpt lat="42.39732" lon="2.13589">
        <ele>2272.69</ele>
        <time>2017-02-09T07:13:31Z</time>
      </trkpt>
      <trkpt lat="42.39732" lon="2.13558">
        <ele>2276.06</ele>
        <time>2017-02-09T07:14:08Z</time>
      </trkpt>
      <trkpt lat="42.39729" lon="2.13542">
        <ele>2279.42</ele>
        <time>2017-02-09T07:14:28Z</time>
      </trkpt>
      <trkpt lat="42.39728" lon="2.13522">
        <ele>2283.75</ele>
        <time>2017-02-09T07:14:57Z</time>
      </trkpt>
      <trkpt lat="42.39727" lon="2.13513">
        <ele>2283.27</ele>
        <time>2017-02-09T07:15:18Z</time>
      </trkpt>
      <trkpt lat="42.39728" lon="2.13497">
        <ele>2289.04</ele>
        <time>2017-02-09T07:15:43Z</time>
      </trkpt>
      <trkpt lat="42.3973" lon="2.13486">
        <ele>2289.04</ele>
        <time>2017-02-09T07:16:00Z</time>
      </trkpt>
      <trkpt lat="42.39731" lon="2.13481">
        <ele>2292.4</ele>
        <time>2017-02-09T07:16:09Z</time>
      </trkpt>
      <trkpt lat="42.39727" lon="2.13461">
        <ele>2297.21</ele>
        <time>2017-02-09T07:16:41Z</time>
      </trkpt>
      <trkpt lat="42.39715" lon="2.13452">
        <ele>2301.05</ele>
        <time>2017-02-09T07:17:13Z</time>
      </trkpt>
      <trkpt lat="42.39712" lon="2.13444">
        <ele>2306.82</ele>
        <time>2017-02-09T07:17:42Z</time>
      </trkpt>
      <trkpt lat="42.39714" lon="2.1342">
        <ele>2313.07</ele>
        <time>2017-02-09T07:18:22Z</time>
      </trkpt>
      <trkpt lat="42.39704" lon="2.13387">
        <ele>2319.32</ele>
        <time>2017-02-09T07:19:12Z</time>
      </trkpt>
      <trkpt lat="42.39694" lon="2.13367">
        <ele>2322.68</ele>
        <time>2017-02-09T07:19:50Z</time>
      </trkpt>
      <trkpt lat="42.39681" lon="2.13353">
        <ele>2327.49</ele>
        <time>2017-02-09T07:20:22Z</time>
      </trkpt>
      <trkpt lat="42.39667" lon="2.13345">
        <ele>2333.26</ele>
        <time>2017-02-09T07:20:50Z</time>
      </trkpt>
      <trkpt lat="42.39649" lon="2.13331">
        <ele>2338.54</ele>
        <time>2017-02-09T07:21:45Z</time>
      </trkpt>
      <trkpt lat="42.39629" lon="2.13323">
        <ele>2342.39</ele>
        <time>2017-02-09T07:22:23Z</time>
      </trkpt>
      <trkpt lat="42.39625" lon="2.1332">
        <ele>2347.68</ele>
        <time>2017-02-09T07:22:33Z</time>
      </trkpt>
      <trkpt lat="42.39619" lon="2.13315">
        <ele>2347.2</ele>
        <time>2017-02-09T07:22:49Z</time>
      </trkpt>
      <trkpt lat="42.39603" lon="2.13303">
        <ele>2352</ele>
        <time>2017-02-09T07:23:29Z</time>
      </trkpt>
      <trkpt lat="42.39596" lon="2.13297">
        <ele>2355.37</ele>
        <time>2017-02-09T07:23:45Z</time>
      </trkpt>
      <trkpt lat="42.39582" lon="2.13289">
        <ele>2358.73</ele>
        <time>2017-02-09T07:24:21Z</time>
      </trkpt>
      <trkpt lat="42.39508" lon="2.13242">
        <ele>2362.1</ele>
        <time>2017-02-09T07:27:13Z</time>
      </trkpt>
      <trkpt lat="42.39491" lon="2.1323">
        <ele>2367.38</ele>
        <time>2017-02-09T07:27:52Z</time>
      </trkpt>
      <trkpt lat="42.39471" lon="2.13228">
        <ele>2372.67</ele>
        <time>2017-02-09T07:28:37Z</time>
      </trkpt>
      <trkpt lat="42.39451" lon="2.13222">
        <ele>2376.52</ele>
        <time>2017-02-09T07:29:17Z</time>
      </trkpt>
      <trkpt lat="42.39425" lon="2.13211">
        <ele>2382.28</ele>
        <time>2017-02-09T07:30:05Z</time>
      </trkpt>
      <trkpt lat="42.39407" lon="2.13199">
        <ele>2387.57</ele>
        <time>2017-02-09T07:30:46Z</time>
      </trkpt>
      <trkpt lat="42.3939" lon="2.13179">
        <ele>2391.42</ele>
        <time>2017-02-09T07:31:25Z</time>
      </trkpt>
      <trkpt lat="42.3937" lon="2.13156">
        <ele>2396.22</ele>
        <time>2017-02-09T07:32:10Z</time>
      </trkpt>
      <trkpt lat="42.39356" lon="2.13134">
        <ele>2400.55</ele>
        <time>2017-02-09T07:32:47Z</time>
      </trkpt>
      <trkpt lat="42.39353" lon="2.13129">
        <ele>2403.91</ele>
        <time>2017-02-09T07:32:57Z</time>
      </trkpt>
      <trkpt lat="42.39333" lon="2.13116">
        <ele>2409.2</ele>
        <time>2017-02-09T07:33:38Z</time>
      </trkpt>
      <trkpt lat="42.39325" lon="2.13113">
        <ele>2413.05</ele>
        <time>2017-02-09T07:33:54Z</time>
      </trkpt>
      <trkpt lat="42.39301" lon="2.13106">
        <ele>2416.41</ele>
        <time>2017-02-09T07:34:36Z</time>
      </trkpt>
      <trkpt lat="42.39282" lon="2.13095">
        <ele>2421.22</ele>
        <time>2017-02-09T07:35:15Z</time>
      </trkpt>
      <trkpt lat="42.3926" lon="2.13076">
        <ele>2426.5</ele>
        <time>2017-02-09T07:36:00Z</time>
      </trkpt>
      <trkpt lat="42.39245" lon="2.13057">
        <ele>2433.23</ele>
        <time>2017-02-09T07:36:35Z</time>
      </trkpt>
      <trkpt lat="42.39243" lon="2.13054">
        <ele>2431.79</ele>
        <time>2017-02-09T07:36:44Z</time>
      </trkpt>
      <trkpt lat="42.39231" lon="2.13015">
        <ele>2436.12</ele>
        <time>2017-02-09T07:37:29Z</time>
      </trkpt>
      <trkpt lat="42.39221" lon="2.12981">
        <ele>2440.44</ele>
        <time>2017-02-09T07:38:10Z</time>
      </trkpt>
      <trkpt lat="42.39216" lon="2.1297">
        <ele>2443.81</ele>
        <time>2017-02-09T07:38:25Z</time>
      </trkpt>
      <trkpt lat="42.39208" lon="2.12948">
        <ele>2448.62</ele>
        <time>2017-02-09T07:39:01Z</time>
      </trkpt>
      <trkpt lat="42.39208" lon="2.12947">
        <ele>2448.62</ele>
        <time>2017-02-09T07:39:02Z</time>
      </trkpt>
      <trkpt lat="42.39204" lon="2.12924">
        <ele>2451.98</ele>
        <time>2017-02-09T07:39:36Z</time>
      </trkpt>
      <trkpt lat="42.39197" lon="2.12895">
        <ele>2456.31</ele>
        <time>2017-02-09T07:40:15Z</time>
      </trkpt>
      <trkpt lat="42.39189" lon="2.12867">
        <ele>2459.67</ele>
        <time>2017-02-09T07:40:51Z</time>
      </trkpt>
      <trkpt lat="42.39179" lon="2.12843">
        <ele>2464.48</ele>
        <time>2017-02-09T07:41:30Z</time>
      </trkpt>
      <trkpt lat="42.39167" lon="2.1282">
        <ele>2469.28</ele>
        <time>2017-02-09T07:42:09Z</time>
      </trkpt>
      <trkpt lat="42.3916" lon="2.12804">
        <ele>2472.65</ele>
        <time>2017-02-09T07:42:43Z</time>
      </trkpt>
      <trkpt lat="42.39147" lon="2.12785">
        <ele>2478.9</ele>
        <time>2017-02-09T07:43:21Z</time>
      </trkpt>
      <trkpt lat="42.39139" lon="2.12764">
        <ele>2483.22</ele>
        <time>2017-02-09T07:43:51Z</time>
      </trkpt>
      <trkpt lat="42.39127" lon="2.12723">
        <ele>2488.51</ele>
        <time>2017-02-09T07:44:51Z</time>
      </trkpt>
      <trkpt lat="42.39119" lon="2.12697">
        <ele>2493.8</ele>
        <time>2017-02-09T07:45:29Z</time>
      </trkpt>
      <trkpt lat="42.39112" lon="2.12673">
        <ele>2498.6</ele>
        <time>2017-02-09T07:46:04Z</time>
      </trkpt>
      <trkpt lat="42.39103" lon="2.12647">
        <ele>2502.93</ele>
        <time>2017-02-09T07:46:46Z</time>
      </trkpt>
      <trkpt lat="42.39096" lon="2.12626">
        <ele>2508.22</ele>
        <time>2017-02-09T07:47:20Z</time>
      </trkpt>
      <trkpt lat="42.39085" lon="2.12604">
        <ele>2513.5</ele>
        <time>2017-02-09T07:48:00Z</time>
      </trkpt>
      <trkpt lat="42.3908" lon="2.12577">
        <ele>2519.27</ele>
        <time>2017-02-09T07:48:39Z</time>
      </trkpt>
      <trkpt lat="42.39095" lon="2.12557">
        <ele>2523.12</ele>
        <time>2017-02-09T07:49:39Z</time>
      </trkpt>
      <trkpt lat="42.39104" lon="2.12533">
        <ele>2528.4</ele>
        <time>2017-02-09T07:50:16Z</time>
      </trkpt>
      <trkpt lat="42.39111" lon="2.12502">
        <ele>2534.17</ele>
        <time>2017-02-09T07:50:54Z</time>
      </trkpt>
      <trkpt lat="42.39121" lon="2.12461">
        <ele>2538.5</ele>
        <time>2017-02-09T07:51:47Z</time>
      </trkpt>
      <trkpt lat="42.39127" lon="2.12429">
        <ele>2542.34</ele>
        <time>2017-02-09T07:52:23Z</time>
      </trkpt>
      <trkpt lat="42.39135" lon="2.12399">
        <ele>2547.15</ele>
        <time>2017-02-09T07:52:59Z</time>
      </trkpt>
      <trkpt lat="42.39137" lon="2.12375">
        <ele>2551</ele>
        <time>2017-02-09T07:53:24Z</time>
      </trkpt>
      <trkpt lat="42.39138" lon="2.1233">
        <ele>2558.21</ele>
        <time>2017-02-09T07:54:19Z</time>
      </trkpt>
      <trkpt lat="42.39135" lon="2.12298">
        <ele>2563.01</ele>
        <time>2017-02-09T07:55:14Z</time>
      </trkpt>
      <trkpt lat="42.39131" lon="2.12271">
        <ele>2567.82</ele>
        <time>2017-02-09T07:55:53Z</time>
      </trkpt>
      <trkpt lat="42.39124" lon="2.12242">
        <ele>2573.11</ele>
        <time>2017-02-09T07:56:38Z</time>
      </trkpt>
      <trkpt lat="42.39117" lon="2.12217">
        <ele>2577.91</ele>
        <time>2017-02-09T07:57:13Z</time>
      </trkpt>
      <trkpt lat="42.39114" lon="2.1219">
        <ele>2582.72</ele>
        <time>2017-02-09T07:57:50Z</time>
      </trkpt>
      <trkpt lat="42.39117" lon="2.12187">
        <ele>2579.84</ele>
        <time>2017-02-09T08:02:09Z</time>
      </trkpt>
      <trkpt lat="42.39118" lon="2.12165">
        <ele>2583.68</ele>
        <time>2017-02-09T08:06:27Z</time>
      </trkpt>
      <trkpt lat="42.39118" lon="2.12151">
        <ele>2587.53</ele>
        <time>2017-02-09T08:07:10Z</time>
      </trkpt>
      <trkpt lat="42.3912" lon="2.1214">
        <ele>2587.53</ele>
        <time>2017-02-09T08:07:24Z</time>
      </trkpt>
      <trkpt lat="42.3912" lon="2.12097">
        <ele>2592.33</ele>
        <time>2017-02-09T08:08:19Z</time>
      </trkpt>
      <trkpt lat="42.39115" lon="2.12068">
        <ele>2596.18</ele>
        <time>2017-02-09T08:08:54Z</time>
      </trkpt>
      <trkpt lat="42.39106" lon="2.12045">
        <ele>2599.54</ele>
        <time>2017-02-09T08:09:33Z</time>
      </trkpt>
      <trkpt lat="42.39092" lon="2.12028">
        <ele>2604.35</ele>
        <time>2017-02-09T08:10:10Z</time>
      </trkpt>
      <trkpt lat="42.39082" lon="2.12014">
        <ele>2608.19</ele>
        <time>2017-02-09T08:10:47Z</time>
      </trkpt>
      <trkpt lat="42.39081" lon="2.12014">
        <ele>2608.19</ele>
        <time>2017-02-09T08:11:00Z</time>
      </trkpt>
      <trkpt lat="42.39063" lon="2.11998">
        <ele>2613</ele>
        <time>2017-02-09T08:12:24Z</time>
      </trkpt>
      <trkpt lat="42.39044" lon="2.11993">
        <ele>2616.85</ele>
        <time>2017-02-09T08:12:54Z</time>
      </trkpt>
      <trkpt lat="42.39026" lon="2.1199">
        <ele>2623.09</ele>
        <time>2017-02-09T08:13:33Z</time>
      </trkpt>
      <trkpt lat="42.39012" lon="2.11992">
        <ele>2627.42</ele>
        <time>2017-02-09T08:14:08Z</time>
      </trkpt>
      <trkpt lat="42.38997" lon="2.11992">
        <ele>2632.23</ele>
        <time>2017-02-09T08:14:40Z</time>
      </trkpt>
      <trkpt lat="42.3895" lon="2.11971">
        <ele>2635.59</ele>
        <time>2017-02-09T08:16:51Z</time>
      </trkpt>
      <trkpt lat="42.38957" lon="2.11937">
        <ele>2638.96</ele>
        <time>2017-02-09T08:17:27Z</time>
      </trkpt>
      <trkpt lat="42.38955" lon="2.11907">
        <ele>2642.8</ele>
        <time>2017-02-09T08:18:05Z</time>
      </trkpt>
      <trkpt lat="42.38956" lon="2.1189">
        <ele>2642.8</ele>
        <time>2017-02-09T08:18:22Z</time>
      </trkpt>
      <trkpt lat="42.38948" lon="2.1184">
        <ele>2646.65</ele>
        <time>2017-02-09T08:19:24Z</time>
      </trkpt>
      <trkpt lat="42.38936" lon="2.11804">
        <ele>2650.01</ele>
        <time>2017-02-09T08:20:20Z</time>
      </trkpt>
      <trkpt lat="42.38916" lon="2.11814">
        <ele>2654.34</ele>
        <time>2017-02-09T08:20:59Z</time>
      </trkpt>
      <trkpt lat="42.38909" lon="2.11815">
        <ele>2657.7</ele>
        <time>2017-02-09T08:21:19Z</time>
      </trkpt>
      <trkpt lat="42.38899" lon="2.1182">
        <ele>2663.47</ele>
        <time>2017-02-09T08:21:57Z</time>
      </trkpt>
      <trkpt lat="42.38881" lon="2.11807">
        <ele>2668.76</ele>
        <time>2017-02-09T08:22:35Z</time>
      </trkpt>
      <trkpt lat="42.38877" lon="2.11785">
        <ele>2675.49</ele>
        <time>2017-02-09T08:23:11Z</time>
      </trkpt>
      <trkpt lat="42.38873" lon="2.11788">
        <ele>2675.01</ele>
        <time>2017-02-09T08:23:23Z</time>
      </trkpt>
      <trkpt lat="42.3886" lon="2.11787">
        <ele>2681.25</ele>
        <time>2017-02-09T08:23:56Z</time>
      </trkpt>
      <trkpt lat="42.38843" lon="2.11773">
        <ele>2686.54</ele>
        <time>2017-02-09T08:24:31Z</time>
      </trkpt>
      <trkpt lat="42.38835" lon="2.11764">
        <ele>2690.39</ele>
        <time>2017-02-09T08:24:49Z</time>
      </trkpt>
      <trkpt lat="42.38819" lon="2.11744">
        <ele>2695.67</ele>
        <time>2017-02-09T08:25:31Z</time>
      </trkpt>
      <trkpt lat="42.38814" lon="2.11728">
        <ele>2701.44</ele>
        <time>2017-02-09T08:26:00Z</time>
      </trkpt>
      <trkpt lat="42.38802" lon="2.11706">
        <ele>2704.81</ele>
        <time>2017-02-09T08:26:34Z</time>
      </trkpt>
      <trkpt lat="42.38791" lon="2.11682">
        <ele>2710.57</ele>
        <time>2017-02-09T08:27:18Z</time>
      </trkpt>
      <trkpt lat="42.38788" lon="2.11682">
        <ele>2713.94</ele>
        <time>2017-02-09T08:27:32Z</time>
      </trkpt>
      <trkpt lat="42.38779" lon="2.11706">
        <ele>2717.78</ele>
        <time>2017-02-09T08:28:07Z</time>
      </trkpt>
      <trkpt lat="42.38779" lon="2.11711">
        <ele>2721.15</ele>
        <time>2017-02-09T08:28:14Z</time>
      </trkpt>
      <trkpt lat="42.38775" lon="2.11724">
        <ele>2724.99</ele>
        <time>2017-02-09T08:28:32Z</time>
      </trkpt>
      <trkpt lat="42.38757" lon="2.11712">
        <ele>2729.8</ele>
        <time>2017-02-09T08:29:11Z</time>
      </trkpt>
      <trkpt lat="42.3875" lon="2.11708">
        <ele>2733.17</ele>
        <time>2017-02-09T08:29:29Z</time>
      </trkpt>
      <trkpt lat="42.38746" lon="2.11703">
        <ele>2736.53</ele>
        <time>2017-02-09T08:29:45Z</time>
      </trkpt>
      <trkpt lat="42.3874" lon="2.11692">
        <ele>2740.38</ele>
        <time>2017-02-09T08:30:14Z</time>
      </trkpt>
      <trkpt lat="42.3873" lon="2.11693">
        <ele>2744.7</ele>
        <time>2017-02-09T08:30:48Z</time>
      </trkpt>
      <trkpt lat="42.38723" lon="2.11687">
        <ele>2749.03</ele>
        <time>2017-02-09T08:31:28Z</time>
      </trkpt>
      <trkpt lat="42.38722" lon="2.11668">
        <ele>2752.87</ele>
        <time>2017-02-09T08:32:01Z</time>
      </trkpt>
      <trkpt lat="42.3872" lon="2.11648">
        <ele>2758.16</ele>
        <time>2017-02-09T08:32:39Z</time>
      </trkpt>
      <trkpt lat="42.38714" lon="2.11651">
        <ele>2762.49</ele>
        <time>2017-02-09T08:33:18Z</time>
      </trkpt>
      <trkpt lat="42.38703" lon="2.11664">
        <ele>2768.73</ele>
        <time>2017-02-09T08:33:54Z</time>
      </trkpt>
      <trkpt lat="42.387" lon="2.11664">
        <ele>2768.73</ele>
        <time>2017-02-09T08:34:13Z</time>
      </trkpt>
      <trkpt lat="42.38699" lon="2.1165">
        <ele>2773.06</ele>
        <time>2017-02-09T08:34:33Z</time>
      </trkpt>
      <trkpt lat="42.38692" lon="2.11651">
        <ele>2777.87</ele>
        <time>2017-02-09T08:35:13Z</time>
      </trkpt>
      <trkpt lat="42.38682" lon="2.1166">
        <ele>2782.19</ele>
        <time>2017-02-09T08:35:47Z</time>
      </trkpt>
      <trkpt lat="42.38682" lon="2.11642">
        <ele>2786.52</ele>
        <time>2017-02-09T08:36:17Z</time>
      </trkpt>
      <trkpt lat="42.38683" lon="2.11619">
        <ele>2790.84</ele>
        <time>2017-02-09T08:36:50Z</time>
      </trkpt>
      <trkpt lat="42.38667" lon="2.11629">
        <ele>2795.17</ele>
        <time>2017-02-09T08:37:30Z</time>
      </trkpt>
      <trkpt lat="42.38654" lon="2.11635">
        <ele>2800.94</ele>
        <time>2017-02-09T08:38:01Z</time>
      </trkpt>
      <trkpt lat="42.38654" lon="2.11635">
        <ele>2800.94</ele>
        <time>2017-02-09T08:38:02Z</time>
      </trkpt>
      <trkpt lat="42.38634" lon="2.11632">
        <ele>2806.71</ele>
        <time>2017-02-09T08:40:17Z</time>
      </trkpt>
      <trkpt lat="42.38611" lon="2.11646">
        <ele>2813.92</ele>
        <time>2017-02-09T08:41:43Z</time>
      </trkpt>
      <trkpt lat="42.38608" lon="2.11628">
        <ele>2819.2</ele>
        <time>2017-02-09T08:42:21Z</time>
      </trkpt>
      <trkpt lat="42.38608" lon="2.11628">
        <ele>2819.2</ele>
        <time>2017-02-09T08:42:22Z</time>
      </trkpt>
      <trkpt lat="42.38589" lon="2.1164">
        <ele>2824.49</ele>
        <time>2017-02-09T08:43:44Z</time>
      </trkpt>
      <trkpt lat="42.38577" lon="2.11632">
        <ele>2830.26</ele>
        <time>2017-02-09T08:44:12Z</time>
      </trkpt>
      <trkpt lat="42.38573" lon="2.11623">
        <ele>2830.26</ele>
        <time>2017-02-09T08:44:32Z</time>
      </trkpt>
      <trkpt lat="42.3857" lon="2.11619">
        <ele>2833.62</ele>
        <time>2017-02-09T08:44:47Z</time>
      </trkpt>
      <trkpt lat="42.38566" lon="2.11618">
        <ele>2833.62</ele>
        <time>2017-02-09T08:44:55Z</time>
      </trkpt>
      <trkpt lat="42.38551" lon="2.11607">
        <ele>2836.99</ele>
        <time>2017-02-09T08:45:35Z</time>
      </trkpt>
      <trkpt lat="42.38535" lon="2.11589">
        <ele>2842.28</ele>
        <time>2017-02-09T08:46:20Z</time>
      </trkpt>
      <trkpt lat="42.38528" lon="2.11589">
        <ele>2846.6</ele>
        <time>2017-02-09T08:46:35Z</time>
      </trkpt>
      <trkpt lat="42.38522" lon="2.11594">
        <ele>2850.93</ele>
        <time>2017-02-09T08:46:51Z</time>
      </trkpt>
      <trkpt lat="42.38511" lon="2.11595">
        <ele>2855.73</ele>
        <time>2017-02-09T08:47:24Z</time>
      </trkpt>
      <trkpt lat="42.38499" lon="2.11586">
        <ele>2860.54</ele>
        <time>2017-02-09T08:47:54Z</time>
      </trkpt>
      <trkpt lat="42.38487" lon="2.11576">
        <ele>2865.35</ele>
        <time>2017-02-09T08:48:24Z</time>
      </trkpt>
      <trkpt lat="42.38471" lon="2.11575">
        <ele>2868.71</ele>
        <time>2017-02-09T08:48:56Z</time>
      </trkpt>
      <trkpt lat="42.38471" lon="2.11575">
        <ele>2868.71</ele>
        <time>2017-02-09T08:48:57Z</time>
      </trkpt>
      <trkpt lat="42.38457" lon="2.11579">
        <ele>2874</ele>
        <time>2017-02-09T08:49:36Z</time>
      </trkpt>
      <trkpt lat="42.38436" lon="2.11573">
        <ele>2882.17</ele>
        <time>2017-02-09T08:50:30Z</time>
      </trkpt>
      <trkpt lat="42.38427" lon="2.1157">
        <ele>2885.53</ele>
        <time>2017-02-09T08:50:44Z</time>
      </trkpt>
      <trkpt lat="42.3842" lon="2.11569">
        <ele>2888.9</ele>
        <time>2017-02-09T08:50:56Z</time>
      </trkpt>
      <trkpt lat="42.38387" lon="2.11567">
        <ele>2892.26</ele>
        <time>2017-02-09T08:51:59Z</time>
      </trkpt>
      <trkpt lat="42.38376" lon="2.11575">
        <ele>2896.59</ele>
        <time>2017-02-09T08:52:29Z</time>
      </trkpt>
      <trkpt lat="42.38368" lon="2.11589">
        <ele>2901.4</ele>
        <time>2017-02-09T08:52:56Z</time>
      </trkpt>
      <trkpt lat="42.38363" lon="2.11596">
        <ele>2904.76</ele>
        <time>2017-02-09T08:53:07Z</time>
      </trkpt>
      <trkpt lat="42.38363" lon="2.11597">
        <ele>2904.76</ele>
        <time>2017-02-09T08:53:08Z</time>
      </trkpt>
      <trkpt lat="42.38356" lon="2.11621">
        <ele>2909.09</ele>
        <time>2017-02-09T08:53:43Z</time>
      </trkpt>
      <trkpt lat="42.38349" lon="2.11661">
        <ele>2912.45</ele>
        <time>2017-02-09T08:54:58Z</time>
      </trkpt>
      <trkpt lat="42.38346" lon="2.1167">
        <ele>2917.74</ele>
        <time>2017-02-09T08:55:12Z</time>
      </trkpt>
      <trkpt lat="42.38345" lon="2.1167">
        <ele>2917.74</ele>
        <time>2017-02-09T08:55:13Z</time>
      </trkpt>
      <trkpt lat="42.38338" lon="2.11684">
        <ele>2921.58</ele>
        <time>2017-02-09T08:55:34Z</time>
      </trkpt>
      <trkpt lat="42.38334" lon="2.11685">
        <ele>2919.18</ele>
        <time>2017-02-09T09:12:38Z</time>
      </trkpt>
      <trkpt lat="42.38334" lon="2.11685">
        <ele>2914.85</ele>
        <time>2017-02-09T09:13:13Z</time>
      </trkpt>
      <trkpt lat="42.38312" lon="2.11629">
        <ele>2905.72</ele>
        <time>2017-02-09T09:15:31Z</time>
      </trkpt>
      <trkpt lat="42.38306" lon="2.11617">
        <ele>2902.36</ele>
        <time>2017-02-09T09:15:42Z</time>
      </trkpt>
      <trkpt lat="42.38299" lon="2.11615">
        <ele>2898.99</ele>
        <time>2017-02-09T09:15:51Z</time>
      </trkpt>
      <trkpt lat="42.38298" lon="2.11595">
        <ele>2895.63</ele>
        <time>2017-02-09T09:16:05Z</time>
      </trkpt>
      <trkpt lat="42.38294" lon="2.11559">
        <ele>2889.38</ele>
        <time>2017-02-09T09:16:28Z</time>
      </trkpt>
      <trkpt lat="42.38308" lon="2.11544">
        <ele>2883.61</ele>
        <time>2017-02-09T09:17:10Z</time>
      </trkpt>
      <trkpt lat="42.38311" lon="2.11537">
        <ele>2878.32</ele>
        <time>2017-02-09T09:17:19Z</time>
      </trkpt>
      <trkpt lat="42.38312" lon="2.11532">
        <ele>2874.96</ele>
        <time>2017-02-09T09:17:25Z</time>
      </trkpt>
      <trkpt lat="42.38312" lon="2.11531">
        <ele>2874.96</ele>
        <time>2017-02-09T09:17:26Z</time>
      </trkpt>
      <trkpt lat="42.38313" lon="2.11523">
        <ele>2871.11</ele>
        <time>2017-02-09T09:17:35Z</time>
      </trkpt>
      <trkpt lat="42.38313" lon="2.11505">
        <ele>2862.94</ele>
        <time>2017-02-09T09:18:00Z</time>
      </trkpt>
      <trkpt lat="42.38302" lon="2.11475">
        <ele>2851.89</ele>
        <time>2017-02-09T09:18:41Z</time>
      </trkpt>
      <trkpt lat="42.38297" lon="2.11467">
        <ele>2848.52</ele>
        <time>2017-02-09T09:18:49Z</time>
      </trkpt>
      <trkpt lat="42.38293" lon="2.1145">
        <ele>2841.31</ele>
        <time>2017-02-09T09:19:18Z</time>
      </trkpt>
      <trkpt lat="42.38287" lon="2.11437">
        <ele>2834.1</ele>
        <time>2017-02-09T09:19:38Z</time>
      </trkpt>
      <trkpt lat="42.3828" lon="2.11421">
        <ele>2824.97</ele>
        <time>2017-02-09T09:20:23Z</time>
      </trkpt>
      <trkpt lat="42.38274" lon="2.11404">
        <ele>2816.8</ele>
        <time>2017-02-09T09:20:41Z</time>
      </trkpt>
      <trkpt lat="42.3828" lon="2.11396">
        <ele>2813.44</ele>
        <time>2017-02-09T09:20:52Z</time>
      </trkpt>
      <trkpt lat="42.38284" lon="2.11382">
        <ele>2806.71</ele>
        <time>2017-02-09T09:21:07Z</time>
      </trkpt>
      <trkpt lat="42.38287" lon="2.11366">
        <ele>2799.98</ele>
        <time>2017-02-09T09:21:22Z</time>
      </trkpt>
      <trkpt lat="42.38289" lon="2.11354">
        <ele>2796.61</ele>
        <time>2017-02-09T09:21:36Z</time>
      </trkpt>
      <trkpt lat="42.38294" lon="2.11333">
        <ele>2792.29</ele>
        <time>2017-02-09T09:23:08Z</time>
      </trkpt>
      <trkpt lat="42.38287" lon="2.11309">
        <ele>2787.96</ele>
        <time>2017-02-09T09:24:05Z</time>
      </trkpt>
      <trkpt lat="42.38285" lon="2.1128">
        <ele>2782.19</ele>
        <time>2017-02-09T09:24:29Z</time>
      </trkpt>
      <trkpt lat="42.38291" lon="2.11255">
        <ele>2776.91</ele>
        <time>2017-02-09T09:24:50Z</time>
      </trkpt>
      <trkpt lat="42.383" lon="2.11237">
        <ele>2772.58</ele>
        <time>2017-02-09T09:25:07Z</time>
      </trkpt>
      <trkpt lat="42.383" lon="2.11216">
        <ele>2766.33</ele>
        <time>2017-02-09T09:25:29Z</time>
      </trkpt>
      <trkpt lat="42.38294" lon="2.112">
        <ele>2761.52</ele>
        <time>2017-02-09T09:25:46Z</time>
      </trkpt>
      <trkpt lat="42.3829" lon="2.11189">
        <ele>2758.16</ele>
        <time>2017-02-09T09:25:58Z</time>
      </trkpt>
      <trkpt lat="42.38286" lon="2.11173">
        <ele>2752.87</ele>
        <time>2017-02-09T09:26:13Z</time>
      </trkpt>
      <trkpt lat="42.38287" lon="2.11165">
        <ele>2749.51</ele>
        <time>2017-02-09T09:26:24Z</time>
      </trkpt>
      <trkpt lat="42.38287" lon="2.11144">
        <ele>2742.78</ele>
        <time>2017-02-09T09:26:46Z</time>
      </trkpt>
      <trkpt lat="42.38284" lon="2.11129">
        <ele>2737.97</ele>
        <time>2017-02-09T09:26:59Z</time>
      </trkpt>
      <trkpt lat="42.38282" lon="2.11112">
        <ele>2731.72</ele>
        <time>2017-02-09T09:27:23Z</time>
      </trkpt>
      <trkpt lat="42.38282" lon="2.11112">
        <ele>2731.72</ele>
        <time>2017-02-09T09:27:24Z</time>
      </trkpt>
      <trkpt lat="42.38284" lon="2.11084">
        <ele>2725.48</ele>
        <time>2017-02-09T09:27:47Z</time>
      </trkpt>
      <trkpt lat="42.3828" lon="2.11065">
        <ele>2722.11</ele>
        <time>2017-02-09T09:28:01Z</time>
      </trkpt>
      <trkpt lat="42.38281" lon="2.11044">
        <ele>2718.75</ele>
        <time>2017-02-09T09:28:18Z</time>
      </trkpt>
      <trkpt lat="42.38283" lon="2.11035">
        <ele>2715.38</ele>
        <time>2017-02-09T09:28:26Z</time>
      </trkpt>
      <trkpt lat="42.38282" lon="2.11034">
        <ele>2715.38</ele>
        <time>2017-02-09T09:28:27Z</time>
      </trkpt>
      <trkpt lat="42.38274" lon="2.10988">
        <ele>2710.57</ele>
        <time>2017-02-09T09:29:00Z</time>
      </trkpt>
      <trkpt lat="42.38269" lon="2.10973">
        <ele>2707.21</ele>
        <time>2017-02-09T09:29:12Z</time>
      </trkpt>
      <trkpt lat="42.38261" lon="2.1095">
        <ele>2701.92</ele>
        <time>2017-02-09T09:29:31Z</time>
      </trkpt>
      <trkpt lat="42.38242" lon="2.10922">
        <ele>2694.23</ele>
        <time>2017-02-09T09:30:04Z</time>
      </trkpt>
      <trkpt lat="42.38242" lon="2.1091">
        <ele>2690.87</ele>
        <time>2017-02-09T09:30:16Z</time>
      </trkpt>
      <trkpt lat="42.38244" lon="2.10898">
        <ele>2686.54</ele>
        <time>2017-02-09T09:30:30Z</time>
      </trkpt>
      <trkpt lat="42.38243" lon="2.10886">
        <ele>2683.18</ele>
        <time>2017-02-09T09:30:41Z</time>
      </trkpt>
      <trkpt lat="42.38232" lon="2.10842">
        <ele>2675.01</ele>
        <time>2017-02-09T09:31:16Z</time>
      </trkpt>
      <trkpt lat="42.38224" lon="2.1083">
        <ele>2671.64</ele>
        <time>2017-02-09T09:31:29Z</time>
      </trkpt>
      <trkpt lat="42.38223" lon="2.10828">
        <ele>2671.64</ele>
        <time>2017-02-09T09:31:31Z</time>
      </trkpt>
      <trkpt lat="42.38211" lon="2.10814">
        <ele>2664.43</ele>
        <time>2017-02-09T09:31:51Z</time>
      </trkpt>
      <trkpt lat="42.38205" lon="2.10803">
        <ele>2658.18</ele>
        <time>2017-02-09T09:32:17Z</time>
      </trkpt>
      <trkpt lat="42.38205" lon="2.10802">
        <ele>2658.18</ele>
        <time>2017-02-09T09:32:18Z</time>
      </trkpt>
      <trkpt lat="42.382" lon="2.10795">
        <ele>2653.38</ele>
        <time>2017-02-09T09:32:29Z</time>
      </trkpt>
      <trkpt lat="42.3819" lon="2.10777">
        <ele>2644.24</ele>
        <time>2017-02-09T09:32:57Z</time>
      </trkpt>
      <trkpt lat="42.38186" lon="2.10763">
        <ele>2637.51</ele>
        <time>2017-02-09T09:33:20Z</time>
      </trkpt>
      <trkpt lat="42.38187" lon="2.10752">
        <ele>2634.15</ele>
        <time>2017-02-09T09:33:33Z</time>
      </trkpt>
      <trkpt lat="42.38189" lon="2.10734">
        <ele>2630.3</ele>
        <time>2017-02-09T09:33:48Z</time>
      </trkpt>
      <trkpt lat="42.38182" lon="2.107">
        <ele>2625.02</ele>
        <time>2017-02-09T09:34:08Z</time>
      </trkpt>
      <trkpt lat="42.38175" lon="2.10682">
        <ele>2625.98</ele>
        <time>2017-02-09T09:34:26Z</time>
      </trkpt>
      <trkpt lat="42.38082" lon="2.10582">
        <ele>2630.79</ele>
        <time>2017-02-09T09:37:04Z</time>
      </trkpt>
      <trkpt lat="42.38058" lon="2.10557">
        <ele>2639.92</ele>
        <time>2017-02-09T09:38:18Z</time>
      </trkpt>
      <trkpt lat="42.38024" lon="2.10523">
        <ele>2647.61</ele>
        <time>2017-02-09T09:39:15Z</time>
      </trkpt>
      <trkpt lat="42.37992" lon="2.10476">
        <ele>2642.32</ele>
        <time>2017-02-09T09:42:00Z</time>
      </trkpt>
      <trkpt lat="42.37993" lon="2.10474">
        <ele>2645.69</ele>
        <time>2017-02-09T09:42:04Z</time>
      </trkpt>
      <trkpt lat="42.37987" lon="2.10448">
        <ele>2649.05</ele>
        <time>2017-02-09T09:42:32Z</time>
      </trkpt>
      <trkpt lat="42.37974" lon="2.1043">
        <ele>2642.32</ele>
        <time>2017-02-09T09:42:56Z</time>
      </trkpt>
      <trkpt lat="42.37939" lon="2.10379">
        <ele>2631.75</ele>
        <time>2017-02-09T09:44:06Z</time>
      </trkpt>
      <trkpt lat="42.37939" lon="2.10377">
        <ele>2631.75</ele>
        <time>2017-02-09T09:44:07Z</time>
      </trkpt>
      <trkpt lat="42.37936" lon="2.10355">
        <ele>2629.82</ele>
        <time>2017-02-09T09:44:27Z</time>
      </trkpt>
      <trkpt lat="42.37938" lon="2.10352">
        <ele>2625.98</ele>
        <time>2017-02-09T09:44:30Z</time>
      </trkpt>
      <trkpt lat="42.37929" lon="2.10321">
        <ele>2629.34</ele>
        <time>2017-02-09T09:45:13Z</time>
      </trkpt>
      <trkpt lat="42.37926" lon="2.10314">
        <ele>2625.5</ele>
        <time>2017-02-09T09:45:21Z</time>
      </trkpt>
      <trkpt lat="42.37911" lon="2.10284">
        <ele>2628.86</ele>
        <time>2017-02-09T09:46:00Z</time>
      </trkpt>
      <trkpt lat="42.37877" lon="2.1025">
        <ele>2625.5</ele>
        <time>2017-02-09T09:46:45Z</time>
      </trkpt>
      <trkpt lat="42.37839" lon="2.10158">
        <ele>2629.82</ele>
        <time>2017-02-09T09:48:54Z</time>
      </trkpt>
      <trkpt lat="42.37818" lon="2.10105">
        <ele>2637.03</ele>
        <time>2017-02-09T09:50:30Z</time>
      </trkpt>
      <trkpt lat="42.3764" lon="2.09798">
        <ele>2646.17</ele>
        <time>2017-02-09T09:57:45Z</time>
      </trkpt>
      <trkpt lat="42.37605" lon="2.09693">
        <ele>2640.88</ele>
        <time>2017-02-09T09:59:38Z</time>
      </trkpt>
      <trkpt lat="42.37596" lon="2.09677">
        <ele>2636.07</ele>
        <time>2017-02-09T10:04:01Z</time>
      </trkpt>
      <trkpt lat="42.37594" lon="2.09654">
        <ele>2629.34</ele>
        <time>2017-02-09T10:04:21Z</time>
      </trkpt>
      <trkpt lat="42.37585" lon="2.09589">
        <ele>2622.13</ele>
        <time>2017-02-09T10:05:19Z</time>
      </trkpt>
      <trkpt lat="42.37587" lon="2.09514">
        <ele>2616.85</ele>
        <time>2017-02-09T10:06:15Z</time>
      </trkpt>
      <trkpt lat="42.37568" lon="2.09489">
        <ele>2612.04</ele>
        <time>2017-02-09T10:06:37Z</time>
      </trkpt>
      <trkpt lat="42.37545" lon="2.09394">
        <ele>2608.67</ele>
        <time>2017-02-09T10:07:40Z</time>
      </trkpt>
      <trkpt lat="42.37527" lon="2.09334">
        <ele>2604.83</ele>
        <time>2017-02-09T10:08:25Z</time>
      </trkpt>
      <trkpt lat="42.37436" lon="2.0918">
        <ele>2611.08</ele>
        <time>2017-02-09T10:11:17Z</time>
      </trkpt>
      <trkpt lat="42.37425" lon="2.09163">
        <ele>2610.6</ele>
        <time>2017-02-09T10:11:38Z</time>
      </trkpt>
      <trkpt lat="42.37415" lon="2.09136">
        <ele>2613.96</ele>
        <time>2017-02-09T10:12:20Z</time>
      </trkpt>
      <trkpt lat="42.37411" lon="2.09116">
        <ele>2618.77</ele>
        <time>2017-02-09T10:12:59Z</time>
      </trkpt>
      <trkpt lat="42.37412" lon="2.09107">
        <ele>2622.13</ele>
        <time>2017-02-09T10:13:32Z</time>
      </trkpt>
      <trkpt lat="42.37405" lon="2.09076">
        <ele>2627.42</ele>
        <time>2017-02-09T10:14:30Z</time>
      </trkpt>
      <trkpt lat="42.37398" lon="2.09056">
        <ele>2632.23</ele>
        <time>2017-02-09T10:15:29Z</time>
      </trkpt>
      <trkpt lat="42.37399" lon="2.09039">
        <ele>2636.55</ele>
        <time>2017-02-09T10:16:10Z</time>
      </trkpt>
      <trkpt lat="42.37393" lon="2.09022">
        <ele>2640.4</ele>
        <time>2017-02-09T10:16:48Z</time>
      </trkpt>
      <trkpt lat="42.37387" lon="2.09007">
        <ele>2644.72</ele>
        <time>2017-02-09T10:17:29Z</time>
      </trkpt>
      <trkpt lat="42.37381" lon="2.08997">
        <ele>2648.57</ele>
        <time>2017-02-09T10:18:05Z</time>
      </trkpt>
      <trkpt lat="42.37375" lon="2.08981">
        <ele>2652.42</ele>
        <time>2017-02-09T10:18:42Z</time>
      </trkpt>
      <trkpt lat="42.37365" lon="2.08925">
        <ele>2652.42</ele>
        <time>2017-02-09T10:45:18Z</time>
      </trkpt>
      <trkpt lat="42.37376" lon="2.08847">
        <ele>2649.53</ele>
        <time>2017-02-09T10:59:04Z</time>
      </trkpt>
      <trkpt lat="42.37386" lon="2.08814">
        <ele>2646.17</ele>
        <time>2017-02-09T10:59:11Z</time>
      </trkpt>
      <trkpt lat="42.37412" lon="2.08754">
        <ele>2639.44</ele>
        <time>2017-02-09T10:59:27Z</time>
      </trkpt>
      <trkpt lat="42.37423" lon="2.08703">
        <ele>2634.15</ele>
        <time>2017-02-09T10:59:41Z</time>
      </trkpt>
      <trkpt lat="42.37433" lon="2.08658">
        <ele>2628.38</ele>
        <time>2017-02-09T11:00:13Z</time>
      </trkpt>
      <trkpt lat="42.37439" lon="2.08623">
        <ele>2622.61</ele>
        <time>2017-02-09T11:00:27Z</time>
      </trkpt>
      <trkpt lat="42.37438" lon="2.08621">
        <ele>2622.61</ele>
        <time>2017-02-09T11:00:28Z</time>
      </trkpt>
      <trkpt lat="42.37461" lon="2.08589">
        <ele>2615.88</ele>
        <time>2017-02-09T11:00:47Z</time>
      </trkpt>
      <trkpt lat="42.37483" lon="2.08529">
        <ele>2607.71</ele>
        <time>2017-02-09T11:01:26Z</time>
      </trkpt>
      <trkpt lat="42.37513" lon="2.08497">
        <ele>2599.06</ele>
        <time>2017-02-09T11:01:56Z</time>
      </trkpt>
      <trkpt lat="42.37526" lon="2.08488">
        <ele>2597.14</ele>
        <time>2017-02-09T11:02:03Z</time>
      </trkpt>
      <trkpt lat="42.3754" lon="2.0848">
        <ele>2591.37</ele>
        <time>2017-02-09T11:02:10Z</time>
      </trkpt>
      <trkpt lat="42.3755" lon="2.08477">
        <ele>2589.45</ele>
        <time>2017-02-09T11:02:13Z</time>
      </trkpt>
      <trkpt lat="42.37554" lon="2.08463">
        <ele>2586.08</ele>
        <time>2017-02-09T11:02:19Z</time>
      </trkpt>
      <trkpt lat="42.37564" lon="2.08447">
        <ele>2580.8</ele>
        <time>2017-02-09T11:02:26Z</time>
      </trkpt>
      <trkpt lat="42.37574" lon="2.0843">
        <ele>2575.99</ele>
        <time>2017-02-09T11:02:31Z</time>
      </trkpt>
      <trkpt lat="42.37587" lon="2.08407">
        <ele>2570.22</ele>
        <time>2017-02-09T11:02:37Z</time>
      </trkpt>
      <trkpt lat="42.37598" lon="2.08393">
        <ele>2565.9</ele>
        <time>2017-02-09T11:02:40Z</time>
      </trkpt>
      <trkpt lat="42.37636" lon="2.0835">
        <ele>2560.13</ele>
        <time>2017-02-09T11:02:56Z</time>
      </trkpt>
      <trkpt lat="42.37639" lon="2.08349">
        <ele>2560.13</ele>
        <time>2017-02-09T11:02:57Z</time>
      </trkpt>
      <trkpt lat="42.37664" lon="2.08324">
        <ele>2554.84</ele>
        <time>2017-02-09T11:03:08Z</time>
      </trkpt>
      <trkpt lat="42.37721" lon="2.08317">
        <ele>2546.67</ele>
        <time>2017-02-09T11:03:59Z</time>
      </trkpt>
      <trkpt lat="42.37722" lon="2.08316">
        <ele>2546.67</ele>
        <time>2017-02-09T11:04:12Z</time>
      </trkpt>
      <trkpt lat="42.37744" lon="2.08308">
        <ele>2541.38</ele>
        <time>2017-02-09T11:04:20Z</time>
      </trkpt>
      <trkpt lat="42.37753" lon="2.08306">
        <ele>2538.02</ele>
        <time>2017-02-09T11:04:24Z</time>
      </trkpt>
      <trkpt lat="42.37755" lon="2.08305">
        <ele>2538.02</ele>
        <time>2017-02-09T11:04:25Z</time>
      </trkpt>
      <trkpt lat="42.37758" lon="2.08263">
        <ele>2533.21</ele>
        <time>2017-02-09T11:04:36Z</time>
      </trkpt>
      <trkpt lat="42.37758" lon="2.08262">
        <ele>2533.21</ele>
        <time>2017-02-09T11:04:37Z</time>
      </trkpt>
      <trkpt lat="42.37757" lon="2.0826">
        <ele>2533.69</ele>
        <time>2017-02-09T11:04:45Z</time>
      </trkpt>
      <trkpt lat="42.3779" lon="2.08253">
        <ele>2527.92</ele>
        <time>2017-02-09T11:04:53Z</time>
      </trkpt>
      <trkpt lat="42.37794" lon="2.08252">
        <ele>2527.92</ele>
        <time>2017-02-09T11:04:54Z</time>
      </trkpt>
      <trkpt lat="42.37829" lon="2.08231">
        <ele>2521.19</ele>
        <time>2017-02-09T11:05:05Z</time>
      </trkpt>
      <trkpt lat="42.37855" lon="2.08223">
        <ele>2516.39</ele>
        <time>2017-02-09T11:05:39Z</time>
      </trkpt>
      <trkpt lat="42.37859" lon="2.08222">
        <ele>2516.39</ele>
        <time>2017-02-09T11:05:40Z</time>
      </trkpt>
      <trkpt lat="42.37883" lon="2.08218">
        <ele>2513.98</ele>
        <time>2017-02-09T11:05:46Z</time>
      </trkpt>
      <trkpt lat="42.37893" lon="2.08208">
        <ele>2510.62</ele>
        <time>2017-02-09T11:05:49Z</time>
      </trkpt>
      <trkpt lat="42.37911" lon="2.08195">
        <ele>2504.37</ele>
        <time>2017-02-09T11:05:55Z</time>
      </trkpt>
      <trkpt lat="42.37902" lon="2.08164">
        <ele>2496.2</ele>
        <time>2017-02-09T11:09:53Z</time>
      </trkpt>
      <trkpt lat="42.37891" lon="2.08115">
        <ele>2473.13</ele>
        <time>2017-02-09T11:10:05Z</time>
      </trkpt>
      <trkpt lat="42.37879" lon="2.08074">
        <ele>2448.13</ele>
        <time>2017-02-09T11:10:12Z</time>
      </trkpt>
      <trkpt lat="42.37865" lon="2.08062">
        <ele>2444.29</ele>
        <time>2017-02-09T11:10:34Z</time>
      </trkpt>
      <trkpt lat="42.37878" lon="2.08055">
        <ele>2439.96</ele>
        <time>2017-02-09T11:10:39Z</time>
      </trkpt>
      <trkpt lat="42.37884" lon="2.08033">
        <ele>2435.16</ele>
        <time>2017-02-09T11:10:46Z</time>
      </trkpt>
      <trkpt lat="42.3785" lon="2.08024">
        <ele>2427.47</ele>
        <time>2017-02-09T11:11:18Z</time>
      </trkpt>
      <trkpt lat="42.37826" lon="2.08017">
        <ele>2419.3</ele>
        <time>2017-02-09T11:11:24Z</time>
      </trkpt>
      <trkpt lat="42.37817" lon="2.08009">
        <ele>2415.93</ele>
        <time>2017-02-09T11:11:28Z</time>
      </trkpt>
      <trkpt lat="42.37815" lon="2.08008">
        <ele>2415.45</ele>
        <time>2017-02-09T11:11:29Z</time>
      </trkpt>
      <trkpt lat="42.37844" lon="2.07942">
        <ele>2398.63</ele>
        <time>2017-02-09T11:11:48Z</time>
      </trkpt>
      <trkpt lat="42.37846" lon="2.0794">
        <ele>2398.63</ele>
        <time>2017-02-09T11:11:49Z</time>
      </trkpt>
      <trkpt lat="42.37851" lon="2.07912">
        <ele>2392.86</ele>
        <time>2017-02-09T11:11:57Z</time>
      </trkpt>
      <trkpt lat="42.37837" lon="2.07881">
        <ele>2386.61</ele>
        <time>2017-02-09T11:12:24Z</time>
      </trkpt>
      <trkpt lat="42.37836" lon="2.07844">
        <ele>2381.8</ele>
        <time>2017-02-09T11:12:30Z</time>
      </trkpt>
      <trkpt lat="42.37835" lon="2.07812">
        <ele>2377.48</ele>
        <time>2017-02-09T11:12:34Z</time>
      </trkpt>
      <trkpt lat="42.37828" lon="2.07766">
        <ele>2374.11</ele>
        <time>2017-02-09T11:12:40Z</time>
      </trkpt>
      <trkpt lat="42.37807" lon="2.07755">
        <ele>2366.9</ele>
        <time>2017-02-09T11:12:45Z</time>
      </trkpt>
      <trkpt lat="42.37796" lon="2.07744">
        <ele>2363.06</ele>
        <time>2017-02-09T11:12:47Z</time>
      </trkpt>
      <trkpt lat="42.37785" lon="2.0772">
        <ele>2359.69</ele>
        <time>2017-02-09T11:12:50Z</time>
      </trkpt>
      <trkpt lat="42.37751" lon="2.07711">
        <ele>2352.96</ele>
        <time>2017-02-09T11:12:55Z</time>
      </trkpt>
      <trkpt lat="42.37746" lon="2.07708">
        <ele>2352.96</ele>
        <time>2017-02-09T11:12:56Z</time>
      </trkpt>
      <trkpt lat="42.37722" lon="2.0769">
        <ele>2349.6</ele>
        <time>2017-02-09T11:13:02Z</time>
      </trkpt>
      <trkpt lat="42.37708" lon="2.07687">
        <ele>2346.23</ele>
        <time>2017-02-09T11:13:05Z</time>
      </trkpt>
      <trkpt lat="42.37703" lon="2.07685">
        <ele>2346.23</ele>
        <time>2017-02-09T11:13:18Z</time>
      </trkpt>
      <trkpt lat="42.37705" lon="2.07675">
        <ele>2345.27</ele>
        <time>2017-02-09T11:13:58Z</time>
      </trkpt>
      <trkpt lat="42.37693" lon="2.07643">
        <ele>2337.1</ele>
        <time>2017-02-09T11:14:05Z</time>
      </trkpt>
      <trkpt lat="42.37685" lon="2.07649">
        <ele>2331.81</ele>
        <time>2017-02-09T11:14:07Z</time>
      </trkpt>
      <trkpt lat="42.37676" lon="2.0765">
        <ele>2327.01</ele>
        <time>2017-02-09T11:14:09Z</time>
      </trkpt>
      <trkpt lat="42.3766" lon="2.07632">
        <ele>2316.43</ele>
        <time>2017-02-09T11:14:13Z</time>
      </trkpt>
      <trkpt lat="42.37655" lon="2.0763">
        <ele>2316.43</ele>
        <time>2017-02-09T11:14:14Z</time>
      </trkpt>
      <trkpt lat="42.37649" lon="2.07626">
        <ele>2311.63</ele>
        <time>2017-02-09T11:14:15Z</time>
      </trkpt>
      <trkpt lat="42.37645" lon="2.0762">
        <ele>2308.26</ele>
        <time>2017-02-09T11:14:16Z</time>
      </trkpt>
      <trkpt lat="42.37632" lon="2.07612">
        <ele>2302.49</ele>
        <time>2017-02-09T11:14:19Z</time>
      </trkpt>
      <trkpt lat="42.37628" lon="2.07605">
        <ele>2299.13</ele>
        <time>2017-02-09T11:14:20Z</time>
      </trkpt>
      <trkpt lat="42.37624" lon="2.07601">
        <ele>2299.61</ele>
        <time>2017-02-09T11:14:21Z</time>
      </trkpt>
      <trkpt lat="42.37619" lon="2.07597">
        <ele>2295.77</ele>
        <time>2017-02-09T11:14:22Z</time>
      </trkpt>
      <trkpt lat="42.37615" lon="2.07589">
        <ele>2292.4</ele>
        <time>2017-02-09T11:14:23Z</time>
      </trkpt>
      <trkpt lat="42.37594" lon="2.07562">
        <ele>2286.15</ele>
        <time>2017-02-09T11:14:27Z</time>
      </trkpt>
      <trkpt lat="42.37569" lon="2.07544">
        <ele>2280.38</ele>
        <time>2017-02-09T11:14:31Z</time>
      </trkpt>
      <trkpt lat="42.37557" lon="2.07516">
        <ele>2274.62</ele>
        <time>2017-02-09T11:14:36Z</time>
      </trkpt>
      <trkpt lat="42.37546" lon="2.0751">
        <ele>2271.25</ele>
        <time>2017-02-09T11:14:38Z</time>
      </trkpt>
      <trkpt lat="42.3754" lon="2.07506">
        <ele>2270.29</ele>
        <time>2017-02-09T11:14:39Z</time>
      </trkpt>
      <trkpt lat="42.37514" lon="2.07477">
        <ele>2266.93</ele>
        <time>2017-02-09T11:14:45Z</time>
      </trkpt>
      <trkpt lat="42.37503" lon="2.07465">
        <ele>2264.04</ele>
        <time>2017-02-09T11:14:47Z</time>
      </trkpt>
      <trkpt lat="42.375" lon="2.07425">
        <ele>2258.75</ele>
        <time>2017-02-09T11:14:54Z</time>
      </trkpt>
      <trkpt lat="42.37512" lon="2.07401">
        <ele>2256.35</ele>
        <time>2017-02-09T11:16:20Z</time>
      </trkpt>
      <trkpt lat="42.375" lon="2.07397">
        <ele>2251.54</ele>
        <time>2017-02-09T11:16:24Z</time>
      </trkpt>
      <trkpt lat="42.37496" lon="2.07395">
        <ele>2250.1</ele>
        <time>2017-02-09T11:16:25Z</time>
      </trkpt>
      <trkpt lat="42.37494" lon="2.07381">
        <ele>2245.3</ele>
        <time>2017-02-09T11:16:29Z</time>
      </trkpt>
      <trkpt lat="42.37499" lon="2.07376">
        <ele>2241.93</ele>
        <time>2017-02-09T11:16:31Z</time>
      </trkpt>
      <trkpt lat="42.37508" lon="2.07356">
        <ele>2236.64</ele>
        <time>2017-02-09T11:16:35Z</time>
      </trkpt>
      <trkpt lat="42.3752" lon="2.07332">
        <ele>2230.4</ele>
        <time>2017-02-09T11:16:39Z</time>
      </trkpt>
      <trkpt lat="42.37537" lon="2.07313">
        <ele>2226.07</ele>
        <time>2017-02-09T11:16:44Z</time>
      </trkpt>
      <trkpt lat="42.37544" lon="2.07301">
        <ele>2224.15</ele>
        <time>2017-02-09T11:16:46Z</time>
      </trkpt>
      <trkpt lat="42.37551" lon="2.07288">
        <ele>2222.22</ele>
        <time>2017-02-09T11:16:48Z</time>
      </trkpt>
      <trkpt lat="42.37554" lon="2.07244">
        <ele>2215.5</ele>
        <time>2017-02-09T11:16:53Z</time>
      </trkpt>
      <trkpt lat="42.37554" lon="2.07237">
        <ele>2215.5</ele>
        <time>2017-02-09T11:16:54Z</time>
      </trkpt>
      <trkpt lat="42.37574" lon="2.07211">
        <ele>2211.65</ele>
        <time>2017-02-09T11:16:59Z</time>
      </trkpt>
      <trkpt lat="42.37593" lon="2.07182">
        <ele>2206.36</ele>
        <time>2017-02-09T11:17:03Z</time>
      </trkpt>
      <trkpt lat="42.37598" lon="2.07175">
        <ele>2206.36</ele>
        <time>2017-02-09T11:17:04Z</time>
      </trkpt>
      <trkpt lat="42.37611" lon="2.07154">
        <ele>2204.44</ele>
        <time>2017-02-09T11:17:07Z</time>
      </trkpt>
      <trkpt lat="42.37613" lon="2.07148">
        <ele>2204.44</ele>
        <time>2017-02-09T11:17:08Z</time>
      </trkpt>
      <trkpt lat="42.37633" lon="2.07092">
        <ele>2199.63</ele>
        <time>2017-02-09T11:18:25Z</time>
      </trkpt>
      <trkpt lat="42.37655" lon="2.07062">
        <ele>2193.39</ele>
        <time>2017-02-09T11:18:34Z</time>
      </trkpt>
      <trkpt lat="42.37672" lon="2.07023">
        <ele>2187.14</ele>
        <time>2017-02-09T11:18:43Z</time>
      </trkpt>
      <trkpt lat="42.37687" lon="2.07008">
        <ele>2182.81</ele>
        <time>2017-02-09T11:18:47Z</time>
      </trkpt>
      <trkpt lat="42.37705" lon="2.06964">
        <ele>2178</ele>
        <time>2017-02-09T11:18:54Z</time>
      </trkpt>
      <trkpt lat="42.37725" lon="2.06898">
        <ele>2171.27</ele>
        <time>2017-02-09T11:19:04Z</time>
      </trkpt>
      <trkpt lat="42.37751" lon="2.06857">
        <ele>2166.47</ele>
        <time>2017-02-09T11:21:17Z</time>
      </trkpt>
      <trkpt lat="42.37762" lon="2.06849">
        <ele>2162.62</ele>
        <time>2017-02-09T11:21:20Z</time>
      </trkpt>
      <trkpt lat="42.37772" lon="2.0684">
        <ele>2158.78</ele>
        <time>2017-02-09T11:21:23Z</time>
      </trkpt>
      <trkpt lat="42.37793" lon="2.06828">
        <ele>2153.97</ele>
        <time>2017-02-09T11:21:29Z</time>
      </trkpt>
      <trkpt lat="42.37802" lon="2.06823">
        <ele>2150.13</ele>
        <time>2017-02-09T11:21:31Z</time>
      </trkpt>
      <trkpt lat="42.37811" lon="2.06811">
        <ele>2146.28</ele>
        <time>2017-02-09T11:21:34Z</time>
      </trkpt>
      <trkpt lat="42.37813" lon="2.06808">
        <ele>2146.28</ele>
        <time>2017-02-09T11:21:35Z</time>
      </trkpt>
      <trkpt lat="42.37827" lon="2.06785">
        <ele>2142.44</ele>
        <time>2017-02-09T11:21:41Z</time>
      </trkpt>
      <trkpt lat="42.37843" lon="2.06734">
        <ele>2136.19</ele>
        <time>2017-02-09T11:22:29Z</time>
      </trkpt>
      <trkpt lat="42.3785" lon="2.06708">
        <ele>2131.38</ele>
        <time>2017-02-09T11:22:35Z</time>
      </trkpt>
      <trkpt lat="42.37857" lon="2.06652">
        <ele>2126.57</ele>
        <time>2017-02-09T11:22:55Z</time>
      </trkpt>
      <trkpt lat="42.37865" lon="2.06586">
        <ele>2123.21</ele>
        <time>2017-02-09T11:24:10Z</time>
      </trkpt>
      <trkpt lat="42.37862" lon="2.06563">
        <ele>2123.21</ele>
        <time>2017-02-09T11:26:51Z</time>
      </trkpt>
      <trkpt lat="42.37848" lon="2.06534">
        <ele>2125.61</ele>
        <time>2017-02-09T11:29:16Z</time>
      </trkpt>
      <trkpt lat="42.37839" lon="2.06499">
        <ele>2119.36</ele>
        <time>2017-02-09T11:29:37Z</time>
      </trkpt>
      <trkpt lat="42.37858" lon="2.06441">
        <ele>2113.6</ele>
        <time>2017-02-09T11:30:22Z</time>
      </trkpt>
      <trkpt lat="42.37864" lon="2.06417">
        <ele>2110.23</ele>
        <time>2017-02-09T11:30:27Z</time>
      </trkpt>
      <trkpt lat="42.3789" lon="2.06332">
        <ele>2102.54</ele>
        <time>2017-02-09T11:31:11Z</time>
      </trkpt>
      <trkpt lat="42.37932" lon="2.06247">
        <ele>2099.18</ele>
        <time>2017-02-09T11:32:23Z</time>
      </trkpt>
      <trkpt lat="42.37937" lon="2.0623">
        <ele>2099.18</ele>
        <time>2017-02-09T11:32:33Z</time>
      </trkpt>
      <trkpt lat="42.37955" lon="2.06167">
        <ele>2095.33</ele>
        <time>2017-02-09T11:33:23Z</time>
      </trkpt>
      <trkpt lat="42.37958" lon="2.06105">
        <ele>2091.97</ele>
        <time>2017-02-09T11:33:39Z</time>
      </trkpt>
      <trkpt lat="42.37972" lon="2.06008">
        <ele>2087.64</ele>
        <time>2017-02-09T11:34:13Z</time>
      </trkpt>
      <trkpt lat="42.37997" lon="2.05931">
        <ele>2083.31</ele>
        <time>2017-02-09T11:34:51Z</time>
      </trkpt>
      <trkpt lat="42.37995" lon="2.0584">
        <ele>2078.51</ele>
        <time>2017-02-09T11:35:26Z</time>
      </trkpt>
      <trkpt lat="42.3799" lon="2.05821">
        <ele>2077.55</ele>
        <time>2017-02-09T11:35:45Z</time>
      </trkpt>
      <trkpt lat="42.37953" lon="2.05744">
        <ele>2071.3</ele>
        <time>2017-02-09T11:36:20Z</time>
      </trkpt>
      <trkpt lat="42.37921" lon="2.05692">
        <ele>2067.93</ele>
        <time>2017-02-09T11:36:36Z</time>
      </trkpt>
      <trkpt lat="42.37894" lon="2.05646">
        <ele>2065.53</ele>
        <time>2017-02-09T11:37:44Z</time>
      </trkpt>
      <trkpt lat="42.37902" lon="2.05632">
        <ele>2061.68</ele>
        <time>2017-02-09T11:37:49Z</time>
      </trkpt>
      <trkpt lat="42.37915" lon="2.05611">
        <ele>2056.88</ele>
        <time>2017-02-09T11:37:54Z</time>
      </trkpt>
      <trkpt lat="42.37924" lon="2.05588">
        <ele>2053.03</ele>
        <time>2017-02-09T11:37:57Z</time>
      </trkpt>
      <trkpt lat="42.3793" lon="2.05566">
        <ele>2050.15</ele>
        <time>2017-02-09T11:38:00Z</time>
      </trkpt>
      <trkpt lat="42.37932" lon="2.0556">
        <ele>2050.15</ele>
        <time>2017-02-09T11:38:01Z</time>
      </trkpt>
      <trkpt lat="42.3794" lon="2.05537">
        <ele>2045.82</ele>
        <time>2017-02-09T11:38:05Z</time>
      </trkpt>
      <trkpt lat="42.37962" lon="2.05498">
        <ele>2040.05</ele>
        <time>2017-02-09T11:38:37Z</time>
      </trkpt>
      <trkpt lat="42.37964" lon="2.05496">
        <ele>2038.13</ele>
        <time>2017-02-09T11:38:42Z</time>
      </trkpt>
      <trkpt lat="42.3801" lon="2.05512">
        <ele>2031.4</ele>
        <time>2017-02-09T11:38:58Z</time>
      </trkpt>
      <trkpt lat="42.38041" lon="2.05538">
        <ele>2028.04</ele>
        <time>2017-02-09T11:39:13Z</time>
      </trkpt>
      <trkpt lat="42.38081" lon="2.05596">
        <ele>2024.19</ele>
        <time>2017-02-09T11:39:35Z</time>
      </trkpt>
      <trkpt lat="42.38095" lon="2.05545">
        <ele>2017.94</ele>
        <time>2017-02-09T11:39:55Z</time>
      </trkpt>
      <trkpt lat="42.38051" lon="2.05472">
        <ele>2013.14</ele>
        <time>2017-02-09T11:40:22Z</time>
      </trkpt>
      <trkpt lat="42.38022" lon="2.05441">
        <ele>2009.77</ele>
        <time>2017-02-09T11:40:33Z</time>
      </trkpt>
      <trkpt lat="42.37973" lon="2.05406">
        <ele>2005.45</ele>
        <time>2017-02-09T11:40:46Z</time>
      </trkpt>
      <trkpt lat="42.37937" lon="2.05382">
        <ele>2002.08</ele>
        <time>2017-02-09T11:40:54Z</time>
      </trkpt>
      <trkpt lat="42.37853" lon="2.05333">
        <ele>1997.28</ele>
        <time>2017-02-09T11:41:15Z</time>
      </trkpt>
      <trkpt lat="42.3785" lon="2.05327">
        <ele>1998.24</ele>
        <time>2017-02-09T11:41:35Z</time>
      </trkpt>
      <trkpt lat="42.37851" lon="2.05324">
        <ele>1997.28</ele>
        <time>2017-02-09T11:41:43Z</time>
      </trkpt>
      <trkpt lat="42.3786" lon="2.05314">
        <ele>1992.95</ele>
        <time>2017-02-09T11:41:46Z</time>
      </trkpt>
      <trkpt lat="42.3791" lon="2.05301">
        <ele>1986.7</ele>
        <time>2017-02-09T11:41:55Z</time>
      </trkpt>
      <trkpt lat="42.37938" lon="2.05304">
        <ele>1983.82</ele>
        <time>2017-02-09T11:42:00Z</time>
      </trkpt>
      <trkpt lat="42.38004" lon="2.05309">
        <ele>1979.49</ele>
        <time>2017-02-09T11:42:16Z</time>
      </trkpt>
      <trkpt lat="42.38034" lon="2.05329">
        <ele>1976.61</ele>
        <time>2017-02-09T11:42:25Z</time>
      </trkpt>
      <trkpt lat="42.38073" lon="2.05353">
        <ele>1973.24</ele>
        <time>2017-02-09T11:42:35Z</time>
      </trkpt>
      <trkpt lat="42.38112" lon="2.0538">
        <ele>1969.88</ele>
        <time>2017-02-09T11:42:46Z</time>
      </trkpt>
      <trkpt lat="42.38152" lon="2.05418">
        <ele>1966.51</ele>
        <time>2017-02-09T11:43:00Z</time>
      </trkpt>
      <trkpt lat="42.38211" lon="2.05504">
        <ele>1960.27</ele>
        <time>2017-02-09T11:43:23Z</time>
      </trkpt>
      <trkpt lat="42.38222" lon="2.05563">
        <ele>1956.9</ele>
        <time>2017-02-09T11:43:36Z</time>
      </trkpt>
      <trkpt lat="42.38226" lon="2.0563">
        <ele>1954.5</ele>
        <time>2017-02-09T11:43:52Z</time>
      </trkpt>
      <trkpt lat="42.38226" lon="2.05634">
        <ele>1954.5</ele>
        <time>2017-02-09T11:43:53Z</time>
      </trkpt>
      <trkpt lat="42.3821" lon="2.05723">
        <ele>1949.69</ele>
        <time>2017-02-09T11:44:15Z</time>
      </trkpt>
      <trkpt lat="42.38232" lon="2.05687">
        <ele>1942</ele>
        <time>2017-02-09T11:44:53Z</time>
      </trkpt>
      <trkpt lat="42.38261" lon="2.05627">
        <ele>1938.64</ele>
        <time>2017-02-09T11:45:43Z</time>
      </trkpt>
      <trkpt lat="42.38268" lon="2.05626">
        <ele>1934.79</ele>
        <time>2017-02-09T11:45:49Z</time>
      </trkpt>
      <trkpt lat="42.38276" lon="2.05619">
        <ele>1931.43</ele>
        <time>2017-02-09T11:45:58Z</time>
      </trkpt>
      <trkpt lat="42.38287" lon="2.05611">
        <ele>1927.1</ele>
        <time>2017-02-09T11:46:01Z</time>
      </trkpt>
      <trkpt lat="42.38294" lon="2.05599">
        <ele>1923.74</ele>
        <time>2017-02-09T11:46:05Z</time>
      </trkpt>
      <trkpt lat="42.38301" lon="2.05589">
        <ele>1920.37</ele>
        <time>2017-02-09T11:46:10Z</time>
      </trkpt>
      <trkpt lat="42.38312" lon="2.05566">
        <ele>1914.6</ele>
        <time>2017-02-09T11:46:20Z</time>
      </trkpt>
      <trkpt lat="42.3832" lon="2.05548">
        <ele>1911.24</ele>
        <time>2017-02-09T11:46:27Z</time>
      </trkpt>
      <trkpt lat="42.38326" lon="2.05532">
        <ele>1907.39</ele>
        <time>2017-02-09T11:46:30Z</time>
      </trkpt>
      <trkpt lat="42.38333" lon="2.05512">
        <ele>1903.55</ele>
        <time>2017-02-09T11:46:34Z</time>
      </trkpt>
      <trkpt lat="42.38336" lon="2.05499">
        <ele>1900.18</ele>
        <time>2017-02-09T11:46:38Z</time>
      </trkpt>
      <trkpt lat="42.38342" lon="2.05486">
        <ele>1896.82</ele>
        <time>2017-02-09T11:46:42Z</time>
      </trkpt>
      <trkpt lat="42.38349" lon="2.05467">
        <ele>1893.45</ele>
        <time>2017-02-09T11:46:48Z</time>
      </trkpt>
      <trkpt lat="42.38355" lon="2.05434">
        <ele>1888.65</ele>
        <time>2017-02-09T11:46:56Z</time>
      </trkpt>
      <trkpt lat="42.38369" lon="2.05413">
        <ele>1885.76</ele>
        <time>2017-02-09T11:47:28Z</time>
      </trkpt>
      <trkpt lat="42.38374" lon="2.05399">
        <ele>1882.4</ele>
        <time>2017-02-09T11:47:32Z</time>
      </trkpt>
      <trkpt lat="42.38378" lon="2.05383">
        <ele>1878.55</ele>
        <time>2017-02-09T11:47:36Z</time>
      </trkpt>
      <trkpt lat="42.38386" lon="2.0535">
        <ele>1872.79</ele>
        <time>2017-02-09T11:47:43Z</time>
      </trkpt>
      <trkpt lat="42.38394" lon="2.05312">
        <ele>1866.54</ele>
        <time>2017-02-09T11:47:49Z</time>
      </trkpt>
      <trkpt lat="42.38401" lon="2.05284">
        <ele>1860.77</ele>
        <time>2017-02-09T11:47:53Z</time>
      </trkpt>
      <trkpt lat="42.38403" lon="2.05278">
        <ele>1860.29</ele>
        <time>2017-02-09T11:47:54Z</time>
      </trkpt>
      <trkpt lat="42.38419" lon="2.0525">
        <ele>1855.96</ele>
        <time>2017-02-09T11:48:00Z</time>
      </trkpt>
      <trkpt lat="42.38427" lon="2.05229">
        <ele>1852.12</ele>
        <time>2017-02-09T11:48:04Z</time>
      </trkpt>
      <trkpt lat="42.38436" lon="2.05145">
        <ele>1847.79</ele>
        <time>2017-02-09T11:48:22Z</time>
      </trkpt>
      <trkpt lat="42.38437" lon="2.0509">
        <ele>1844.43</ele>
        <time>2017-02-09T11:48:33Z</time>
      </trkpt>
      <trkpt lat="42.3844" lon="2.05029">
        <ele>1840.58</ele>
        <time>2017-02-09T11:48:44Z</time>
      </trkpt>
      <trkpt lat="42.38387" lon="2.04935">
        <ele>1834.33</ele>
        <time>2017-02-09T11:49:09Z</time>
      </trkpt>
      <trkpt lat="42.38375" lon="2.04895">
        <ele>1830.97</ele>
        <time>2017-02-09T11:49:19Z</time>
      </trkpt>
      <trkpt lat="42.38311" lon="2.04802">
        <ele>1824.72</ele>
        <time>2017-02-09T11:49:45Z</time>
      </trkpt>
      <trkpt lat="42.38262" lon="2.0478">
        <ele>1821.35</ele>
        <time>2017-02-09T11:49:58Z</time>
      </trkpt>
      <trkpt lat="42.38207" lon="2.04774">
        <ele>1817.99</ele>
        <time>2017-02-09T11:50:18Z</time>
      </trkpt>
      <trkpt lat="42.38092" lon="2.04764">
        <ele>1807.42</ele>
        <time>2017-02-09T11:50:53Z</time>
      </trkpt>
      <trkpt lat="42.38088" lon="2.04762">
        <ele>1807.42</ele>
        <time>2017-02-09T11:50:54Z</time>
      </trkpt>
      <trkpt lat="42.38074" lon="2.04757">
        <ele>1806.45</ele>
        <time>2017-02-09T11:50:57Z</time>
      </trkpt>
      <trkpt lat="42.38021" lon="2.0474">
        <ele>1802.13</ele>
        <time>2017-02-09T11:51:16Z</time>
      </trkpt>
      <trkpt lat="42.38022" lon="2.04702">
        <ele>1793.96</ele>
        <time>2017-02-09T11:51:52Z</time>
      </trkpt>
      <trkpt lat="42.38055" lon="2.047">
        <ele>1790.59</ele>
        <time>2017-02-09T11:52:03Z</time>
      </trkpt>
      <trkpt lat="42.3809" lon="2.04689">
        <ele>1787.23</ele>
        <time>2017-02-09T11:52:15Z</time>
      </trkpt>
      <trkpt lat="42.38094" lon="2.04687">
        <ele>1786.75</ele>
        <time>2017-02-09T11:52:16Z</time>
      </trkpt>
      <trkpt lat="42.38138" lon="2.04662">
        <ele>1782.9</ele>
        <time>2017-02-09T11:52:29Z</time>
      </trkpt>
      <trkpt lat="42.38184" lon="2.04642">
        <ele>1778.58</ele>
        <time>2017-02-09T11:52:42Z</time>
      </trkpt>
      <trkpt lat="42.38246" lon="2.04642">
        <ele>1773.77</ele>
        <time>2017-02-09T11:52:57Z</time>
      </trkpt>
      <trkpt lat="42.38299" lon="2.04628">
        <ele>1769.44</ele>
        <time>2017-02-09T11:53:05Z</time>
      </trkpt>
      <trkpt lat="42.38375" lon="2.04592">
        <ele>1765.6</ele>
        <time>2017-02-09T11:53:16Z</time>
      </trkpt>
      <trkpt lat="42.38381" lon="2.0459">
        <ele>1765.6</ele>
        <time>2017-02-09T11:53:17Z</time>
      </trkpt>
      <trkpt lat="42.38452" lon="2.04566">
        <ele>1760.31</ele>
        <time>2017-02-09T11:53:37Z</time>
      </trkpt>
      <trkpt lat="42.38476" lon="2.04573">
        <ele>1760.79</ele>
        <time>2017-02-09T11:53:45Z</time>
      </trkpt>
      <trkpt lat="42.38486" lon="2.04585">
        <ele>1760.31</ele>
        <time>2017-02-09T11:54:23Z</time>
      </trkpt>
      <trkpt lat="42.3852" lon="2.04632">
        <ele>1756.95</ele>
        <time>2017-02-09T11:54:37Z</time>
      </trkpt>
      <trkpt lat="42.38556" lon="2.0468">
        <ele>1752.62</ele>
        <time>2017-02-09T11:54:49Z</time>
      </trkpt>
      <trkpt lat="42.3856" lon="2.04679">
        <ele>1752.62</ele>
        <time>2017-02-09T11:54:50Z</time>
      </trkpt>
      <trkpt lat="42.38566" lon="2.04617">
        <ele>1747.33</ele>
        <time>2017-02-09T11:55:10Z</time>
      </trkpt>
      <trkpt lat="42.38565" lon="2.04615">
        <ele>1747.33</ele>
        <time>2017-02-09T11:55:34Z</time>
      </trkpt>
      <trkpt lat="42.38572" lon="2.04592">
        <ele>1742.53</ele>
        <time>2017-02-09T11:55:41Z</time>
      </trkpt>
      <trkpt lat="42.38579" lon="2.0456">
        <ele>1738.2</ele>
        <time>2017-02-09T11:55:48Z</time>
      </trkpt>
      <trkpt lat="42.3859" lon="2.04508">
        <ele>1731.47</ele>
        <time>2017-02-09T11:56:00Z</time>
      </trkpt>
      <trkpt lat="42.38595" lon="2.04483">
        <ele>1728.11</ele>
        <time>2017-02-09T11:56:06Z</time>
      </trkpt>
      <trkpt lat="42.38603" lon="2.04436">
        <ele>1721.86</ele>
        <time>2017-02-09T11:56:19Z</time>
      </trkpt>
      <trkpt lat="42.38603" lon="2.04432">
        <ele>1721.86</ele>
        <time>2017-02-09T11:56:20Z</time>
      </trkpt>
      <trkpt lat="42.38606" lon="2.04396">
        <ele>1716.09</ele>
        <time>2017-02-09T11:56:28Z</time>
      </trkpt>
      <trkpt lat="42.38608" lon="2.04384">
        <ele>1713.69</ele>
        <time>2017-02-09T11:56:30Z</time>
      </trkpt>
      <trkpt lat="42.38614" lon="2.04357">
        <ele>1710.32</ele>
        <time>2017-02-09T11:56:35Z</time>
      </trkpt>
      <trkpt lat="42.3861" lon="2.04311">
        <ele>1704.55</ele>
        <time>2017-02-09T11:56:43Z</time>
      </trkpt>
      <trkpt lat="42.3861" lon="2.0429">
        <ele>1700.23</ele>
        <time>2017-02-09T11:56:46Z</time>
      </trkpt>
      <trkpt lat="42.38632" lon="2.04239">
        <ele>1695.9</ele>
        <time>2017-02-09T11:56:58Z</time>
      </trkpt>
      <trkpt lat="42.38636" lon="2.04213">
        <ele>1692.06</ele>
        <time>2017-02-09T11:57:13Z</time>
      </trkpt>
      <trkpt lat="42.3865" lon="2.04198">
        <ele>1688.69</ele>
        <time>2017-02-09T11:57:18Z</time>
      </trkpt>
      <trkpt lat="42.38683" lon="2.0423">
        <ele>1685.33</ele>
        <time>2017-02-09T11:57:33Z</time>
      </trkpt>
      <trkpt lat="42.38706" lon="2.04264">
        <ele>1681.96</ele>
        <time>2017-02-09T11:58:34Z</time>
      </trkpt>
      <trkpt lat="42.38708" lon="2.04263">
        <ele>1681.96</ele>
        <time>2017-02-09T11:58:35Z</time>
      </trkpt>
      <trkpt lat="42.38711" lon="2.0423">
        <ele>1676.68</ele>
        <time>2017-02-09T11:58:47Z</time>
      </trkpt>
      <trkpt lat="42.38709" lon="2.04177">
        <ele>1672.83</ele>
        <time>2017-02-09T11:59:00Z</time>
      </trkpt>
      <trkpt lat="42.38707" lon="2.0416">
        <ele>1671.39</ele>
        <time>2017-02-09T11:59:04Z</time>
      </trkpt>
      <trkpt lat="42.38702" lon="2.04121">
        <ele>1667.06</ele>
        <time>2017-02-09T11:59:10Z</time>
      </trkpt>
      <trkpt lat="42.38701" lon="2.04104">
        <ele>1665.62</ele>
        <time>2017-02-09T11:59:12Z</time>
      </trkpt>
      <trkpt lat="42.38694" lon="2.04081">
        <ele>1661.3</ele>
        <time>2017-02-09T11:59:16Z</time>
      </trkpt>
      <trkpt lat="42.38692" lon="2.04071">
        <ele>1661.3</ele>
        <time>2017-02-09T11:59:18Z</time>
      </trkpt>
      <trkpt lat="42.38675" lon="2.04041">
        <ele>1656.49</ele>
        <time>2017-02-09T11:59:26Z</time>
      </trkpt>
      <trkpt lat="42.38643" lon="2.04041">
        <ele>1652.16</ele>
        <time>2017-02-09T11:59:36Z</time>
      </trkpt>
      <trkpt lat="42.38642" lon="2.04039">
        <ele>1652.16</ele>
        <time>2017-02-09T11:59:37Z</time>
      </trkpt>
      <trkpt lat="42.38679" lon="2.03999">
        <ele>1647.36</ele>
        <time>2017-02-09T12:00:00Z</time>
      </trkpt>
      <trkpt lat="42.38681" lon="2.03997">
        <ele>1647.36</ele>
        <time>2017-02-09T12:00:29Z</time>
      </trkpt>
      <trkpt lat="42.3869" lon="2.04">
        <ele>1646.88</ele>
        <time>2017-02-09T12:01:00Z</time>
      </trkpt>
      <trkpt lat="42.38727" lon="2.04034">
        <ele>1642.07</ele>
        <time>2017-02-09T12:01:14Z</time>
      </trkpt>
      <trkpt lat="42.38725" lon="2.03991">
        <ele>1636.3</ele>
        <time>2017-02-09T12:01:34Z</time>
      </trkpt>
      <trkpt lat="42.38701" lon="2.03928">
        <ele>1631.98</ele>
        <time>2017-02-09T12:01:45Z</time>
      </trkpt>
      <trkpt lat="42.38674" lon="2.03926">
        <ele>1628.61</ele>
        <time>2017-02-09T12:01:51Z</time>
      </trkpt>
      <trkpt lat="42.38618" lon="2.03978">
        <ele>1623.8</ele>
        <time>2017-02-09T12:02:05Z</time>
      </trkpt>
      <trkpt lat="42.38586" lon="2.04008">
        <ele>1618.52</ele>
        <time>2017-02-09T12:02:13Z</time>
      </trkpt>
      <trkpt lat="42.38535" lon="2.04054">
        <ele>1614.67</ele>
        <time>2017-02-09T12:02:26Z</time>
      </trkpt>
      <trkpt lat="42.38493" lon="2.04087">
        <ele>1611.79</ele>
        <time>2017-02-09T12:02:38Z</time>
      </trkpt>
      <trkpt lat="42.38415" lon="2.04117">
        <ele>1605.06</ele>
        <time>2017-02-09T12:02:58Z</time>
      </trkpt>
      <trkpt lat="42.38364" lon="2.04125">
        <ele>1601.21</ele>
        <time>2017-02-09T12:03:10Z</time>
      </trkpt>
      <trkpt lat="42.38359" lon="2.04124">
        <ele>1601.21</ele>
        <time>2017-02-09T12:03:11Z</time>
      </trkpt>
      <trkpt lat="42.38305" lon="2.04112">
        <ele>1597.37</ele>
        <time>2017-02-09T12:03:47Z</time>
      </trkpt>
      <trkpt lat="42.38329" lon="2.04111">
        <ele>1594</ele>
        <time>2017-02-09T12:04:00Z</time>
      </trkpt>
      <trkpt lat="42.38426" lon="2.04074">
        <ele>1587.75</ele>
        <time>2017-02-09T12:04:33Z</time>
      </trkpt>
      <trkpt lat="42.385" lon="2.04001">
        <ele>1581.03</ele>
        <time>2017-02-09T12:05:05Z</time>
      </trkpt>
      <trkpt lat="42.38505" lon="2.03997">
        <ele>1581.03</ele>
        <time>2017-02-09T12:05:17Z</time>
      </trkpt>
      <trkpt lat="42.38529" lon="2.03965">
        <ele>1577.66</ele>
        <time>2017-02-09T12:05:30Z</time>
      </trkpt>
      <trkpt lat="42.38542" lon="2.03947">
        <ele>1576.7</ele>
        <time>2017-02-09T12:05:36Z</time>
      </trkpt>
      <trkpt lat="42.38544" lon="2.03946">
        <ele>1576.7</ele>
        <time>2017-02-09T12:05:37Z</time>
      </trkpt>
      <trkpt lat="42.38565" lon="2.03911">
        <ele>1573.33</ele>
        <time>2017-02-09T12:05:47Z</time>
      </trkpt>
      <trkpt lat="42.38568" lon="2.03907">
        <ele>1573.33</ele>
        <time>2017-02-09T12:05:48Z</time>
      </trkpt>
      <trkpt lat="42.38579" lon="2.0389">
        <ele>1570.93</ele>
        <time>2017-02-09T12:05:52Z</time>
      </trkpt>
      <trkpt lat="42.38608" lon="2.03845">
        <ele>1567.57</ele>
        <time>2017-02-09T12:06:04Z</time>
      </trkpt>
      <trkpt lat="42.38659" lon="2.03756">
        <ele>1561.8</ele>
        <time>2017-02-09T12:06:27Z</time>
      </trkpt>
      <trkpt lat="42.38697" lon="2.0371">
        <ele>1557.95</ele>
        <time>2017-02-09T12:06:41Z</time>
      </trkpt>
      <trkpt lat="42.38737" lon="2.0369">
        <ele>1554.59</ele>
        <time>2017-02-09T12:06:53Z</time>
      </trkpt>
      <trkpt lat="42.38773" lon="2.03724">
        <ele>1549.78</ele>
        <time>2017-02-09T12:07:05Z</time>
      </trkpt>
      <trkpt lat="42.3881" lon="2.03753">
        <ele>1545.46</ele>
        <time>2017-02-09T12:08:24Z</time>
      </trkpt>
      <trkpt lat="42.38799" lon="2.03712">
        <ele>1543.53</ele>
        <time>2017-02-09T12:11:27Z</time>
      </trkpt>
      <trkpt lat="42.38776" lon="2.03666">
        <ele>1539.21</ele>
        <time>2017-02-09T12:12:07Z</time>
      </trkpt>
      <trkpt lat="42.38777" lon="2.03658">
        <ele>1535.36</ele>
        <time>2017-02-09T12:12:24Z</time>
      </trkpt>
      <trkpt lat="42.38783" lon="2.03654">
        <ele>1531.52</ele>
        <time>2017-02-09T12:12:41Z</time>
      </trkpt>
      <trkpt lat="42.38783" lon="2.03654">
        <ele>1531.52</ele>
        <time>2017-02-09T12:12:42Z</time>
      </trkpt>
      <trkpt lat="42.38787" lon="2.03657">
        <ele>1527.67</ele>
        <time>2017-02-09T12:12:51Z</time>
      </trkpt>
      <trkpt lat="42.38794" lon="2.03652">
        <ele>1524.31</ele>
        <time>2017-02-09T12:13:02Z</time>
      </trkpt>
      <trkpt lat="42.388" lon="2.03648">
        <ele>1520.46</ele>
        <time>2017-02-09T12:13:12Z</time>
      </trkpt>
      <trkpt lat="42.38803" lon="2.0364">
        <ele>1517.1</ele>
        <time>2017-02-09T12:13:24Z</time>
      </trkpt>
      <trkpt lat="42.38807" lon="2.03632">
        <ele>1512.77</ele>
        <time>2017-02-09T12:13:34Z</time>
      </trkpt>
      <trkpt lat="42.38708" lon="2.03553">
        <ele>1507.97</ele>
        <time>2017-02-09T12:15:32Z</time>
      </trkpt>
      <trkpt lat="42.38708" lon="2.03509">
        <ele>1499.31</ele>
        <time>2017-02-09T12:16:05Z</time>
      </trkpt>
      <trkpt lat="42.38713" lon="2.03506">
        <ele>1502.68</ele>
        <time>2017-02-09T12:21:05Z</time>
      </trkpt>
      <trkpt lat="42.38754" lon="2.03461">
        <ele>1495.47</ele>
        <time>2017-02-09T12:22:40Z</time>
      </trkpt>
    </trkseg>
  </trk>
  <trk>
    <name><![CDATA[TPS1 09 FEB 2016 PM]]></name>
    <trkseg>
      <trkpt lat="42.53005" lon="2.02117">
        <ele>2056.4</ele>
        <time>2017-02-09T13:57:34Z</time>
      </trkpt>
      <trkpt lat="42.53102" lon="2.02122">
        <ele>2054.96</ele>
        <time>2017-02-09T14:16:05Z</time>
      </trkpt>
      <trkpt lat="42.53147" lon="2.02128">
        <ele>2059.28</ele>
        <time>2017-02-09T14:17:08Z</time>
      </trkpt>
      <trkpt lat="42.53162" lon="2.02144">
        <ele>2063.61</ele>
        <time>2017-02-09T14:17:44Z</time>
      </trkpt>
      <trkpt lat="42.53182" lon="2.02164">
        <ele>2068.89</ele>
        <time>2017-02-09T14:18:30Z</time>
      </trkpt>
      <trkpt lat="42.53201" lon="2.02182">
        <ele>2072.74</ele>
        <time>2017-02-09T14:19:13Z</time>
      </trkpt>
      <trkpt lat="42.53217" lon="2.02206">
        <ele>2077.07</ele>
        <time>2017-02-09T14:19:57Z</time>
      </trkpt>
      <trkpt lat="42.53235" lon="2.02228">
        <ele>2081.87</ele>
        <time>2017-02-09T14:20:43Z</time>
      </trkpt>
      <trkpt lat="42.53253" lon="2.02242">
        <ele>2087.16</ele>
        <time>2017-02-09T14:21:36Z</time>
      </trkpt>
      <trkpt lat="42.53269" lon="2.02259">
        <ele>2091.97</ele>
        <time>2017-02-09T14:22:27Z</time>
      </trkpt>
      <trkpt lat="42.5328" lon="2.0228">
        <ele>2097.25</ele>
        <time>2017-02-09T14:23:37Z</time>
      </trkpt>
      <trkpt lat="42.53287" lon="2.02289">
        <ele>2100.62</ele>
        <time>2017-02-09T14:23:59Z</time>
      </trkpt>
      <trkpt lat="42.53299" lon="2.02308">
        <ele>2104.94</ele>
        <time>2017-02-09T14:24:52Z</time>
      </trkpt>
      <trkpt lat="42.53315" lon="2.02327">
        <ele>2111.19</ele>
        <time>2017-02-09T14:25:35Z</time>
      </trkpt>
      <trkpt lat="42.53328" lon="2.02351">
        <ele>2117.44</ele>
        <time>2017-02-09T14:26:22Z</time>
      </trkpt>
      <trkpt lat="42.53343" lon="2.02372">
        <ele>2123.69</ele>
        <time>2017-02-09T14:27:06Z</time>
      </trkpt>
      <trkpt lat="42.5336" lon="2.02372">
        <ele>2128.98</ele>
        <time>2017-02-09T14:27:42Z</time>
      </trkpt>
      <trkpt lat="42.53373" lon="2.0239">
        <ele>2133.78</ele>
        <time>2017-02-09T14:28:22Z</time>
      </trkpt>
      <trkpt lat="42.53381" lon="2.02392">
        <ele>2137.15</ele>
        <time>2017-02-09T14:28:43Z</time>
      </trkpt>
      <trkpt lat="42.53401" lon="2.02399">
        <ele>2142.92</ele>
        <time>2017-02-09T14:29:20Z</time>
      </trkpt>
      <trkpt lat="42.53425" lon="2.0238">
        <ele>2147.24</ele>
        <time>2017-02-09T14:30:03Z</time>
      </trkpt>
      <trkpt lat="42.53425" lon="2.02359">
        <ele>2147.24</ele>
        <time>2017-02-09T14:30:22Z</time>
      </trkpt>
      <trkpt lat="42.53439" lon="2.02325">
        <ele>2151.09</ele>
        <time>2017-02-09T14:31:05Z</time>
      </trkpt>
      <trkpt lat="42.53444" lon="2.02309">
        <ele>2154.45</ele>
        <time>2017-02-09T14:31:22Z</time>
      </trkpt>
      <trkpt lat="42.53445" lon="2.02306">
        <ele>2153.01</ele>
        <time>2017-02-09T14:31:26Z</time>
      </trkpt>
      <trkpt lat="42.53467" lon="2.02245">
        <ele>2156.86</ele>
        <time>2017-02-09T14:32:45Z</time>
      </trkpt>
      <trkpt lat="42.53478" lon="2.0221">
        <ele>2161.66</ele>
        <time>2017-02-09T14:33:28Z</time>
      </trkpt>
      <trkpt lat="42.53482" lon="2.02176">
        <ele>2166.95</ele>
        <time>2017-02-09T14:34:11Z</time>
      </trkpt>
      <trkpt lat="42.53484" lon="2.02144">
        <ele>2171.76</ele>
        <time>2017-02-09T14:34:50Z</time>
      </trkpt>
      <trkpt lat="42.53511" lon="2.02064">
        <ele>2178.48</ele>
        <time>2017-02-09T14:36:21Z</time>
      </trkpt>
      <trkpt lat="42.53522" lon="2.02035">
        <ele>2182.33</ele>
        <time>2017-02-09T14:36:58Z</time>
      </trkpt>
      <trkpt lat="42.53523" lon="2.02028">
        <ele>2182.33</ele>
        <time>2017-02-09T14:37:05Z</time>
      </trkpt>
      <trkpt lat="42.53537" lon="2.01996">
        <ele>2185.69</ele>
        <time>2017-02-09T14:37:44Z</time>
      </trkpt>
      <trkpt lat="42.53548" lon="2.01966">
        <ele>2189.54</ele>
        <time>2017-02-09T14:38:23Z</time>
      </trkpt>
      <trkpt lat="42.53551" lon="2.01932">
        <ele>2194.83</ele>
        <time>2017-02-09T14:39:05Z</time>
      </trkpt>
      <trkpt lat="42.53553" lon="2.0188">
        <ele>2199.63</ele>
        <time>2017-02-09T14:39:59Z</time>
      </trkpt>
      <trkpt lat="42.53554" lon="2.01879">
        <ele>2199.63</ele>
        <time>2017-02-09T14:40:00Z</time>
      </trkpt>
      <trkpt lat="42.53648" lon="2.0165">
        <ele>2199.63</ele>
        <time>2017-02-09T14:51:17Z</time>
      </trkpt>
      <trkpt lat="42.5367" lon="2.01618">
        <ele>2195.79</ele>
        <time>2017-02-09T14:51:30Z</time>
      </trkpt>
      <trkpt lat="42.53687" lon="2.01594">
        <ele>2193.39</ele>
        <time>2017-02-09T14:51:35Z</time>
      </trkpt>
      <trkpt lat="42.53689" lon="2.01588">
        <ele>2193.39</ele>
        <time>2017-02-09T14:51:36Z</time>
      </trkpt>
      <trkpt lat="42.53692" lon="2.01581">
        <ele>2191.46</ele>
        <time>2017-02-09T14:51:37Z</time>
      </trkpt>
      <trkpt lat="42.5371" lon="2.01546">
        <ele>2188.1</ele>
        <time>2017-02-09T14:51:43Z</time>
      </trkpt>
      <trkpt lat="42.53742" lon="2.01507">
        <ele>2181.85</ele>
        <time>2017-02-09T14:51:53Z</time>
      </trkpt>
      <trkpt lat="42.53763" lon="2.01487">
        <ele>2176.08</ele>
        <time>2017-02-09T14:51:56Z</time>
      </trkpt>
      <trkpt lat="42.5377" lon="2.01482">
        <ele>2173.68</ele>
        <time>2017-02-09T14:51:57Z</time>
      </trkpt>
      <trkpt lat="42.53796" lon="2.01464">
        <ele>2163.58</ele>
        <time>2017-02-09T14:52:00Z</time>
      </trkpt>
      <trkpt lat="42.53805" lon="2.01456">
        <ele>2163.58</ele>
        <time>2017-02-09T14:52:01Z</time>
      </trkpt>
      <trkpt lat="42.53819" lon="2.01437">
        <ele>2155.89</ele>
        <time>2017-02-09T14:52:03Z</time>
      </trkpt>
      <trkpt lat="42.53825" lon="2.01429">
        <ele>2155.89</ele>
        <time>2017-02-09T14:52:04Z</time>
      </trkpt>
      <trkpt lat="42.53832" lon="2.01421">
        <ele>2152.53</ele>
        <time>2017-02-09T14:52:05Z</time>
      </trkpt>
      <trkpt lat="42.53862" lon="2.01388">
        <ele>2144.36</ele>
        <time>2017-02-09T14:52:09Z</time>
      </trkpt>
      <trkpt lat="42.53882" lon="2.0137">
        <ele>2140.03</ele>
        <time>2017-02-09T14:52:12Z</time>
      </trkpt>
      <trkpt lat="42.53903" lon="2.01332">
        <ele>2127.05</ele>
        <time>2017-02-09T14:52:17Z</time>
      </trkpt>
      <trkpt lat="42.53917" lon="2.01328">
        <ele>2123.21</ele>
        <time>2017-02-09T14:52:19Z</time>
      </trkpt>
      <trkpt lat="42.53925" lon="2.01316">
        <ele>2119.84</ele>
        <time>2017-02-09T14:52:22Z</time>
      </trkpt>
      <trkpt lat="42.5393" lon="2.01313">
        <ele>2116</ele>
        <time>2017-02-09T14:52:24Z</time>
      </trkpt>
      <trkpt lat="42.53925" lon="2.01313">
        <ele>2117.44</ele>
        <time>2017-02-09T14:52:46Z</time>
      </trkpt>
      <trkpt lat="42.53927" lon="2.01312">
        <ele>2117.44</ele>
        <time>2017-02-09T14:53:04Z</time>
      </trkpt>
      <trkpt lat="42.53933" lon="2.01297">
        <ele>2113.12</ele>
        <time>2017-02-09T14:53:08Z</time>
      </trkpt>
      <trkpt lat="42.53943" lon="2.01293">
        <ele>2109.27</ele>
        <time>2017-02-09T14:53:10Z</time>
      </trkpt>
      <trkpt lat="42.53951" lon="2.01281">
        <ele>2104.94</ele>
        <time>2017-02-09T14:53:12Z</time>
      </trkpt>
      <trkpt lat="42.53955" lon="2.01268">
        <ele>2098.21</ele>
        <time>2017-02-09T14:53:14Z</time>
      </trkpt>
      <trkpt lat="42.53971" lon="2.01254">
        <ele>2091.49</ele>
        <time>2017-02-09T14:53:17Z</time>
      </trkpt>
      <trkpt lat="42.53977" lon="2.01248">
        <ele>2086.68</ele>
        <time>2017-02-09T14:53:18Z</time>
      </trkpt>
      <trkpt lat="42.53984" lon="2.0124">
        <ele>2088.6</ele>
        <time>2017-02-09T14:53:19Z</time>
      </trkpt>
      <trkpt lat="42.54003" lon="2.01222">
        <ele>2076.59</ele>
        <time>2017-02-09T14:53:22Z</time>
      </trkpt>
      <trkpt lat="42.5401" lon="2.01221">
        <ele>2077.07</ele>
        <time>2017-02-09T14:53:23Z</time>
      </trkpt>
      <trkpt lat="42.5403" lon="2.01217">
        <ele>2073.7</ele>
        <time>2017-02-09T14:53:26Z</time>
      </trkpt>
      <trkpt lat="42.54035" lon="2.01218">
        <ele>2073.7</ele>
        <time>2017-02-09T14:53:27Z</time>
      </trkpt>
      <trkpt lat="42.54076" lon="2.01201">
        <ele>2063.61</ele>
        <time>2017-02-09T14:53:33Z</time>
      </trkpt>
      <trkpt lat="42.54084" lon="2.01184">
        <ele>2057.84</ele>
        <time>2017-02-09T14:53:35Z</time>
      </trkpt>
      <trkpt lat="42.54113" lon="2.0111">
        <ele>2050.15</ele>
        <time>2017-02-09T14:53:43Z</time>
      </trkpt>
      <trkpt lat="42.54135" lon="2.01072">
        <ele>2045.34</ele>
        <time>2017-02-09T14:53:48Z</time>
      </trkpt>
      <trkpt lat="42.54138" lon="2.01068">
        <ele>2045.34</ele>
        <time>2017-02-09T14:53:49Z</time>
      </trkpt>
      <trkpt lat="42.54142" lon="2.01055">
        <ele>2045.34</ele>
        <time>2017-02-09T14:53:56Z</time>
      </trkpt>
      <trkpt lat="42.54149" lon="2.0103">
        <ele>2041.98</ele>
        <time>2017-02-09T14:54:13Z</time>
      </trkpt>
      <trkpt lat="42.5417" lon="2.0102">
        <ele>2038.61</ele>
        <time>2017-02-09T14:54:22Z</time>
      </trkpt>
      <trkpt lat="42.54184" lon="2.01002">
        <ele>2033.33</ele>
        <time>2017-02-09T14:54:25Z</time>
      </trkpt>
      <trkpt lat="42.54189" lon="2.00995">
        <ele>2033.33</ele>
        <time>2017-02-09T14:54:26Z</time>
      </trkpt>
      <trkpt lat="42.54192" lon="2.00987">
        <ele>2031.88</ele>
        <time>2017-02-09T14:54:27Z</time>
      </trkpt>
      <trkpt lat="42.54195" lon="2.00978">
        <ele>2029.96</ele>
        <time>2017-02-09T14:54:28Z</time>
      </trkpt>
      <trkpt lat="42.54206" lon="2.00963">
        <ele>2024.67</ele>
        <time>2017-02-09T14:54:30Z</time>
      </trkpt>
      <trkpt lat="42.54228" lon="2.0094">
        <ele>2017.94</ele>
        <time>2017-02-09T14:54:34Z</time>
      </trkpt>
      <trkpt lat="42.54233" lon="2.00932">
        <ele>2017.94</ele>
        <time>2017-02-09T14:54:35Z</time>
      </trkpt>
      <trkpt lat="42.54237" lon="2.00923">
        <ele>2014.1</ele>
        <time>2017-02-09T14:54:36Z</time>
      </trkpt>
      <trkpt lat="42.54242" lon="2.00915">
        <ele>2010.25</ele>
        <time>2017-02-09T14:54:37Z</time>
      </trkpt>
      <trkpt lat="42.54247" lon="2.00907">
        <ele>2012.18</ele>
        <time>2017-02-09T14:54:38Z</time>
      </trkpt>
      <trkpt lat="42.54253" lon="2.00889">
        <ele>2005.93</ele>
        <time>2017-02-09T14:54:40Z</time>
      </trkpt>
      <trkpt lat="42.54261" lon="2.00875">
        <ele>2002.56</ele>
        <time>2017-02-09T14:54:42Z</time>
      </trkpt>
      <trkpt lat="42.54272" lon="2.00869">
        <ele>1998.24</ele>
        <time>2017-02-09T14:54:44Z</time>
      </trkpt>
      <trkpt lat="42.54278" lon="2.00865">
        <ele>1998.24</ele>
        <time>2017-02-09T14:54:45Z</time>
      </trkpt>
      <trkpt lat="42.5429" lon="2.00855">
        <ele>1991.03</ele>
        <time>2017-02-09T14:54:47Z</time>
      </trkpt>
      <trkpt lat="42.54295" lon="2.0085">
        <ele>1992.95</ele>
        <time>2017-02-09T14:54:48Z</time>
      </trkpt>
      <trkpt lat="42.54305" lon="2.00829">
        <ele>1987.18</ele>
        <time>2017-02-09T14:54:51Z</time>
      </trkpt>
      <trkpt lat="42.54311" lon="2.0081">
        <ele>1981.9</ele>
        <time>2017-02-09T14:54:55Z</time>
      </trkpt>
      <trkpt lat="42.54311" lon="2.00807">
        <ele>1982.38</ele>
        <time>2017-02-09T14:54:56Z</time>
      </trkpt>
      <trkpt lat="42.54313" lon="2.00803">
        <ele>1979.01</ele>
        <time>2017-02-09T14:54:59Z</time>
      </trkpt>
      <trkpt lat="42.54316" lon="2.00798">
        <ele>1975.17</ele>
        <time>2017-02-09T14:55:01Z</time>
      </trkpt>
      <trkpt lat="42.54323" lon="2.0079">
        <ele>1974.2</ele>
        <time>2017-02-09T14:55:34Z</time>
      </trkpt>
      <trkpt lat="42.54313" lon="2.00771">
        <ele>1967.48</ele>
        <time>2017-02-09T14:55:38Z</time>
      </trkpt>
      <trkpt lat="42.54313" lon="2.00762">
        <ele>1963.15</ele>
        <time>2017-02-09T14:55:39Z</time>
      </trkpt>
      <trkpt lat="42.54315" lon="2.00752">
        <ele>1958.34</ele>
        <time>2017-02-09T14:55:40Z</time>
      </trkpt>
      <trkpt lat="42.54319" lon="2.00741">
        <ele>1954.5</ele>
        <time>2017-02-09T14:55:41Z</time>
      </trkpt>
      <trkpt lat="42.54328" lon="2.00719">
        <ele>1948.73</ele>
        <time>2017-02-09T14:55:43Z</time>
      </trkpt>
      <trkpt lat="42.54334" lon="2.00696">
        <ele>1944.4</ele>
        <time>2017-02-09T14:55:45Z</time>
      </trkpt>
      <trkpt lat="42.54335" lon="2.00683">
        <ele>1940.08</ele>
        <time>2017-02-09T14:55:46Z</time>
      </trkpt>
      <trkpt lat="42.5435" lon="2.00652">
        <ele>1939.6</ele>
        <time>2017-02-09T14:56:44Z</time>
      </trkpt>
      <trkpt lat="42.54346" lon="2.00625">
        <ele>1931.91</ele>
        <time>2017-02-09T14:56:49Z</time>
      </trkpt>
      <trkpt lat="42.54408" lon="2.00541">
        <ele>1925.66</ele>
        <time>2017-02-09T15:01:36Z</time>
      </trkpt>
      <trkpt lat="42.54453" lon="2.00472">
        <ele>1929.02</ele>
        <time>2017-02-09T15:07:30Z</time>
      </trkpt>
      <trkpt lat="42.54511" lon="2.00442">
        <ele>1933.35</ele>
        <time>2017-02-09T15:09:01Z</time>
      </trkpt>
      <trkpt lat="42.54556" lon="2.00435">
        <ele>1938.16</ele>
        <time>2017-02-09T15:10:06Z</time>
      </trkpt>
      <trkpt lat="42.54584" lon="2.00408">
        <ele>1941.52</ele>
        <time>2017-02-09T15:10:54Z</time>
      </trkpt>
      <trkpt lat="42.54591" lon="2.00363">
        <ele>1946.33</ele>
        <time>2017-02-09T15:11:48Z</time>
      </trkpt>
      <trkpt lat="42.54726" lon="2.00341">
        <ele>1952.09</ele>
        <time>2017-02-09T15:14:19Z</time>
      </trkpt>
      <trkpt lat="42.54773" lon="2.0033">
        <ele>1955.94</ele>
        <time>2017-02-09T15:15:09Z</time>
      </trkpt>
      <trkpt lat="42.54841" lon="2.00298">
        <ele>1959.78</ele>
        <time>2017-02-09T15:16:22Z</time>
      </trkpt>
      <trkpt lat="42.54869" lon="2.00291">
        <ele>1963.63</ele>
        <time>2017-02-09T15:16:49Z</time>
      </trkpt>
      <trkpt lat="42.54955" lon="2.0027">
        <ele>1967.48</ele>
        <time>2017-02-09T15:18:10Z</time>
      </trkpt>
      <trkpt lat="42.54982" lon="2.00263">
        <ele>1967.48</ele>
        <time>2017-02-09T15:18:31Z</time>
      </trkpt>
      <trkpt lat="42.55041" lon="2.00247">
        <ele>1970.84</ele>
        <time>2017-02-09T15:19:20Z</time>
      </trkpt>
      <trkpt lat="42.55042" lon="2.00246">
        <ele>1970.84</ele>
        <time>2017-02-09T15:19:22Z</time>
      </trkpt>
      <trkpt lat="42.55235" lon="2.00216">
        <ele>1976.61</ele>
        <time>2017-02-09T15:22:21Z</time>
      </trkpt>
      <trkpt lat="42.55288" lon="2.00225">
        <ele>1979.97</ele>
        <time>2017-02-09T15:23:11Z</time>
      </trkpt>
      <trkpt lat="42.55499" lon="2.00249">
        <ele>1985.26</ele>
        <time>2017-02-09T15:26:21Z</time>
      </trkpt>
      <trkpt lat="42.55609" lon="2.00254">
        <ele>1979.01</ele>
        <time>2017-02-09T15:27:49Z</time>
      </trkpt>
      <trkpt lat="42.55811" lon="2.00336">
        <ele>1985.26</ele>
        <time>2017-02-09T15:32:47Z</time>
      </trkpt>
      <trkpt lat="42.55843" lon="2.00331">
        <ele>1989.59</ele>
        <time>2017-02-09T15:33:35Z</time>
      </trkpt>
      <trkpt lat="42.55861" lon="2.00342">
        <ele>1994.39</ele>
        <time>2017-02-09T15:34:11Z</time>
      </trkpt>
      <trkpt lat="42.55871" lon="2.00348">
        <ele>1997.76</ele>
        <time>2017-02-09T15:34:31Z</time>
      </trkpt>
      <trkpt lat="42.55893" lon="2.00351">
        <ele>2002.56</ele>
        <time>2017-02-09T15:35:49Z</time>
      </trkpt>
    </trkseg>
  </trk>
  <trk>
    <name><![CDATA[TPS1 10 FEB 2016]]></name>
    <trkseg>
      <trkpt lat="42.5588" lon="2.00342">
        <ele>2007.85</ele>
        <time>2017-02-10T07:06:41Z</time>
      </trkpt>
      <trkpt lat="42.5588" lon="2.00342">
        <ele>2007.85</ele>
        <time>2017-02-10T07:06:42Z</time>
      </trkpt>
      <trkpt lat="42.55909" lon="2.00279">
        <ele>2006.41</ele>
        <time>2017-02-10T07:09:43Z</time>
      </trkpt>
      <trkpt lat="42.55954" lon="2.00153">
        <ele>2002.56</ele>
        <time>2017-02-10T07:11:14Z</time>
      </trkpt>
      <trkpt lat="42.55974" lon="2.00106">
        <ele>2004.49</ele>
        <time>2017-02-10T07:11:53Z</time>
      </trkpt>
      <trkpt lat="42.5599" lon="2.00036">
        <ele>2008.81</ele>
        <time>2017-02-10T07:13:05Z</time>
      </trkpt>
      <trkpt lat="42.55981" lon="1.99963">
        <ele>2012.66</ele>
        <time>2017-02-10T07:14:11Z</time>
      </trkpt>
      <trkpt lat="42.55967" lon="1.99918">
        <ele>2017.46</ele>
        <time>2017-02-10T07:15:01Z</time>
      </trkpt>
      <trkpt lat="42.55966" lon="1.99879">
        <ele>2020.83</ele>
        <time>2017-02-10T07:15:41Z</time>
      </trkpt>
      <trkpt lat="42.56028" lon="1.99768">
        <ele>2025.15</ele>
        <time>2017-02-10T07:18:05Z</time>
      </trkpt>
      <trkpt lat="42.56003" lon="1.99712">
        <ele>2029.48</ele>
        <time>2017-02-10T07:19:11Z</time>
      </trkpt>
      <trkpt lat="42.55994" lon="1.99665">
        <ele>2033.33</ele>
        <time>2017-02-10T07:19:52Z</time>
      </trkpt>
      <trkpt lat="42.55999" lon="1.9961">
        <ele>2036.69</ele>
        <time>2017-02-10T07:21:18Z</time>
      </trkpt>
      <trkpt lat="42.56004" lon="1.99576">
        <ele>2040.05</ele>
        <time>2017-02-10T07:21:56Z</time>
      </trkpt>
      <trkpt lat="42.56015" lon="1.9952">
        <ele>2044.86</ele>
        <time>2017-02-10T07:22:52Z</time>
      </trkpt>
      <trkpt lat="42.56025" lon="1.99488">
        <ele>2049.67</ele>
        <time>2017-02-10T07:23:31Z</time>
      </trkpt>
      <trkpt lat="42.5603" lon="1.99461">
        <ele>2053.03</ele>
        <time>2017-02-10T07:26:26Z</time>
      </trkpt>
      <trkpt lat="42.5603" lon="1.9945">
        <ele>2056.4</ele>
        <time>2017-02-10T07:26:40Z</time>
      </trkpt>
      <trkpt lat="42.56029" lon="1.99428">
        <ele>2061.68</ele>
        <time>2017-02-10T07:27:14Z</time>
      </trkpt>
      <trkpt lat="42.56014" lon="1.9941">
        <ele>2066.01</ele>
        <time>2017-02-10T07:27:50Z</time>
      </trkpt>
      <trkpt lat="42.56011" lon="1.99393">
        <ele>2070.34</ele>
        <time>2017-02-10T07:28:25Z</time>
      </trkpt>
      <trkpt lat="42.56009" lon="1.99369">
        <ele>2073.7</ele>
        <time>2017-02-10T07:28:57Z</time>
      </trkpt>
      <trkpt lat="42.56003" lon="1.99333">
        <ele>2072.26</ele>
        <time>2017-02-10T07:29:33Z</time>
      </trkpt>
      <trkpt lat="42.5602" lon="1.99123">
        <ele>2077.55</ele>
        <time>2017-02-10T07:32:21Z</time>
      </trkpt>
      <trkpt lat="42.56029" lon="1.99116">
        <ele>2080.91</ele>
        <time>2017-02-10T07:32:40Z</time>
      </trkpt>
      <trkpt lat="42.56023" lon="1.99083">
        <ele>2084.76</ele>
        <time>2017-02-10T07:33:16Z</time>
      </trkpt>
      <trkpt lat="42.56047" lon="1.99045">
        <ele>2084.28</ele>
        <time>2017-02-10T07:34:08Z</time>
      </trkpt>
      <trkpt lat="42.56116" lon="1.98933">
        <ele>2089.56</ele>
        <time>2017-02-10T07:35:53Z</time>
      </trkpt>
      <trkpt lat="42.56154" lon="1.98885">
        <ele>2092.93</ele>
        <time>2017-02-10T07:36:50Z</time>
      </trkpt>
      <trkpt lat="42.56163" lon="1.98871">
        <ele>2096.29</ele>
        <time>2017-02-10T07:37:11Z</time>
      </trkpt>
      <trkpt lat="42.56184" lon="1.98842">
        <ele>2101.58</ele>
        <time>2017-02-10T07:37:52Z</time>
      </trkpt>
      <trkpt lat="42.56221" lon="1.98805">
        <ele>2104.94</ele>
        <time>2017-02-10T07:38:51Z</time>
      </trkpt>
      <trkpt lat="42.56234" lon="1.98795">
        <ele>2104.94</ele>
        <time>2017-02-10T07:39:11Z</time>
      </trkpt>
      <trkpt lat="42.56258" lon="1.98767">
        <ele>2108.79</ele>
        <time>2017-02-10T07:39:53Z</time>
      </trkpt>
      <trkpt lat="42.56264" lon="1.98754">
        <ele>2112.15</ele>
        <time>2017-02-10T07:40:14Z</time>
      </trkpt>
      <trkpt lat="42.56264" lon="1.98743">
        <ele>2115.52</ele>
        <time>2017-02-10T07:40:33Z</time>
      </trkpt>
      <trkpt lat="42.56281" lon="1.98715">
        <ele>2119.84</ele>
        <time>2017-02-10T07:41:18Z</time>
      </trkpt>
      <trkpt lat="42.56297" lon="1.98694">
        <ele>2125.61</ele>
        <time>2017-02-10T07:41:56Z</time>
      </trkpt>
      <trkpt lat="42.56316" lon="1.98653">
        <ele>2129.46</ele>
        <time>2017-02-10T07:42:50Z</time>
      </trkpt>
      <trkpt lat="42.56338" lon="1.98625">
        <ele>2133.78</ele>
        <time>2017-02-10T07:43:29Z</time>
      </trkpt>
      <trkpt lat="42.56345" lon="1.98604">
        <ele>2139.55</ele>
        <time>2017-02-10T07:44:05Z</time>
      </trkpt>
      <trkpt lat="42.56344" lon="1.98603">
        <ele>2138.59</ele>
        <time>2017-02-10T07:44:35Z</time>
      </trkpt>
      <trkpt lat="42.56335" lon="1.9856">
        <ele>2143.4</ele>
        <time>2017-02-10T07:48:25Z</time>
      </trkpt>
      <trkpt lat="42.56366" lon="1.98373">
        <ele>2147.72</ele>
        <time>2017-02-10T07:51:15Z</time>
      </trkpt>
      <trkpt lat="42.56361" lon="1.98349">
        <ele>2147.72</ele>
        <time>2017-02-10T07:51:31Z</time>
      </trkpt>
      <trkpt lat="42.56341" lon="1.98309">
        <ele>2151.09</ele>
        <time>2017-02-10T07:52:17Z</time>
      </trkpt>
      <trkpt lat="42.56325" lon="1.9828">
        <ele>2157.34</ele>
        <time>2017-02-10T07:53:03Z</time>
      </trkpt>
      <trkpt lat="42.56313" lon="1.9825">
        <ele>2161.18</ele>
        <time>2017-02-10T07:53:43Z</time>
      </trkpt>
      <trkpt lat="42.56314" lon="1.98238">
        <ele>2164.55</ele>
        <time>2017-02-10T07:54:19Z</time>
      </trkpt>
      <trkpt lat="42.56305" lon="1.98217">
        <ele>2161.18</ele>
        <time>2017-02-10T07:56:49Z</time>
      </trkpt>
      <trkpt lat="42.56281" lon="1.98168">
        <ele>2157.34</ele>
        <time>2017-02-10T07:58:17Z</time>
      </trkpt>
      <trkpt lat="42.56263" lon="1.98129">
        <ele>2158.3</ele>
        <time>2017-02-10T07:59:31Z</time>
      </trkpt>
      <trkpt lat="42.56245" lon="1.98099">
        <ele>2154.93</ele>
        <time>2017-02-10T07:59:56Z</time>
      </trkpt>
      <trkpt lat="42.56177" lon="1.9807">
        <ele>2160.22</ele>
        <time>2017-02-10T08:02:29Z</time>
      </trkpt>
      <trkpt lat="42.5615" lon="1.98084">
        <ele>2164.06</ele>
        <time>2017-02-10T08:03:08Z</time>
      </trkpt>
      <trkpt lat="42.56109" lon="1.98061">
        <ele>2168.87</ele>
        <time>2017-02-10T08:04:12Z</time>
      </trkpt>
      <trkpt lat="42.56088" lon="1.98034">
        <ele>2173.68</ele>
        <time>2017-02-10T08:04:49Z</time>
      </trkpt>
      <trkpt lat="42.56077" lon="1.97988">
        <ele>2176.08</ele>
        <time>2017-02-10T08:05:41Z</time>
      </trkpt>
      <trkpt lat="42.56081" lon="1.97974">
        <ele>2176.08</ele>
        <time>2017-02-10T08:05:51Z</time>
      </trkpt>
      <trkpt lat="42.56085" lon="1.97954">
        <ele>2174.16</ele>
        <time>2017-02-10T08:06:02Z</time>
      </trkpt>
      <trkpt lat="42.56087" lon="1.97952">
        <ele>2174.16</ele>
        <time>2017-02-10T08:06:04Z</time>
      </trkpt>
      <trkpt lat="42.56115" lon="1.97865">
        <ele>2169.83</ele>
        <time>2017-02-10T08:07:06Z</time>
      </trkpt>
      <trkpt lat="42.56154" lon="1.97762">
        <ele>2161.18</ele>
        <time>2017-02-10T08:08:12Z</time>
      </trkpt>
      <trkpt lat="42.56144" lon="1.97609">
        <ele>2165.99</ele>
        <time>2017-02-10T08:10:12Z</time>
      </trkpt>
      <trkpt lat="42.5614" lon="1.97553">
        <ele>2169.35</ele>
        <time>2017-02-10T08:11:00Z</time>
      </trkpt>
      <trkpt lat="42.56201" lon="1.97148">
        <ele>2173.2</ele>
        <time>2017-02-10T08:15:44Z</time>
      </trkpt>
      <trkpt lat="42.56214" lon="1.9709">
        <ele>2176.56</ele>
        <time>2017-02-10T08:16:43Z</time>
      </trkpt>
      <trkpt lat="42.56203" lon="1.97062">
        <ele>2175.6</ele>
        <time>2017-02-10T08:17:06Z</time>
      </trkpt>
      <trkpt lat="42.56108" lon="1.96515">
        <ele>2178.97</ele>
        <time>2017-02-10T08:23:46Z</time>
      </trkpt>
      <trkpt lat="42.56102" lon="1.96371">
        <ele>2182.33</ele>
        <time>2017-02-10T08:25:55Z</time>
      </trkpt>
      <trkpt lat="42.56106" lon="1.96319">
        <ele>2186.66</ele>
        <time>2017-02-10T08:26:47Z</time>
      </trkpt>
      <trkpt lat="42.56099" lon="1.96305">
        <ele>2190.02</ele>
        <time>2017-02-10T08:27:32Z</time>
      </trkpt>
      <trkpt lat="42.56087" lon="1.96299">
        <ele>2194.35</ele>
        <time>2017-02-10T08:28:17Z</time>
      </trkpt>
      <trkpt lat="42.56078" lon="1.96281">
        <ele>2198.67</ele>
        <time>2017-02-10T08:29:42Z</time>
      </trkpt>
      <trkpt lat="42.56065" lon="1.96266">
        <ele>2203</ele>
        <time>2017-02-10T08:30:19Z</time>
      </trkpt>
      <trkpt lat="42.56048" lon="1.96252">
        <ele>2208.29</ele>
        <time>2017-02-10T08:32:36Z</time>
      </trkpt>
      <trkpt lat="42.5605" lon="1.96238">
        <ele>2212.13</ele>
        <time>2017-02-10T08:36:08Z</time>
      </trkpt>
      <trkpt lat="42.56051" lon="1.96225">
        <ele>2217.42</ele>
        <time>2017-02-10T08:36:47Z</time>
      </trkpt>
      <trkpt lat="42.56035" lon="1.96221">
        <ele>2222.71</ele>
        <time>2017-02-10T08:37:23Z</time>
      </trkpt>
      <trkpt lat="42.56038" lon="1.96207">
        <ele>2227.03</ele>
        <time>2017-02-10T08:38:01Z</time>
      </trkpt>
      <trkpt lat="42.56045" lon="1.96197">
        <ele>2231.36</ele>
        <time>2017-02-10T08:38:42Z</time>
      </trkpt>
      <trkpt lat="42.56029" lon="1.96193">
        <ele>2236.16</ele>
        <time>2017-02-10T08:39:23Z</time>
      </trkpt>
      <trkpt lat="42.56016" lon="1.96192">
        <ele>2241.45</ele>
        <time>2017-02-10T08:39:59Z</time>
      </trkpt>
      <trkpt lat="42.56001" lon="1.96186">
        <ele>2247.22</ele>
        <time>2017-02-10T08:40:36Z</time>
      </trkpt>
      <trkpt lat="42.55996" lon="1.96178">
        <ele>2250.58</ele>
        <time>2017-02-10T08:40:54Z</time>
      </trkpt>
      <trkpt lat="42.55999" lon="1.9616">
        <ele>2256.35</ele>
        <time>2017-02-10T08:41:34Z</time>
      </trkpt>
      <trkpt lat="42.56002" lon="1.96141">
        <ele>2261.16</ele>
        <time>2017-02-10T08:42:10Z</time>
      </trkpt>
      <trkpt lat="42.56008" lon="1.96117">
        <ele>2266.45</ele>
        <time>2017-02-10T08:42:47Z</time>
      </trkpt>
      <trkpt lat="42.56014" lon="1.96093">
        <ele>2270.29</ele>
        <time>2017-02-10T08:43:29Z</time>
      </trkpt>
      <trkpt lat="42.56012" lon="1.96063">
        <ele>2275.1</ele>
        <time>2017-02-10T08:44:10Z</time>
      </trkpt>
      <trkpt lat="42.56" lon="1.95982">
        <ele>2281.35</ele>
        <time>2017-02-10T08:46:18Z</time>
      </trkpt>
      <trkpt lat="42.56" lon="1.95979">
        <ele>2281.35</ele>
        <time>2017-02-10T08:46:21Z</time>
      </trkpt>
      <trkpt lat="42.56014" lon="1.95913">
        <ele>2287.11</ele>
        <time>2017-02-10T08:47:13Z</time>
      </trkpt>
      <trkpt lat="42.56027" lon="1.95815">
        <ele>2294.32</ele>
        <time>2017-02-10T08:48:41Z</time>
      </trkpt>
      <trkpt lat="42.56028" lon="1.95775">
        <ele>2299.13</ele>
        <time>2017-02-10T08:49:23Z</time>
      </trkpt>
      <trkpt lat="42.56029" lon="1.9574">
        <ele>2302.98</ele>
        <time>2017-02-10T08:49:58Z</time>
      </trkpt>
      <trkpt lat="42.56031" lon="1.95708">
        <ele>2308.26</ele>
        <time>2017-02-10T08:50:32Z</time>
      </trkpt>
      <trkpt lat="42.56038" lon="1.95651">
        <ele>2314.03</ele>
        <time>2017-02-10T08:51:26Z</time>
      </trkpt>
      <trkpt lat="42.56043" lon="1.95618">
        <ele>2319.32</ele>
        <time>2017-02-10T08:52:00Z</time>
      </trkpt>
      <trkpt lat="42.56046" lon="1.95601">
        <ele>2322.68</ele>
        <time>2017-02-10T08:52:17Z</time>
      </trkpt>
      <trkpt lat="42.56044" lon="1.95569">
        <ele>2327.97</ele>
        <time>2017-02-10T08:52:51Z</time>
      </trkpt>
      <trkpt lat="42.56041" lon="1.95556">
        <ele>2331.33</ele>
        <time>2017-02-10T08:53:07Z</time>
      </trkpt>
      <trkpt lat="42.56036" lon="1.95524">
        <ele>2335.66</ele>
        <time>2017-02-10T08:53:45Z</time>
      </trkpt>
      <trkpt lat="42.56038" lon="1.95499">
        <ele>2339.02</ele>
        <time>2017-02-10T08:54:27Z</time>
      </trkpt>
      <trkpt lat="42.56041" lon="1.95482">
        <ele>2342.87</ele>
        <time>2017-02-10T08:54:43Z</time>
      </trkpt>
      <trkpt lat="42.56048" lon="1.95455">
        <ele>2346.23</ele>
        <time>2017-02-10T08:55:12Z</time>
      </trkpt>
      <trkpt lat="42.56051" lon="1.95439">
        <ele>2350.08</ele>
        <time>2017-02-10T08:55:28Z</time>
      </trkpt>
      <trkpt lat="42.56059" lon="1.95407">
        <ele>2353.44</ele>
        <time>2017-02-10T08:56:00Z</time>
      </trkpt>
      <trkpt lat="42.56065" lon="1.95367">
        <ele>2358.25</ele>
        <time>2017-02-10T08:56:44Z</time>
      </trkpt>
      <trkpt lat="42.56078" lon="1.95326">
        <ele>2362.58</ele>
        <time>2017-02-10T08:57:26Z</time>
      </trkpt>
      <trkpt lat="42.56106" lon="1.95273">
        <ele>2367.38</ele>
        <time>2017-02-10T08:58:54Z</time>
      </trkpt>
      <trkpt lat="42.56094" lon="1.95231">
        <ele>2370.75</ele>
        <time>2017-02-10T09:00:16Z</time>
      </trkpt>
      <trkpt lat="42.56107" lon="1.95181">
        <ele>2374.59</ele>
        <time>2017-02-10T09:01:59Z</time>
      </trkpt>
      <trkpt lat="42.56124" lon="1.95135">
        <ele>2380.36</ele>
        <time>2017-02-10T09:03:04Z</time>
      </trkpt>
      <trkpt lat="42.56132" lon="1.95116">
        <ele>2382.28</ele>
        <time>2017-02-10T09:03:24Z</time>
      </trkpt>
      <trkpt lat="42.56144" lon="1.9509">
        <ele>2381.32</ele>
        <time>2017-02-10T09:03:46Z</time>
      </trkpt>
      <trkpt lat="42.56193" lon="1.94961">
        <ele>2387.09</ele>
        <time>2017-02-10T09:05:48Z</time>
      </trkpt>
      <trkpt lat="42.56192" lon="1.94959">
        <ele>2387.09</ele>
        <time>2017-02-10T09:05:49Z</time>
      </trkpt>
      <trkpt lat="42.562" lon="1.94922">
        <ele>2392.38</ele>
        <time>2017-02-10T09:06:48Z</time>
      </trkpt>
      <trkpt lat="42.56208" lon="1.94899">
        <ele>2396.7</ele>
        <time>2017-02-10T09:07:25Z</time>
      </trkpt>
      <trkpt lat="42.56219" lon="1.94881">
        <ele>2401.99</ele>
        <time>2017-02-10T09:08:04Z</time>
      </trkpt>
      <trkpt lat="42.56214" lon="1.94855">
        <ele>2406.8</ele>
        <time>2017-02-10T09:08:44Z</time>
      </trkpt>
      <trkpt lat="42.56204" lon="1.9484">
        <ele>2411.12</ele>
        <time>2017-02-10T09:09:21Z</time>
      </trkpt>
      <trkpt lat="42.56195" lon="1.94821">
        <ele>2416.89</ele>
        <time>2017-02-10T09:09:59Z</time>
      </trkpt>
      <trkpt lat="42.56193" lon="1.94786">
        <ele>2421.7</ele>
        <time>2017-02-10T09:10:51Z</time>
      </trkpt>
      <trkpt lat="42.56196" lon="1.94769">
        <ele>2425.06</ele>
        <time>2017-02-10T09:11:28Z</time>
      </trkpt>
      <trkpt lat="42.56209" lon="1.94733">
        <ele>2431.31</ele>
        <time>2017-02-10T09:12:15Z</time>
      </trkpt>
      <trkpt lat="42.56235" lon="1.94702">
        <ele>2438.52</ele>
        <time>2017-02-10T09:14:28Z</time>
      </trkpt>
      <trkpt lat="42.56253" lon="1.94689">
        <ele>2442.85</ele>
        <time>2017-02-10T09:15:02Z</time>
      </trkpt>
      <trkpt lat="42.56261" lon="1.9468">
        <ele>2446.21</ele>
        <time>2017-02-10T09:15:22Z</time>
      </trkpt>
      <trkpt lat="42.56279" lon="1.94667">
        <ele>2450.54</ele>
        <time>2017-02-10T09:16:00Z</time>
      </trkpt>
      <trkpt lat="42.56294" lon="1.94647">
        <ele>2454.38</ele>
        <time>2017-02-10T09:16:39Z</time>
      </trkpt>
      <trkpt lat="42.56299" lon="1.94633">
        <ele>2455.82</ele>
        <time>2017-02-10T09:16:57Z</time>
      </trkpt>
      <trkpt lat="42.56299" lon="1.94632">
        <ele>2455.82</ele>
        <time>2017-02-10T09:16:58Z</time>
      </trkpt>
      <trkpt lat="42.56365" lon="1.94393">
        <ele>2461.59</ele>
        <time>2017-02-10T09:20:20Z</time>
      </trkpt>
      <trkpt lat="42.56371" lon="1.94363">
        <ele>2466.4</ele>
        <time>2017-02-10T09:20:57Z</time>
      </trkpt>
      <trkpt lat="42.56374" lon="1.94334">
        <ele>2471.21</ele>
        <time>2017-02-10T09:21:39Z</time>
      </trkpt>
      <trkpt lat="42.56381" lon="1.94313">
        <ele>2475.05</ele>
        <time>2017-02-10T09:22:27Z</time>
      </trkpt>
      <trkpt lat="42.56382" lon="1.94313">
        <ele>2475.05</ele>
        <time>2017-02-10T09:22:50Z</time>
      </trkpt>
      <trkpt lat="42.56396" lon="1.94291">
        <ele>2479.86</ele>
        <time>2017-02-10T09:24:33Z</time>
      </trkpt>
      <trkpt lat="42.56409" lon="1.94281">
        <ele>2484.66</ele>
        <time>2017-02-10T09:31:19Z</time>
      </trkpt>
      <trkpt lat="42.56424" lon="1.94238">
        <ele>2488.03</ele>
        <time>2017-02-10T09:32:09Z</time>
      </trkpt>
      <trkpt lat="42.56466" lon="1.94173">
        <ele>2491.87</ele>
        <time>2017-02-10T09:33:39Z</time>
      </trkpt>
      <trkpt lat="42.56491" lon="1.94152">
        <ele>2495.72</ele>
        <time>2017-02-10T09:34:23Z</time>
      </trkpt>
      <trkpt lat="42.56513" lon="1.94124">
        <ele>2499.57</ele>
        <time>2017-02-10T09:35:05Z</time>
      </trkpt>
      <trkpt lat="42.56527" lon="1.94104">
        <ele>2503.41</ele>
        <time>2017-02-10T09:35:40Z</time>
      </trkpt>
      <trkpt lat="42.56539" lon="1.9408">
        <ele>2508.7</ele>
        <time>2017-02-10T09:36:22Z</time>
      </trkpt>
      <trkpt lat="42.56543" lon="1.94051">
        <ele>2514.47</ele>
        <time>2017-02-10T09:37:31Z</time>
      </trkpt>
      <trkpt lat="42.5656" lon="1.94039">
        <ele>2520.23</ele>
        <time>2017-02-10T09:38:09Z</time>
      </trkpt>
      <trkpt lat="42.56573" lon="1.94055">
        <ele>2524.08</ele>
        <time>2017-02-10T09:38:44Z</time>
      </trkpt>
      <trkpt lat="42.56575" lon="1.94061">
        <ele>2524.08</ele>
        <time>2017-02-10T09:38:51Z</time>
      </trkpt>
      <trkpt lat="42.56631" lon="1.94058">
        <ele>2528.4</ele>
        <time>2017-02-10T09:40:02Z</time>
      </trkpt>
      <trkpt lat="42.56687" lon="1.93967">
        <ele>2536.1</ele>
        <time>2017-02-10T09:42:19Z</time>
      </trkpt>
      <trkpt lat="42.56686" lon="1.93939">
        <ele>2541.38</ele>
        <time>2017-02-10T09:42:55Z</time>
      </trkpt>
      <trkpt lat="42.56707" lon="1.93939">
        <ele>2545.23</ele>
        <time>2017-02-10T09:43:30Z</time>
      </trkpt>
      <trkpt lat="42.56715" lon="1.93916">
        <ele>2551</ele>
        <time>2017-02-10T09:44:10Z</time>
      </trkpt>
      <trkpt lat="42.56723" lon="1.9388">
        <ele>2555.32</ele>
        <time>2017-02-10T09:44:48Z</time>
      </trkpt>
      <trkpt lat="42.56727" lon="1.93841">
        <ele>2559.17</ele>
        <time>2017-02-10T09:45:27Z</time>
      </trkpt>
      <trkpt lat="42.56722" lon="1.93648">
        <ele>2566.86</ele>
        <time>2017-02-10T09:49:32Z</time>
      </trkpt>
      <trkpt lat="42.5672" lon="1.9361">
        <ele>2574.07</ele>
        <time>2017-02-10T09:51:28Z</time>
      </trkpt>
      <trkpt lat="42.56726" lon="1.93572">
        <ele>2580.32</ele>
        <time>2017-02-10T09:57:34Z</time>
      </trkpt>
      <trkpt lat="42.56724" lon="1.93518">
        <ele>2593.29</ele>
        <time>2017-02-10T09:59:04Z</time>
      </trkpt>
      <trkpt lat="42.56719" lon="1.93457">
        <ele>2604.35</ele>
        <time>2017-02-10T10:00:21Z</time>
      </trkpt>
      <trkpt lat="42.56719" lon="1.93456">
        <ele>2604.35</ele>
        <time>2017-02-10T10:00:22Z</time>
      </trkpt>
      <trkpt lat="42.56718" lon="1.93427">
        <ele>2609.16</ele>
        <time>2017-02-10T10:02:21Z</time>
      </trkpt>
      <trkpt lat="42.56729" lon="1.93399">
        <ele>2608.67</ele>
        <time>2017-02-10T10:21:01Z</time>
      </trkpt>
      <trkpt lat="42.56751" lon="1.93371">
        <ele>2606.27</ele>
        <time>2017-02-10T10:27:15Z</time>
      </trkpt>
      <trkpt lat="42.5673" lon="1.93416">
        <ele>2594.74</ele>
        <time>2017-02-10T10:34:45Z</time>
      </trkpt>
      <trkpt lat="42.56744" lon="1.93556">
        <ele>2594.25</ele>
        <time>2017-02-10T11:35:01Z</time>
      </trkpt>
      <trkpt lat="42.5676" lon="1.936">
        <ele>2587.53</ele>
        <time>2017-02-10T11:35:17Z</time>
      </trkpt>
      <trkpt lat="42.56779" lon="1.93639">
        <ele>2582.72</ele>
        <time>2017-02-10T11:35:31Z</time>
      </trkpt>
      <trkpt lat="42.56787" lon="1.93656">
        <ele>2578.87</ele>
        <time>2017-02-10T11:35:36Z</time>
      </trkpt>
      <trkpt lat="42.56791" lon="1.93673">
        <ele>2576.47</ele>
        <time>2017-02-10T11:35:40Z</time>
      </trkpt>
      <trkpt lat="42.56771" lon="1.93744">
        <ele>2570.7</ele>
        <time>2017-02-10T11:36:00Z</time>
      </trkpt>
      <trkpt lat="42.56763" lon="1.93826">
        <ele>2567.34</ele>
        <time>2017-02-10T11:37:05Z</time>
      </trkpt>
      <trkpt lat="42.5676" lon="1.93849">
        <ele>2563.97</ele>
        <time>2017-02-10T11:37:12Z</time>
      </trkpt>
      <trkpt lat="42.5676" lon="1.93855">
        <ele>2563.97</ele>
        <time>2017-02-10T11:37:13Z</time>
      </trkpt>
      <trkpt lat="42.56754" lon="1.93878">
        <ele>2560.61</ele>
        <time>2017-02-10T11:37:17Z</time>
      </trkpt>
      <trkpt lat="42.56733" lon="1.93948">
        <ele>2553.88</ele>
        <time>2017-02-10T11:37:33Z</time>
      </trkpt>
      <trkpt lat="42.56723" lon="1.93981">
        <ele>2550.51</ele>
        <time>2017-02-10T11:37:39Z</time>
      </trkpt>
      <trkpt lat="42.56709" lon="1.94017">
        <ele>2547.15</ele>
        <time>2017-02-10T11:37:46Z</time>
      </trkpt>
      <trkpt lat="42.56685" lon="1.9405">
        <ele>2540.9</ele>
        <time>2017-02-10T11:37:58Z</time>
      </trkpt>
      <trkpt lat="42.56684" lon="1.94053">
        <ele>2542.34</ele>
        <time>2017-02-10T11:38:23Z</time>
      </trkpt>
      <trkpt lat="42.5667" lon="1.94048">
        <ele>2537.54</ele>
        <time>2017-02-10T11:38:35Z</time>
      </trkpt>
      <trkpt lat="42.56649" lon="1.94057">
        <ele>2533.69</ele>
        <time>2017-02-10T11:38:39Z</time>
      </trkpt>
      <trkpt lat="42.56616" lon="1.94067">
        <ele>2526.96</ele>
        <time>2017-02-10T11:38:45Z</time>
      </trkpt>
      <trkpt lat="42.56611" lon="1.94069">
        <ele>2526.48</ele>
        <time>2017-02-10T11:38:46Z</time>
      </trkpt>
      <trkpt lat="42.5659" lon="1.9407">
        <ele>2522.16</ele>
        <time>2017-02-10T11:38:50Z</time>
      </trkpt>
      <trkpt lat="42.56568" lon="1.94126">
        <ele>2513.98</ele>
        <time>2017-02-10T11:38:59Z</time>
      </trkpt>
      <trkpt lat="42.56553" lon="1.94122">
        <ele>2509.18</ele>
        <time>2017-02-10T11:39:02Z</time>
      </trkpt>
      <trkpt lat="42.56542" lon="1.94099">
        <ele>2505.81</ele>
        <time>2017-02-10T11:39:05Z</time>
      </trkpt>
      <trkpt lat="42.56524" lon="1.94084">
        <ele>2501.97</ele>
        <time>2017-02-10T11:39:11Z</time>
      </trkpt>
      <trkpt lat="42.56514" lon="1.9409">
        <ele>2498.6</ele>
        <time>2017-02-10T11:39:13Z</time>
      </trkpt>
      <trkpt lat="42.56497" lon="1.94095">
        <ele>2495.24</ele>
        <time>2017-02-10T11:39:16Z</time>
      </trkpt>
      <trkpt lat="42.56477" lon="1.94081">
        <ele>2489.95</ele>
        <time>2017-02-10T11:39:19Z</time>
      </trkpt>
      <trkpt lat="42.5647" lon="1.94075">
        <ele>2490.43</ele>
        <time>2017-02-10T11:39:20Z</time>
      </trkpt>
      <trkpt lat="42.56431" lon="1.94081">
        <ele>2481.78</ele>
        <time>2017-02-10T11:39:26Z</time>
      </trkpt>
      <trkpt lat="42.56411" lon="1.94103">
        <ele>2478.42</ele>
        <time>2017-02-10T11:39:30Z</time>
      </trkpt>
      <trkpt lat="42.56387" lon="1.94178">
        <ele>2478.42</ele>
        <time>2017-02-10T11:39:45Z</time>
      </trkpt>
      <trkpt lat="42.56342" lon="1.94312">
        <ele>2471.69</ele>
        <time>2017-02-10T11:41:03Z</time>
      </trkpt>
      <trkpt lat="42.56331" lon="1.94348">
        <ele>2468.8</ele>
        <time>2017-02-10T11:41:10Z</time>
      </trkpt>
      <trkpt lat="42.56315" lon="1.94397">
        <ele>2463.04</ele>
        <time>2017-02-10T11:41:17Z</time>
      </trkpt>
      <trkpt lat="42.56312" lon="1.94402">
        <ele>2463.04</ele>
        <time>2017-02-10T11:41:18Z</time>
      </trkpt>
      <trkpt lat="42.56298" lon="1.94468">
        <ele>2454.86</ele>
        <time>2017-02-10T11:41:29Z</time>
      </trkpt>
      <trkpt lat="42.56256" lon="1.94593">
        <ele>2450.06</ele>
        <time>2017-02-10T11:42:58Z</time>
      </trkpt>
      <trkpt lat="42.56255" lon="1.94594">
        <ele>2450.06</ele>
        <time>2017-02-10T11:43:34Z</time>
      </trkpt>
      <trkpt lat="42.56226" lon="1.94611">
        <ele>2442.37</ele>
        <time>2017-02-10T11:43:43Z</time>
      </trkpt>
      <trkpt lat="42.56216" lon="1.94622">
        <ele>2438.04</ele>
        <time>2017-02-10T11:43:45Z</time>
      </trkpt>
      <trkpt lat="42.5621" lon="1.94629">
        <ele>2434.68</ele>
        <time>2017-02-10T11:43:46Z</time>
      </trkpt>
      <trkpt lat="42.56172" lon="1.9467">
        <ele>2423.62</ele>
        <time>2017-02-10T11:43:53Z</time>
      </trkpt>
      <trkpt lat="42.56166" lon="1.94673">
        <ele>2423.62</ele>
        <time>2017-02-10T11:43:54Z</time>
      </trkpt>
      <trkpt lat="42.56151" lon="1.94688">
        <ele>2419.78</ele>
        <time>2017-02-10T11:43:57Z</time>
      </trkpt>
      <trkpt lat="42.56144" lon="1.94673">
        <ele>2419.78</ele>
        <time>2017-02-10T11:44:26Z</time>
      </trkpt>
      <trkpt lat="42.56127" lon="1.94674">
        <ele>2416.41</ele>
        <time>2017-02-10T11:44:32Z</time>
      </trkpt>
      <trkpt lat="42.56109" lon="1.94671">
        <ele>2412.57</ele>
        <time>2017-02-10T11:44:35Z</time>
      </trkpt>
      <trkpt lat="42.56097" lon="1.94652">
        <ele>2407.28</ele>
        <time>2017-02-10T11:44:38Z</time>
      </trkpt>
      <trkpt lat="42.56062" lon="1.94627">
        <ele>2402.47</ele>
        <time>2017-02-10T11:44:47Z</time>
      </trkpt>
      <trkpt lat="42.56048" lon="1.94628">
        <ele>2398.15</ele>
        <time>2017-02-10T11:44:49Z</time>
      </trkpt>
      <trkpt lat="42.56023" lon="1.94631">
        <ele>2394.78</ele>
        <time>2017-02-10T11:44:53Z</time>
      </trkpt>
      <trkpt lat="42.55979" lon="1.94652">
        <ele>2387.57</ele>
        <time>2017-02-10T11:44:59Z</time>
      </trkpt>
      <trkpt lat="42.55948" lon="1.94653">
        <ele>2383.25</ele>
        <time>2017-02-10T11:45:03Z</time>
      </trkpt>
      <trkpt lat="42.55779" lon="1.94632">
        <ele>2377</ele>
        <time>2017-02-10T11:45:46Z</time>
      </trkpt>
      <trkpt lat="42.55761" lon="1.94649">
        <ele>2373.63</ele>
        <time>2017-02-10T11:45:50Z</time>
      </trkpt>
      <trkpt lat="42.55735" lon="1.94668">
        <ele>2367.86</ele>
        <time>2017-02-10T11:45:55Z</time>
      </trkpt>
      <trkpt lat="42.55729" lon="1.94671">
        <ele>2367.86</ele>
        <time>2017-02-10T11:45:56Z</time>
      </trkpt>
      <trkpt lat="42.55714" lon="1.94691">
        <ele>2364.5</ele>
        <time>2017-02-10T11:45:59Z</time>
      </trkpt>
      <trkpt lat="42.55695" lon="1.94724">
        <ele>2360.17</ele>
        <time>2017-02-10T11:46:03Z</time>
      </trkpt>
      <trkpt lat="42.5567" lon="1.94732">
        <ele>2355.37</ele>
        <time>2017-02-10T11:46:07Z</time>
      </trkpt>
      <trkpt lat="42.55643" lon="1.94731">
        <ele>2351.04</ele>
        <time>2017-02-10T11:46:11Z</time>
      </trkpt>
      <trkpt lat="42.55567" lon="1.94715">
        <ele>2343.83</ele>
        <time>2017-02-10T11:46:25Z</time>
      </trkpt>
      <trkpt lat="42.55563" lon="1.94712">
        <ele>2345.75</ele>
        <time>2017-02-10T11:46:37Z</time>
      </trkpt>
      <trkpt lat="42.5554" lon="1.94681">
        <ele>2344.79</ele>
        <time>2017-02-10T11:47:43Z</time>
      </trkpt>
      <trkpt lat="42.55543" lon="1.94723">
        <ele>2340.47</ele>
        <time>2017-02-10T11:48:01Z</time>
      </trkpt>
      <trkpt lat="42.5553" lon="1.94759">
        <ele>2336.62</ele>
        <time>2017-02-10T11:48:10Z</time>
      </trkpt>
      <trkpt lat="42.55517" lon="1.94781">
        <ele>2332.3</ele>
        <time>2017-02-10T11:48:15Z</time>
      </trkpt>
      <trkpt lat="42.55505" lon="1.94783">
        <ele>2326.05</ele>
        <time>2017-02-10T11:48:18Z</time>
      </trkpt>
      <trkpt lat="42.55481" lon="1.94772">
        <ele>2317.88</ele>
        <time>2017-02-10T11:48:26Z</time>
      </trkpt>
      <trkpt lat="42.55477" lon="1.94769">
        <ele>2314.03</ele>
        <time>2017-02-10T11:48:27Z</time>
      </trkpt>
      <trkpt lat="42.55469" lon="1.94764">
        <ele>2313.55</ele>
        <time>2017-02-10T11:48:29Z</time>
      </trkpt>
      <trkpt lat="42.55458" lon="1.94763">
        <ele>2307.3</ele>
        <time>2017-02-10T11:48:31Z</time>
      </trkpt>
      <trkpt lat="42.55449" lon="1.94771">
        <ele>2303.94</ele>
        <time>2017-02-10T11:48:33Z</time>
      </trkpt>
      <trkpt lat="42.5543" lon="1.9477">
        <ele>2293.84</ele>
        <time>2017-02-10T11:48:40Z</time>
      </trkpt>
      <trkpt lat="42.55426" lon="1.94764">
        <ele>2293.36</ele>
        <time>2017-02-10T11:49:00Z</time>
      </trkpt>
      <trkpt lat="42.55412" lon="1.94779">
        <ele>2290</ele>
        <time>2017-02-10T11:49:05Z</time>
      </trkpt>
      <trkpt lat="42.55372" lon="1.94818">
        <ele>2284.23</ele>
        <time>2017-02-10T11:49:13Z</time>
      </trkpt>
      <trkpt lat="42.55325" lon="1.94841">
        <ele>2278.94</ele>
        <time>2017-02-10T11:49:23Z</time>
      </trkpt>
      <trkpt lat="42.55285" lon="1.9485">
        <ele>2275.58</ele>
        <time>2017-02-10T11:49:33Z</time>
      </trkpt>
      <trkpt lat="42.55276" lon="1.94853">
        <ele>2275.1</ele>
        <time>2017-02-10T11:49:36Z</time>
      </trkpt>
      <trkpt lat="42.5527" lon="1.9484">
        <ele>2271.25</ele>
        <time>2017-02-10T11:49:40Z</time>
      </trkpt>
      <trkpt lat="42.55267" lon="1.94832">
        <ele>2271.25</ele>
        <time>2017-02-10T11:49:42Z</time>
      </trkpt>
      <trkpt lat="42.55253" lon="1.94819">
        <ele>2266.93</ele>
        <time>2017-02-10T11:49:46Z</time>
      </trkpt>
      <trkpt lat="42.55249" lon="1.94814">
        <ele>2266.93</ele>
        <time>2017-02-10T11:49:47Z</time>
      </trkpt>
      <trkpt lat="42.55219" lon="1.94837">
        <ele>2263.56</ele>
        <time>2017-02-10T11:49:54Z</time>
      </trkpt>
      <trkpt lat="42.55217" lon="1.94843">
        <ele>2263.08</ele>
        <time>2017-02-10T11:49:55Z</time>
      </trkpt>
      <trkpt lat="42.55204" lon="1.94878">
        <ele>2259.72</ele>
        <time>2017-02-10T11:50:01Z</time>
      </trkpt>
      <trkpt lat="42.55198" lon="1.94909">
        <ele>2257.31</ele>
        <time>2017-02-10T11:50:44Z</time>
      </trkpt>
      <trkpt lat="42.55177" lon="1.94934">
        <ele>2253.47</ele>
        <time>2017-02-10T11:50:50Z</time>
      </trkpt>
      <trkpt lat="42.55166" lon="1.94957">
        <ele>2246.74</ele>
        <time>2017-02-10T11:50:53Z</time>
      </trkpt>
      <trkpt lat="42.55154" lon="1.94973">
        <ele>2239.53</ele>
        <time>2017-02-10T11:50:57Z</time>
      </trkpt>
      <trkpt lat="42.55135" lon="1.94993">
        <ele>2234.24</ele>
        <time>2017-02-10T11:51:02Z</time>
      </trkpt>
      <trkpt lat="42.55085" lon="1.95048">
        <ele>2227.51</ele>
        <time>2017-02-10T11:51:11Z</time>
      </trkpt>
      <trkpt lat="42.55062" lon="1.95106">
        <ele>2222.22</ele>
        <time>2017-02-10T11:53:03Z</time>
      </trkpt>
      <trkpt lat="42.55051" lon="1.95136">
        <ele>2218.86</ele>
        <time>2017-02-10T11:53:07Z</time>
      </trkpt>
      <trkpt lat="42.55033" lon="1.95244">
        <ele>2212.13</ele>
        <time>2017-02-10T11:53:21Z</time>
      </trkpt>
      <trkpt lat="42.55008" lon="1.95367">
        <ele>2206.36</ele>
        <time>2017-02-10T11:53:41Z</time>
      </trkpt>
      <trkpt lat="42.55009" lon="1.95459">
        <ele>2201.56</ele>
        <time>2017-02-10T11:53:56Z</time>
      </trkpt>
      <trkpt lat="42.5501" lon="1.95493">
        <ele>2199.63</ele>
        <time>2017-02-10T11:54:03Z</time>
      </trkpt>
      <trkpt lat="42.5503" lon="1.95543">
        <ele>2196.27</ele>
        <time>2017-02-10T11:54:16Z</time>
      </trkpt>
      <trkpt lat="42.55033" lon="1.95583">
        <ele>2192.9</ele>
        <time>2017-02-10T11:54:24Z</time>
      </trkpt>
      <trkpt lat="42.55032" lon="1.95622">
        <ele>2186.66</ele>
        <time>2017-02-10T11:54:29Z</time>
      </trkpt>
      <trkpt lat="42.55038" lon="1.95639">
        <ele>2183.29</ele>
        <time>2017-02-10T11:54:31Z</time>
      </trkpt>
      <trkpt lat="42.55029" lon="1.95705">
        <ele>2178.48</ele>
        <time>2017-02-10T11:54:38Z</time>
      </trkpt>
      <trkpt lat="42.55028" lon="1.95714">
        <ele>2178.48</ele>
        <time>2017-02-10T11:54:39Z</time>
      </trkpt>
      <trkpt lat="42.55034" lon="1.95766">
        <ele>2175.12</ele>
        <time>2017-02-10T11:54:45Z</time>
      </trkpt>
      <trkpt lat="42.55032" lon="1.95823">
        <ele>2170.31</ele>
        <time>2017-02-10T11:54:51Z</time>
      </trkpt>
      <trkpt lat="42.55015" lon="1.95944">
        <ele>2165.03</ele>
        <time>2017-02-10T11:55:32Z</time>
      </trkpt>
      <trkpt lat="42.55004" lon="1.96016">
        <ele>2158.3</ele>
        <time>2017-02-10T11:55:42Z</time>
      </trkpt>
      <trkpt lat="42.55002" lon="1.96023">
        <ele>2158.3</ele>
        <time>2017-02-10T11:55:43Z</time>
      </trkpt>
      <trkpt lat="42.54992" lon="1.96088">
        <ele>2151.57</ele>
        <time>2017-02-10T11:55:51Z</time>
      </trkpt>
      <trkpt lat="42.54977" lon="1.96142">
        <ele>2148.2</ele>
        <time>2017-02-10T11:55:58Z</time>
      </trkpt>
      <trkpt lat="42.54918" lon="1.96387">
        <ele>2145.32</ele>
        <time>2017-02-10T11:57:15Z</time>
      </trkpt>
      <trkpt lat="42.54878" lon="1.96415">
        <ele>2141.95</ele>
        <time>2017-02-10T11:57:57Z</time>
      </trkpt>
      <trkpt lat="42.54861" lon="1.96429">
        <ele>2137.15</ele>
        <time>2017-02-10T12:01:55Z</time>
      </trkpt>
      <trkpt lat="42.54837" lon="1.96443">
        <ele>2132.82</ele>
        <time>2017-02-10T12:02:02Z</time>
      </trkpt>
      <trkpt lat="42.54823" lon="1.96454">
        <ele>2129.46</ele>
        <time>2017-02-10T12:02:05Z</time>
      </trkpt>
      <trkpt lat="42.54799" lon="1.96474">
        <ele>2122.73</ele>
        <time>2017-02-10T12:02:10Z</time>
      </trkpt>
      <trkpt lat="42.54795" lon="1.96481">
        <ele>2122.73</ele>
        <time>2017-02-10T12:02:11Z</time>
      </trkpt>
      <trkpt lat="42.54785" lon="1.9649">
        <ele>2118.88</ele>
        <time>2017-02-10T12:02:13Z</time>
      </trkpt>
      <trkpt lat="42.54766" lon="1.96498">
        <ele>2114.08</ele>
        <time>2017-02-10T12:02:17Z</time>
      </trkpt>
      <trkpt lat="42.54747" lon="1.96518">
        <ele>2108.31</ele>
        <time>2017-02-10T12:02:21Z</time>
      </trkpt>
      <trkpt lat="42.5473" lon="1.96525">
        <ele>2105.91</ele>
        <time>2017-02-10T12:02:24Z</time>
      </trkpt>
      <trkpt lat="42.54712" lon="1.96533">
        <ele>2101.1</ele>
        <time>2017-02-10T12:02:27Z</time>
      </trkpt>
      <trkpt lat="42.54706" lon="1.96536">
        <ele>2101.58</ele>
        <time>2017-02-10T12:02:28Z</time>
      </trkpt>
      <trkpt lat="42.54694" lon="1.96561">
        <ele>2098.21</ele>
        <time>2017-02-10T12:02:31Z</time>
      </trkpt>
      <trkpt lat="42.54684" lon="1.96574">
        <ele>2094.85</ele>
        <time>2017-02-10T12:02:33Z</time>
      </trkpt>
      <trkpt lat="42.54634" lon="1.96634">
        <ele>2090.04</ele>
        <time>2017-02-10T12:02:43Z</time>
      </trkpt>
      <trkpt lat="42.54609" lon="1.96673">
        <ele>2084.28</ele>
        <time>2017-02-10T12:02:49Z</time>
      </trkpt>
      <trkpt lat="42.54579" lon="1.96693">
        <ele>2080.91</ele>
        <time>2017-02-10T12:02:54Z</time>
      </trkpt>
      <trkpt lat="42.5454" lon="1.96717">
        <ele>2080.91</ele>
        <time>2017-02-10T12:03:47Z</time>
      </trkpt>
      <trkpt lat="42.54524" lon="1.96735">
        <ele>2076.59</ele>
        <time>2017-02-10T12:03:54Z</time>
      </trkpt>
      <trkpt lat="42.5451" lon="1.96735">
        <ele>2073.22</ele>
        <time>2017-02-10T12:03:57Z</time>
      </trkpt>
      <trkpt lat="42.54485" lon="1.96747">
        <ele>2069.86</ele>
        <time>2017-02-10T12:04:06Z</time>
      </trkpt>
      <trkpt lat="42.54483" lon="1.96747">
        <ele>2069.86</ele>
        <time>2017-02-10T12:04:27Z</time>
      </trkpt>
      <trkpt lat="42.5444" lon="1.96761">
        <ele>2060.72</ele>
        <time>2017-02-10T12:04:37Z</time>
      </trkpt>
      <trkpt lat="42.544" lon="1.96792">
        <ele>2052.55</ele>
        <time>2017-02-10T12:04:45Z</time>
      </trkpt>
      <trkpt lat="42.54382" lon="1.96784">
        <ele>2053.03</ele>
        <time>2017-02-10T12:04:50Z</time>
      </trkpt>
      <trkpt lat="42.54365" lon="1.96798">
        <ele>2049.67</ele>
        <time>2017-02-10T12:04:56Z</time>
      </trkpt>
      <trkpt lat="42.54338" lon="1.96844">
        <ele>2043.9</ele>
        <time>2017-02-10T12:05:05Z</time>
      </trkpt>
      <trkpt lat="42.54321" lon="1.96857">
        <ele>2039.57</ele>
        <time>2017-02-10T12:05:09Z</time>
      </trkpt>
      <trkpt lat="42.54318" lon="1.96859">
        <ele>2039.57</ele>
        <time>2017-02-10T12:05:10Z</time>
      </trkpt>
      <trkpt lat="42.54292" lon="1.96876">
        <ele>2037.65</ele>
        <time>2017-02-10T12:06:52Z</time>
      </trkpt>
      <trkpt lat="42.5427" lon="1.9689">
        <ele>2033.33</ele>
        <time>2017-02-10T12:06:59Z</time>
      </trkpt>
      <trkpt lat="42.54253" lon="1.96905">
        <ele>2029.96</ele>
        <time>2017-02-10T12:07:04Z</time>
      </trkpt>
      <trkpt lat="42.54217" lon="1.96963">
        <ele>2026.12</ele>
        <time>2017-02-10T12:07:19Z</time>
      </trkpt>
      <trkpt lat="42.54215" lon="1.96967">
        <ele>2025.64</ele>
        <time>2017-02-10T12:07:20Z</time>
      </trkpt>
      <trkpt lat="42.54205" lon="1.96992">
        <ele>2020.35</ele>
        <time>2017-02-10T12:07:25Z</time>
      </trkpt>
      <trkpt lat="42.54131" lon="1.9703">
        <ele>2017.46</ele>
        <time>2017-02-10T12:08:53Z</time>
      </trkpt>
      <trkpt lat="42.54123" lon="1.97042">
        <ele>2011.7</ele>
        <time>2017-02-10T12:08:56Z</time>
      </trkpt>
      <trkpt lat="42.54114" lon="1.97052">
        <ele>2006.89</ele>
        <time>2017-02-10T12:08:58Z</time>
      </trkpt>
      <trkpt lat="42.54095" lon="1.9711">
        <ele>2000.64</ele>
        <time>2017-02-10T12:09:10Z</time>
      </trkpt>
      <trkpt lat="42.5407" lon="1.97124">
        <ele>1997.28</ele>
        <time>2017-02-10T12:09:29Z</time>
      </trkpt>
      <trkpt lat="42.5406" lon="1.97122">
        <ele>1991.99</ele>
        <time>2017-02-10T12:09:33Z</time>
      </trkpt>
      <trkpt lat="42.54052" lon="1.97123">
        <ele>1986.7</ele>
        <time>2017-02-10T12:09:35Z</time>
      </trkpt>
      <trkpt lat="42.54047" lon="1.97126">
        <ele>1986.7</ele>
        <time>2017-02-10T12:09:36Z</time>
      </trkpt>
      <trkpt lat="42.5402" lon="1.97138">
        <ele>1981.9</ele>
        <time>2017-02-10T12:09:41Z</time>
      </trkpt>
      <trkpt lat="42.53992" lon="1.97151">
        <ele>1978.53</ele>
        <time>2017-02-10T12:09:46Z</time>
      </trkpt>
      <trkpt lat="42.53929" lon="1.97147">
        <ele>1976.13</ele>
        <time>2017-02-10T12:11:42Z</time>
      </trkpt>
      <trkpt lat="42.53916" lon="1.97162">
        <ele>1976.13</ele>
        <time>2017-02-10T12:18:09Z</time>
      </trkpt>
      <trkpt lat="42.53841" lon="1.97137">
        <ele>1968.92</ele>
        <time>2017-02-10T12:18:53Z</time>
      </trkpt>
      <trkpt lat="42.5382" lon="1.97144">
        <ele>1963.63</ele>
        <time>2017-02-10T12:19:04Z</time>
      </trkpt>
      <trkpt lat="42.53755" lon="1.9713">
        <ele>1959.3</ele>
        <time>2017-02-10T12:19:54Z</time>
      </trkpt>
      <trkpt lat="42.53739" lon="1.97123">
        <ele>1955.94</ele>
        <time>2017-02-10T12:20:03Z</time>
      </trkpt>
      <trkpt lat="42.5372" lon="1.97116">
        <ele>1952.09</ele>
        <time>2017-02-10T12:20:17Z</time>
      </trkpt>
      <trkpt lat="42.53713" lon="1.97109">
        <ele>1950.17</ele>
        <time>2017-02-10T12:20:19Z</time>
      </trkpt>
      <trkpt lat="42.537" lon="1.97097">
        <ele>1950.17</ele>
        <time>2017-02-10T12:20:24Z</time>
      </trkpt>
      <trkpt lat="42.53632" lon="1.97066">
        <ele>1944.88</ele>
        <time>2017-02-10T12:20:44Z</time>
      </trkpt>
      <trkpt lat="42.53594" lon="1.97051">
        <ele>1940.56</ele>
        <time>2017-02-10T12:21:05Z</time>
      </trkpt>
      <trkpt lat="42.5359" lon="1.97053">
        <ele>1940.56</ele>
        <time>2017-02-10T12:22:23Z</time>
      </trkpt>
      <trkpt lat="42.53581" lon="1.97064">
        <ele>1937.19</ele>
        <time>2017-02-10T12:22:28Z</time>
      </trkpt>
      <trkpt lat="42.53572" lon="1.97067">
        <ele>1936.23</ele>
        <time>2017-02-10T12:22:42Z</time>
      </trkpt>
      <trkpt lat="42.53568" lon="1.97094">
        <ele>1931.91</ele>
        <time>2017-02-10T12:22:50Z</time>
      </trkpt>
      <trkpt lat="42.53566" lon="1.97098">
        <ele>1931.91</ele>
        <time>2017-02-10T12:22:51Z</time>
      </trkpt>
      <trkpt lat="42.53563" lon="1.97108">
        <ele>1928.54</ele>
        <time>2017-02-10T12:23:03Z</time>
      </trkpt>
      <trkpt lat="42.53547" lon="1.97114">
        <ele>1924.22</ele>
        <time>2017-02-10T12:23:08Z</time>
      </trkpt>
      <trkpt lat="42.53502" lon="1.97126">
        <ele>1917.97</ele>
        <time>2017-02-10T12:23:38Z</time>
      </trkpt>
      <trkpt lat="42.53463" lon="1.97136">
        <ele>1912.68</ele>
        <time>2017-02-10T12:24:00Z</time>
      </trkpt>
      <trkpt lat="42.53432" lon="1.97177">
        <ele>1908.35</ele>
        <time>2017-02-10T12:24:40Z</time>
      </trkpt>
      <trkpt lat="42.53431" lon="1.97203">
        <ele>1904.03</ele>
        <time>2017-02-10T12:24:51Z</time>
      </trkpt>
      <trkpt lat="42.53433" lon="1.97209">
        <ele>1905.47</ele>
        <time>2017-02-10T12:25:02Z</time>
      </trkpt>
      <trkpt lat="42.53435" lon="1.9722">
        <ele>1907.39</ele>
        <time>2017-02-10T12:25:30Z</time>
      </trkpt>
      <trkpt lat="42.53401" lon="1.97251">
        <ele>1904.03</ele>
        <time>2017-02-10T12:25:56Z</time>
      </trkpt>
      <trkpt lat="42.53399" lon="1.97255">
        <ele>1904.03</ele>
        <time>2017-02-10T12:25:58Z</time>
      </trkpt>
      <trkpt lat="42.53384" lon="1.9727">
        <ele>1899.22</ele>
        <time>2017-02-10T12:26:02Z</time>
      </trkpt>
      <trkpt lat="42.5337" lon="1.97285">
        <ele>1897.3</ele>
        <time>2017-02-10T12:27:29Z</time>
      </trkpt>
      <trkpt lat="42.53384" lon="1.97331">
        <ele>1889.13</ele>
        <time>2017-02-10T12:27:44Z</time>
      </trkpt>
      <trkpt lat="42.53362" lon="1.97324">
        <ele>1885.28</ele>
        <time>2017-02-10T12:27:51Z</time>
      </trkpt>
      <trkpt lat="42.53328" lon="1.9732">
        <ele>1877.11</ele>
        <time>2017-02-10T12:28:04Z</time>
      </trkpt>
      <trkpt lat="42.53325" lon="1.97321">
        <ele>1877.11</ele>
        <time>2017-02-10T12:28:05Z</time>
      </trkpt>
      <trkpt lat="42.53306" lon="1.97337">
        <ele>1867.5</ele>
        <time>2017-02-10T12:28:11Z</time>
      </trkpt>
      <trkpt lat="42.53301" lon="1.97334">
        <ele>1867.98</ele>
        <time>2017-02-10T12:28:17Z</time>
      </trkpt>
      <trkpt lat="42.53287" lon="1.97345">
        <ele>1864.13</ele>
        <time>2017-02-10T12:28:24Z</time>
      </trkpt>
      <trkpt lat="42.53276" lon="1.97367">
        <ele>1859.81</ele>
        <time>2017-02-10T12:28:27Z</time>
      </trkpt>
      <trkpt lat="42.53243" lon="1.97395">
        <ele>1852.6</ele>
        <time>2017-02-10T12:28:35Z</time>
      </trkpt>
      <trkpt lat="42.53237" lon="1.97436">
        <ele>1848.75</ele>
        <time>2017-02-10T12:29:17Z</time>
      </trkpt>
      <trkpt lat="42.53231" lon="1.97456">
        <ele>1844.43</ele>
        <time>2017-02-10T12:29:40Z</time>
      </trkpt>
      <trkpt lat="42.53232" lon="1.97495">
        <ele>1838.18</ele>
        <time>2017-02-10T12:29:45Z</time>
      </trkpt>
      <trkpt lat="42.53224" lon="1.97523">
        <ele>1833.37</ele>
        <time>2017-02-10T12:29:52Z</time>
      </trkpt>
      <trkpt lat="42.53225" lon="1.97542">
        <ele>1829.53</ele>
        <time>2017-02-10T12:30:06Z</time>
      </trkpt>
      <trkpt lat="42.53223" lon="1.97543">
        <ele>1829.53</ele>
        <time>2017-02-10T12:30:32Z</time>
      </trkpt>
      <trkpt lat="42.53222" lon="1.97543">
        <ele>1829.05</ele>
        <time>2017-02-10T12:30:34Z</time>
      </trkpt>
      <trkpt lat="42.5321" lon="1.97555">
        <ele>1823.28</ele>
        <time>2017-02-10T12:30:40Z</time>
      </trkpt>
      <trkpt lat="42.53206" lon="1.97554">
        <ele>1823.28</ele>
        <time>2017-02-10T12:30:41Z</time>
      </trkpt>
      <trkpt lat="42.532" lon="1.97567">
        <ele>1819.91</ele>
        <time>2017-02-10T12:30:46Z</time>
      </trkpt>
      <trkpt lat="42.53173" lon="1.97568">
        <ele>1814.15</ele>
        <time>2017-02-10T12:31:00Z</time>
      </trkpt>
      <trkpt lat="42.53172" lon="1.97571">
        <ele>1812.7</ele>
        <time>2017-02-10T12:31:07Z</time>
      </trkpt>
      <trkpt lat="42.53163" lon="1.97581">
        <ele>1808.86</ele>
        <time>2017-02-10T12:31:12Z</time>
      </trkpt>
      <trkpt lat="42.53107" lon="1.97555">
        <ele>1802.61</ele>
        <time>2017-02-10T12:31:38Z</time>
      </trkpt>
      <trkpt lat="42.53104" lon="1.97552">
        <ele>1802.61</ele>
        <time>2017-02-10T12:31:39Z</time>
      </trkpt>
      <trkpt lat="42.53082" lon="1.97528">
        <ele>1799.24</ele>
        <time>2017-02-10T12:31:55Z</time>
      </trkpt>
      <trkpt lat="42.5308" lon="1.97526">
        <ele>1799.24</ele>
        <time>2017-02-10T12:31:56Z</time>
      </trkpt>
      <trkpt lat="42.53067" lon="1.97509">
        <ele>1800.69</ele>
        <time>2017-02-10T12:32:13Z</time>
      </trkpt>
      <trkpt lat="42.53049" lon="1.97505">
        <ele>1794.92</ele>
        <time>2017-02-10T12:32:22Z</time>
      </trkpt>
      <trkpt lat="42.53046" lon="1.97502">
        <ele>1793.96</ele>
        <time>2017-02-10T12:32:24Z</time>
      </trkpt>
      <trkpt lat="42.53" lon="1.97474">
        <ele>1787.23</ele>
        <time>2017-02-10T12:33:35Z</time>
      </trkpt>
      <trkpt lat="42.52998" lon="1.97473">
        <ele>1787.23</ele>
        <time>2017-02-10T12:33:36Z</time>
      </trkpt>
      <trkpt lat="42.52977" lon="1.97459">
        <ele>1785.31</ele>
        <time>2017-02-10T12:34:02Z</time>
      </trkpt>
      <trkpt lat="42.5296" lon="1.97458">
        <ele>1781.94</ele>
        <time>2017-02-10T12:34:12Z</time>
      </trkpt>
      <trkpt lat="42.52958" lon="1.97457">
        <ele>1781.94</ele>
        <time>2017-02-10T12:34:13Z</time>
      </trkpt>
      <trkpt lat="42.52899" lon="1.97433">
        <ele>1774.25</ele>
        <time>2017-02-10T12:34:36Z</time>
      </trkpt>
      <trkpt lat="42.52874" lon="1.97417">
        <ele>1770.89</ele>
        <time>2017-02-10T12:34:43Z</time>
      </trkpt>
      <trkpt lat="42.52858" lon="1.97406">
        <ele>1768.48</ele>
        <time>2017-02-10T12:34:46Z</time>
      </trkpt>
      <trkpt lat="42.52854" lon="1.97402">
        <ele>1768.48</ele>
        <time>2017-02-10T12:34:47Z</time>
      </trkpt>
      <trkpt lat="42.52824" lon="1.97384">
        <ele>1765.12</ele>
        <time>2017-02-10T12:36:26Z</time>
      </trkpt>
      <trkpt lat="42.52815" lon="1.97368">
        <ele>1761.75</ele>
        <time>2017-02-10T12:36:34Z</time>
      </trkpt>
      <trkpt lat="42.52815" lon="1.97352">
        <ele>1758.39</ele>
        <time>2017-02-10T12:36:43Z</time>
      </trkpt>
      <trkpt lat="42.52816" lon="1.9735">
        <ele>1758.39</ele>
        <time>2017-02-10T12:36:44Z</time>
      </trkpt>
      <trkpt lat="42.52815" lon="1.97318">
        <ele>1754.54</ele>
        <time>2017-02-10T12:37:17Z</time>
      </trkpt>
      <trkpt lat="42.52792" lon="1.97242">
        <ele>1749.26</ele>
        <time>2017-02-10T12:37:58Z</time>
      </trkpt>
      <trkpt lat="42.52793" lon="1.97213">
        <ele>1745.89</ele>
        <time>2017-02-10T12:38:10Z</time>
      </trkpt>
      <trkpt lat="42.52783" lon="1.97172">
        <ele>1741.57</ele>
        <time>2017-02-10T12:38:22Z</time>
      </trkpt>
      <trkpt lat="42.52782" lon="1.97162">
        <ele>1740.12</ele>
        <time>2017-02-10T12:38:26Z</time>
      </trkpt>
      <trkpt lat="42.52773" lon="1.97121">
        <ele>1734.84</ele>
        <time>2017-02-10T12:38:41Z</time>
      </trkpt>
      <trkpt lat="42.52772" lon="1.97114">
        <ele>1734.84</ele>
        <time>2017-02-10T12:38:43Z</time>
      </trkpt>
      <trkpt lat="42.52761" lon="1.97054">
        <ele>1729.55</ele>
        <time>2017-02-10T12:39:18Z</time>
      </trkpt>
      <trkpt lat="42.52757" lon="1.97037">
        <ele>1725.7</ele>
        <time>2017-02-10T12:39:23Z</time>
      </trkpt>
      <trkpt lat="42.52752" lon="1.9702">
        <ele>1722.34</ele>
        <time>2017-02-10T12:39:29Z</time>
      </trkpt>
      <trkpt lat="42.52752" lon="1.97019">
        <ele>1722.34</ele>
        <time>2017-02-10T12:39:30Z</time>
      </trkpt>
      <trkpt lat="42.52728" lon="1.96953">
        <ele>1718.49</ele>
        <time>2017-02-10T12:40:07Z</time>
      </trkpt>
      <trkpt lat="42.52723" lon="1.9694">
        <ele>1716.57</ele>
        <time>2017-02-10T12:40:15Z</time>
      </trkpt>
      <trkpt lat="42.52676" lon="1.96861">
        <ele>1711.28</ele>
        <time>2017-02-10T12:41:30Z</time>
      </trkpt>
      <trkpt lat="42.52648" lon="1.96833">
        <ele>1706</ele>
        <time>2017-02-10T12:41:46Z</time>
      </trkpt>
      <trkpt lat="42.52619" lon="1.96816">
        <ele>1699.75</ele>
        <time>2017-02-10T12:43:28Z</time>
      </trkpt>
      <trkpt lat="42.52526" lon="1.9677">
        <ele>1693.98</ele>
        <time>2017-02-10T12:44:57Z</time>
      </trkpt>
      <trkpt lat="42.52454" lon="1.96661">
        <ele>1690.14</ele>
        <time>2017-02-10T12:45:45Z</time>
      </trkpt>
      <trkpt lat="42.52422" lon="1.96595">
        <ele>1686.77</ele>
        <time>2017-02-10T12:46:02Z</time>
      </trkpt>
      <trkpt lat="42.52397" lon="1.96574">
        <ele>1682.93</ele>
        <time>2017-02-10T12:46:09Z</time>
      </trkpt>
      <trkpt lat="42.52393" lon="1.96571">
        <ele>1682.93</ele>
        <time>2017-02-10T12:46:10Z</time>
      </trkpt>
      <trkpt lat="42.52339" lon="1.96521">
        <ele>1679.56</ele>
        <time>2017-02-10T12:47:25Z</time>
      </trkpt>
      <trkpt lat="42.52337" lon="1.96515">
        <ele>1679.56</ele>
        <time>2017-02-10T12:47:26Z</time>
      </trkpt>
      <trkpt lat="42.5233" lon="1.96495">
        <ele>1676.68</ele>
        <time>2017-02-10T12:47:29Z</time>
      </trkpt>
      <trkpt lat="42.52327" lon="1.96489">
        <ele>1676.68</ele>
        <time>2017-02-10T12:47:30Z</time>
      </trkpt>
      <trkpt lat="42.52305" lon="1.96463">
        <ele>1672.83</ele>
        <time>2017-02-10T12:47:37Z</time>
      </trkpt>
      <trkpt lat="42.52263" lon="1.96423">
        <ele>1667.54</ele>
        <time>2017-02-10T12:49:06Z</time>
      </trkpt>
      <trkpt lat="42.52241" lon="1.96382">
        <ele>1662.74</ele>
        <time>2017-02-10T12:50:59Z</time>
      </trkpt>
      <trkpt lat="42.52238" lon="1.96372">
        <ele>1658.41</ele>
        <time>2017-02-10T12:51:00Z</time>
      </trkpt>
      <trkpt lat="42.52222" lon="1.96338">
        <ele>1654.57</ele>
        <time>2017-02-10T12:51:04Z</time>
      </trkpt>
      <trkpt lat="42.52218" lon="1.96334">
        <ele>1654.57</ele>
        <time>2017-02-10T12:51:05Z</time>
      </trkpt>
      <trkpt lat="42.52195" lon="1.96306">
        <ele>1650.72</ele>
        <time>2017-02-10T12:51:14Z</time>
      </trkpt>
      <trkpt lat="42.52173" lon="1.9628">
        <ele>1647.36</ele>
        <time>2017-02-10T12:51:20Z</time>
      </trkpt>
      <trkpt lat="42.5217" lon="1.96277">
        <ele>1647.36</ele>
        <time>2017-02-10T12:51:21Z</time>
      </trkpt>
      <trkpt lat="42.52142" lon="1.9626">
        <ele>1644.95</ele>
        <time>2017-02-10T12:51:29Z</time>
      </trkpt>
      <trkpt lat="42.52139" lon="1.96256">
        <ele>1644.95</ele>
        <time>2017-02-10T12:51:30Z</time>
      </trkpt>
      <trkpt lat="42.52104" lon="1.96224">
        <ele>1641.11</ele>
        <time>2017-02-10T12:52:01Z</time>
      </trkpt>
      <trkpt lat="42.52104" lon="1.96221">
        <ele>1641.11</ele>
        <time>2017-02-10T12:52:02Z</time>
      </trkpt>
      <trkpt lat="42.52071" lon="1.96145">
        <ele>1641.11</ele>
        <time>2017-02-10T12:54:50Z</time>
      </trkpt>
      <trkpt lat="42.5201" lon="1.9604">
        <ele>1634.86</ele>
        <time>2017-02-10T12:55:45Z</time>
      </trkpt>
      <trkpt lat="42.52015" lon="1.95997">
        <ele>1635.34</ele>
        <time>2017-02-10T12:56:39Z</time>
      </trkpt>
      <trkpt lat="42.52003" lon="1.95997">
        <ele>1631.49</ele>
        <time>2017-02-10T12:56:47Z</time>
      </trkpt>
      <trkpt lat="42.51986" lon="1.96009">
        <ele>1627.17</ele>
        <time>2017-02-10T12:56:53Z</time>
      </trkpt>
      <trkpt lat="42.51962" lon="1.95987">
        <ele>1622.36</ele>
        <time>2017-02-10T12:57:00Z</time>
      </trkpt>
      <trkpt lat="42.5189" lon="1.95899">
        <ele>1623.32</ele>
        <time>2017-02-10T12:58:00Z</time>
      </trkpt>
      <trkpt lat="42.51849" lon="1.95868">
        <ele>1623.32</ele>
        <time>2017-02-10T12:59:07Z</time>
      </trkpt>
      <trkpt lat="42.51827" lon="1.95797">
        <ele>1619.96</ele>
        <time>2017-02-10T12:59:55Z</time>
      </trkpt>
      <trkpt lat="42.51824" lon="1.95793">
        <ele>1616.59</ele>
        <time>2017-02-10T13:00:01Z</time>
      </trkpt>
      <trkpt lat="42.51796" lon="1.95741">
        <ele>1610.35</ele>
        <time>2017-02-10T13:00:16Z</time>
      </trkpt>
      <trkpt lat="42.51761" lon="1.95698">
        <ele>1606.02</ele>
        <time>2017-02-10T13:00:55Z</time>
      </trkpt>
      <trkpt lat="42.5172" lon="1.95701">
        <ele>1599.77</ele>
        <time>2017-02-10T13:02:21Z</time>
      </trkpt>
      <trkpt lat="42.51703" lon="1.95698">
        <ele>1596.41</ele>
        <time>2017-02-10T13:02:58Z</time>
      </trkpt>
      <trkpt lat="42.51683" lon="1.95677">
        <ele>1590.64</ele>
        <time>2017-02-10T13:03:36Z</time>
      </trkpt>
      <trkpt lat="42.51678" lon="1.95664">
        <ele>1588.24</ele>
        <time>2017-02-10T13:04:24Z</time>
      </trkpt>
      <trkpt lat="42.51668" lon="1.95647">
        <ele>1584.87</ele>
        <time>2017-02-10T13:04:28Z</time>
      </trkpt>
      <trkpt lat="42.51636" lon="1.9559">
        <ele>1581.03</ele>
        <time>2017-02-10T13:04:40Z</time>
      </trkpt>
      <trkpt lat="42.51629" lon="1.9558">
        <ele>1582.47</ele>
        <time>2017-02-10T13:04:45Z</time>
      </trkpt>
      <trkpt lat="42.51576" lon="1.95564">
        <ele>1578.62</ele>
        <time>2017-02-10T13:06:59Z</time>
      </trkpt>
      <trkpt lat="42.51562" lon="1.95587">
        <ele>1572.37</ele>
        <time>2017-02-10T13:07:50Z</time>
      </trkpt>
      <trkpt lat="42.51542" lon="1.95605">
        <ele>1567.57</ele>
        <time>2017-02-10T13:07:58Z</time>
      </trkpt>
      <trkpt lat="42.51536" lon="1.95654">
        <ele>1563.24</ele>
        <time>2017-02-10T13:08:11Z</time>
      </trkpt>
      <trkpt lat="42.51487" lon="1.95658">
        <ele>1557.47</ele>
        <time>2017-02-10T13:10:53Z</time>
      </trkpt>
      <trkpt lat="42.51482" lon="1.95657">
        <ele>1557.47</ele>
        <time>2017-02-10T13:10:54Z</time>
      </trkpt>
      <trkpt lat="42.51449" lon="1.95649">
        <ele>1554.11</ele>
        <time>2017-02-10T13:11:04Z</time>
      </trkpt>
      <trkpt lat="42.51428" lon="1.95663">
        <ele>1550.74</ele>
        <time>2017-02-10T13:11:11Z</time>
      </trkpt>
      <trkpt lat="42.51404" lon="1.95675">
        <ele>1547.38</ele>
        <time>2017-02-10T13:11:18Z</time>
      </trkpt>
      <trkpt lat="42.51375" lon="1.95697">
        <ele>1543.05</ele>
        <time>2017-02-10T13:11:25Z</time>
      </trkpt>
      <trkpt lat="42.51371" lon="1.95701">
        <ele>1543.05</ele>
        <time>2017-02-10T13:11:26Z</time>
      </trkpt>
      <trkpt lat="42.51314" lon="1.95746">
        <ele>1535.36</ele>
        <time>2017-02-10T13:11:48Z</time>
      </trkpt>
      <trkpt lat="42.51286" lon="1.95748">
        <ele>1530.56</ele>
        <time>2017-02-10T13:12:06Z</time>
      </trkpt>
      <trkpt lat="42.51284" lon="1.95749">
        <ele>1530.56</ele>
        <time>2017-02-10T13:12:07Z</time>
      </trkpt>
      <trkpt lat="42.51234" lon="1.95758">
        <ele>1523.83</ele>
        <time>2017-02-10T13:12:29Z</time>
      </trkpt>
      <trkpt lat="42.51143" lon="1.95812">
        <ele>1520.46</ele>
        <time>2017-02-10T13:13:23Z</time>
      </trkpt>
      <trkpt lat="42.5111" lon="1.95815">
        <ele>1516.62</ele>
        <time>2017-02-10T13:13:38Z</time>
      </trkpt>
      <trkpt lat="42.51108" lon="1.95817">
        <ele>1516.62</ele>
        <time>2017-02-10T13:13:39Z</time>
      </trkpt>
      <trkpt lat="42.51082" lon="1.95828">
        <ele>1510.85</ele>
        <time>2017-02-10T13:13:50Z</time>
      </trkpt>
      <trkpt lat="42.51078" lon="1.95825">
        <ele>1510.85</ele>
        <time>2017-02-10T13:13:51Z</time>
      </trkpt>
      <trkpt lat="42.50985" lon="1.95805">
        <ele>1505.56</ele>
        <time>2017-02-10T13:14:16Z</time>
      </trkpt>
      <trkpt lat="42.50915" lon="1.95858">
        <ele>1499.79</ele>
        <time>2017-02-10T13:14:37Z</time>
      </trkpt>
      <trkpt lat="42.5082" lon="1.95935">
        <ele>1494.99</ele>
        <time>2017-02-10T13:15:09Z</time>
      </trkpt>
      <trkpt lat="42.50719" lon="1.95959">
        <ele>1490.18</ele>
        <time>2017-02-10T13:15:53Z</time>
      </trkpt>
      <trkpt lat="42.50647" lon="1.95949">
        <ele>1484.89</ele>
        <time>2017-02-10T13:16:22Z</time>
      </trkpt>
      <trkpt lat="42.50584" lon="1.9594">
        <ele>1479.13</ele>
        <time>2017-02-10T13:17:05Z</time>
      </trkpt>
      <trkpt lat="42.50581" lon="1.95939">
        <ele>1479.13</ele>
        <time>2017-02-10T13:17:06Z</time>
      </trkpt>
      <trkpt lat="42.50458" lon="1.95942">
        <ele>1475.28</ele>
        <time>2017-02-10T13:17:48Z</time>
      </trkpt>
      <trkpt lat="42.50397" lon="1.95949">
        <ele>1469.03</ele>
        <time>2017-02-10T13:18:08Z</time>
      </trkpt>
      <trkpt lat="42.50346" lon="1.95938">
        <ele>1464.23</ele>
        <time>2017-02-10T13:18:21Z</time>
      </trkpt>
      <trkpt lat="42.50309" lon="1.95924">
        <ele>1460.86</ele>
        <time>2017-02-10T13:18:33Z</time>
      </trkpt>
      <trkpt lat="42.50199" lon="1.95921">
        <ele>1456.53</ele>
        <time>2017-02-10T13:20:54Z</time>
      </trkpt>
      <trkpt lat="42.50056" lon="1.95849">
        <ele>1451.25</ele>
        <time>2017-02-10T13:22:09Z</time>
      </trkpt>
      <trkpt lat="42.50026" lon="1.95852">
        <ele>1445.48</ele>
        <time>2017-02-10T13:22:17Z</time>
      </trkpt>
      <trkpt lat="42.49984" lon="1.95867">
        <ele>1441.63</ele>
        <time>2017-02-10T13:22:25Z</time>
      </trkpt>
      <trkpt lat="42.49952" lon="1.95891">
        <ele>1438.27</ele>
        <time>2017-02-10T13:22:37Z</time>
      </trkpt>
      <trkpt lat="42.49922" lon="1.95922">
        <ele>1432.5</ele>
        <time>2017-02-10T13:22:46Z</time>
      </trkpt>
      <trkpt lat="42.49903" lon="1.95942">
        <ele>1429.14</ele>
        <time>2017-02-10T13:22:57Z</time>
      </trkpt>
      <trkpt lat="42.49901" lon="1.95943">
        <ele>1429.14</ele>
        <time>2017-02-10T13:22:58Z</time>
      </trkpt>
      <trkpt lat="42.49836" lon="1.9598">
        <ele>1424.33</ele>
        <time>2017-02-10T13:23:23Z</time>
      </trkpt>
      <trkpt lat="42.49822" lon="1.95988">
        <ele>1423.37</ele>
        <time>2017-02-10T13:23:29Z</time>
      </trkpt>
      <trkpt lat="42.4982" lon="1.95988">
        <ele>1423.37</ele>
        <time>2017-02-10T13:23:30Z</time>
      </trkpt>
      <trkpt lat="42.49781" lon="1.95996">
        <ele>1420</ele>
        <time>2017-02-10T13:23:45Z</time>
      </trkpt>
      <trkpt lat="42.49754" lon="1.96005">
        <ele>1418.08</ele>
        <time>2017-02-10T13:29:30Z</time>
      </trkpt>
      <trkpt lat="42.49604" lon="1.95967">
        <ele>1413.76</ele>
        <time>2017-02-10T13:42:06Z</time>
      </trkpt>
      <trkpt lat="42.49535" lon="1.95972">
        <ele>1410.39</ele>
        <time>2017-02-10T13:42:53Z</time>
      </trkpt>
      <trkpt lat="42.49482" lon="1.95976">
        <ele>1407.03</ele>
        <time>2017-02-10T13:43:33Z</time>
      </trkpt>
      <trkpt lat="42.49402" lon="1.95964">
        <ele>1402.7</ele>
        <time>2017-02-10T13:44:33Z</time>
      </trkpt>
      <trkpt lat="42.49342" lon="1.95963">
        <ele>1398.37</ele>
        <time>2017-02-10T13:45:17Z</time>
      </trkpt>
      <trkpt lat="42.49241" lon="1.9599">
        <ele>1395.01</ele>
        <time>2017-02-10T13:46:33Z</time>
      </trkpt>
      <trkpt lat="42.49209" lon="1.96001">
        <ele>1391.65</ele>
        <time>2017-02-10T13:47:00Z</time>
      </trkpt>
      <trkpt lat="42.49156" lon="1.96015">
        <ele>1386.84</ele>
        <time>2017-02-10T13:47:40Z</time>
      </trkpt>
      <trkpt lat="42.49106" lon="1.96034">
        <ele>1380.59</ele>
        <time>2017-02-10T13:48:19Z</time>
      </trkpt>
      <trkpt lat="42.49055" lon="1.96046">
        <ele>1375.3</ele>
        <time>2017-02-10T13:48:53Z</time>
      </trkpt>
      <trkpt lat="42.49025" lon="1.96051">
        <ele>1371.94</ele>
        <time>2017-02-10T13:49:17Z</time>
      </trkpt>
      <trkpt lat="42.48953" lon="1.96049">
        <ele>1367.13</ele>
        <time>2017-02-10T13:50:08Z</time>
      </trkpt>
      <trkpt lat="42.48915" lon="1.96047">
        <ele>1362.81</ele>
        <time>2017-02-10T13:50:43Z</time>
      </trkpt>
      <trkpt lat="42.48902" lon="1.96057">
        <ele>1360.88</ele>
        <time>2017-02-10T13:52:17Z</time>
      </trkpt>
    </trkseg>
  </trk>
</gpx>